GFSNW_500_rhum_000.txt.gz
RH
17 51 60 100 100 89 18 80 100 97 100 100 100 93 62 78 35 27 20 20 23 40 42 35 25 64 42 74 82 55 72 68 84 88 97 91 70 62 62 54 47 59 60 28
11 41 92 83 100 98 72 100 100 88 100 98 74 71 100 71 41 34 29 28 38 40 34 25 61 38 57 62 59 66 98 92 98 100 100 100 98 100 99 97 82 44 46 54
13 44 74 91 100 94 96 100 100 100 100 77 100 100 98 54 47 44 40 42 48 33 20 56 51 42 70 79 86 99 100 100 100 100 100 100 100 100 100 88 50 35 48 88
16 32 97 91 100 89 100 100 100 73 67 88 97 98 85 62 54 49 51 51 22 25 42 75 37 52 81 95 100 100 98 100 100 100 100 100 100 80 23 19 35 42 46 95
32 55 100 100 93 62 95 100 99 100 100 100 100 98 70 60 65 65 39 33 31 36 81 71 40 55 82 97 100 94 98 99 100 99 100 94 49 24 16 18 34 71 88 99
49 62 97 100 85 96 100 100 98 92 100 95 80 67 86 100 86 49 38 61 44 80 84 67 36 49 72 98 97 97 98 99 96 98 99 78 32 44 88 68 80 89 98 97
70 20 69 87 88 95 99 93 100 95 98 93 91 100 100 100 77 54 57 76 65 84 88 57 31 44 78 94 97 98 100 96 97 96 97 100 100 98 97 96 98 96 91 93
83 26 74 82 82 100 94 93 95 87 99 100 85 100 100 96 66 56 62 86 98 98 93 60 27 61 71 82 84 100 98 100 90 97 96 98 98 78 65 76 88 96 96 97
70 62 72 100 85 91 100 98 100 100 100 100 100 98 100 91 51 39 79 99 92 93 98 84 40 63 68 51 60 79 95 84 88 89 97 75 94 94 90 72 92 94 97 93
46 68 72 88 93 100 100 100 100 100 94 96 90 97 100 88 53 56 100 95 96 90 99 89 78 39 51 41 57 62 65 75 73 74 74 75 72 73 72 72 71 77 88 94
29 51 83 98 94 98 100 100 100 97 94 97 93 100 100 92 52 60 100 96 97 95 86 92 95 64 26 37 57 57 54 62 68 64 62 64 71 74 74 72 73 74 76 75
21 40 52 91 83 90 90 97 95 100 100 100 100 100 99 95 67 100 89 96 100 100 99 94 97 83 38 31 52 55 46 44 55 69 60 54 58 67 63 60 68 74 75 78
7 33 42 72 79 84 99 96 85 96 90 97 96 94 100 79 70 81 94 90 100 99 99 97 93 90 58 61 50 66 53 45 42 51 54 65 70 70 69 71 78 80 76 72
2 24 38 74 69 88 96 92 87 83 100 99 97 99 98 75 71 68 80 81 100 100 100 99 93 91 71 91 76 69 74 60 44 49 66 78 86 85 76 77 87 88 87 87
2 14 29 51 62 76 82 83 86 92 97 84 83 92 87 66 78 55 71 88 90 98 99 96 97 96 90 72 91 92 96 81 60 60 78 78 83 79 81 81 89 84 98 99
2 3 23 42 55 84 76 69 66 66 74 69 79 87 77 65 66 51 90 100 98 99 98 98 98 99 77 76 86 100 95 85 83 74 83 95 93 95 83 86 92 82 76 94
1 1 11 30 53 92 73 59 66 75 71 60 76 75 68 75 62 58 94 100 100 96 97 91 96 100 93 94 90 97 79 82 86 78 78 88 94 96 86 76 83 78 86 88
3 3 9 21 52 99 83 86 97 78 60 71 79 76 77 82 73 66 94 100 99 99 99 100 97 98 87 94 92 80 73 67 73 81 76 78 83 87 92 93 86 74 87 100
4 3 11 27 40 100 85 92 94 71 67 72 68 75 86 89 78 76 96 99 100 96 96 95 96 88 96 95 90 86 80 77 70 70 76 82 96 85 92 94 90 79 88 99
3 2 15 32 37 100 91 100 95 74 69 64 81 80 86 92 86 89 94 100 100 94 96 91 88 100 96 93 96 100 100 100 98 94 98 100 78 73 86 96 100 100 100 97
3 1 25 40 69 97 93 100 85 66 58 71 84 92 88 89 80 86 94 96 100 98 100 94 97 99 96 94 94 94 97 98 95 97 100 100 96 91 100 100 100 99 86 82
4 10 72 76 90 98 98 99 72 53 58 68 88 94 84 82 79 79 90 93 97 97 99 98 99 93 97 89 87 88 94 97 98 99 99 99 100 100 100 100 99 98 96 88
11 47 85 100 100 100 100 75 67 48 45 76 99 100 100 92 89 84 85 83 85 90 97 100 95 90 92 86 89 90 89 94 99 98 89 86 88 88 86 85 84 83 86 91
28 61 86 100 100 98 87 62 50 50 68 95 100 98 86 83 94 87 72 60 75 81 84 92 89 82 98 98 92 86 92 100 97 90 77 76 81 85 84 83 81 86 92 92
16 82 100 100 100 96 84 70 58 58 62 96 100 100 100 100 83 80 67 56 55 58 74 83 91 86 83 93 100 98 98 94 95 97 97 92 80 77 85 96 99 95 88 86
2 29 67 92 87 88 78 69 65 61 65 99 96 95 100 97 80 69 72 67 61 66 86 84 91 90 91 86 84 90 98 97 96 100 100 99 100 100 99 99 94 88 94 100
2 12 47 67 82 73 75 71 65 63 72 92 81 78 87 87 78 64 60 75 91 93 94 79 80 92 95 100 97 97 96 94 94 92 90 90 87 87 90 91 95 100 100 100

GFSNW_500_rhum_003.txt.gz
RH
11 4 23 80 93 100 100 100 49 62 100 100 100 98 91 84 61 59 42 29 23 23 22 24 30 39 34 30 52 56 65 60 56 52 80 94 98 100 100 93 59 62 58 32
3 6 20 54 83 100 78 100 100 47 89 91 94 48 84 88 96 57 28 18 13 18 25 28 38 37 33 51 74 69 67 66 70 60 85 100 100 100 100 100 100 62 69 31
57 29 41 85 100 100 99 100 100 90 95 96 96 91 100 100 100 58 27 17 12 27 34 34 36 28 49 77 70 73 73 75 73 85 100 100 100 100 100 100 73 77 52 81
72 94 100 100 100 100 100 100 95 80 97 98 96 97 100 100 100 70 38 33 34 38 40 38 22 48 72 78 84 100 75 85 79 95 100 84 86 57 44 25 33 58 64 94
83 97 100 82 93 100 100 100 79 87 84 100 91 77 83 91 82 60 59 53 44 47 40 25 30 54 66 76 96 92 88 96 93 96 98 84 62 25 10 12 34 47 41 81
42 77 49 68 78 90 99 100 84 86 100 100 100 100 98 76 67 69 62 55 50 35 21 23 66 45 57 82 86 87 85 83 81 98 99 99 96 92 49 48 46 71 96 80
22 43 46 72 79 99 91 98 98 98 100 96 96 91 75 84 78 67 61 41 36 41 43 69 75 38 68 89 76 90 91 93 93 92 95 100 99 87 96 94 74 86 98 100
32 25 57 49 74 88 100 100 100 100 100 94 74 94 100 100 85 52 51 61 71 60 73 94 75 37 62 86 78 70 86 89 93 94 98 98 64 76 84 70 71 82 95 98
38 25 41 52 70 87 97 91 100 100 100 98 76 78 100 98 68 42 56 73 81 84 88 99 76 38 68 72 66 60 66 88 92 99 90 95 84 86 88 94 96 97 99 98
32 41 54 66 81 96 79 82 92 88 100 100 83 85 100 100 67 82 63 82 72 85 92 97 100 63 68 61 48 55 51 58 69 70 93 95 96 100 100 92 89 97 97 96
12 34 48 60 61 69 77 78 87 90 96 100 92 79 84 97 69 62 63 62 76 92 96 99 100 87 51 58 44 49 54 47 49 59 70 86 99 94 100 94 93 98 95 99
2 23 47 48 62 75 69 80 84 89 96 85 88 68 81 100 60 52 62 66 87 96 98 99 100 91 50 48 44 37 53 45 39 46 65 76 76 78 85 79 79 80 88 93
1 3 26 56 63 64 82 94 93 84 87 78 86 78 94 92 98 74 72 75 97 98 100 100 100 95 75 42 26 36 51 46 36 39 50 65 82 86 80 78 75 75 67 78
2 2 9 20 60 74 79 72 81 98 100 88 100 98 87 78 88 78 93 97 99 99 100 100 93 97 87 56 39 42 56 50 43 42 51 59 66 74 75 78 93 93 93 93
2 1 3 16 48 78 90 76 81 89 88 77 87 84 91 94 95 92 96 78 96 99 97 100 99 96 99 72 60 67 63 61 59 52 53 63 62 77 86 95 89 84 87 94
2 2 2 24 48 83 90 82 94 78 66 64 65 72 92 94 82 90 89 69 98 98 95 100 98 95 91 86 74 99 77 68 80 76 68 79 84 89 100 100 89 79 71 82
2 2 1 17 74 98 88 81 83 82 73 62 68 69 84 89 79 82 74 68 99 100 100 99 91 84 72 85 99 96 79 79 93 91 83 78 84 91 93 91 92 80 78 85
2 3 2 7 73 88 89 80 90 86 74 67 80 74 75 81 75 79 72 69 91 95 100 98 97 88 78 88 92 70 71 70 90 94 90 94 94 97 98 98 97 79 82 91
2 3 2 3 47 79 84 94 100 96 76 66 70 72 77 76 76 79 80 75 88 96 98 98 96 91 94 96 93 90 84 74 71 76 77 84 90 93 96 97 94 92 92 90
4 3 3 2 52 100 100 100 100 100 83 69 72 78 78 74 81 80 72 65 82 93 99 97 97 99 99 96 97 97 89 85 79 76 73 77 90 97 95 98 100 99 87 99
6 3 3 0 66 100 100 100 100 98 71 78 79 84 76 72 74 79 70 66 78 92 96 92 97 94 83 95 96 96 100 100 98 95 94 95 98 98 97 100 98 98 98 96
9 7 3 8 88 100 100 100 100 87 86 76 90 98 91 85 74 75 71 62 72 86 91 95 95 88 95 98 98 96 99 96 98 96 98 98 96 94 95 98 99 98 96 95
18 17 12 42 100 100 100 97 96 77 73 74 100 94 90 89 88 84 80 63 59 75 83 89 88 98 98 100 100 95 96 97 98 97 96 96 97 97 97 95 93 92 86 86
14 34 26 72 100 100 96 94 81 73 67 68 85 100 99 94 94 83 82 69 62 64 73 81 77 91 97 98 100 100 100 98 100 100 99 98 99 98 97 96 93 89 83 79
4 40 55 63 86 96 95 68 67 72 70 69 69 86 99 92 79 86 80 67 56 62 62 70 73 75 94 100 100 100 100 100 100 100 100 98 90 84 82 81 78 77 83 94
10 7 52 71 72 74 58 44 51 58 66 70 73 88 95 81 77 83 84 75 77 70 59 59 63 68 78 94 100 100 99 100 100 100 100 100 100 100 99 96 93 96 95 96
18 11 4 58 71 73 80 69 59 56 59 62 66 74 84 80 76 71 94 100 99 93 90 81 78 79 86 92 96 100 100 100 100 100 100 100 100 100 100 99 94 91 97 100

GFSNW_500_rhum_006.txt.gz
RH
48 2 65 51 68 100 93 99 16 8 75 100 100 100 100 100 100 100 98 94 77 44 32 28 30 27 24 28 34 30 40 43 47 58 63 71 83 95 100 100 100 100 100 42
72 39 54 53 79 93 100 89 24 12 100 100 100 100 100 100 99 86 75 72 85 60 43 36 32 24 23 37 30 44 54 50 51 57 74 71 62 89 100 100 99 87 100 35
86 75 80 89 79 62 83 100 37 11 89 100 100 99 100 100 98 76 54 46 48 60 46 32 25 22 32 29 46 63 64 62 65 68 82 71 67 68 30 27 26 91 84 72
67 63 75 75 91 100 100 81 27 64 99 94 98 99 81 75 78 62 48 35 41 39 24 22 23 28 30 39 71 78 70 71 73 81 88 78 82 73 51 14 10 37 47 79
32 50 94 94 100 100 99 68 50 95 72 82 76 71 69 79 91 91 61 39 36 30 35 30 34 35 31 69 77 76 81 86 90 88 97 94 93 79 54 34 28 38 39 48
29 41 53 72 86 99 92 51 67 80 74 43 72 92 99 96 95 93 70 42 45 47 43 37 32 23 48 63 79 86 92 84 83 94 99 86 71 66 54 65 72 67 84 62
23 34 46 76 91 52 51 59 88 100 100 100 96 95 88 81 78 62 51 54 52 50 43 32 26 26 51 71 77 88 98 100 99 98 89 73 75 66 59 60 69 75 98 94
19 24 37 50 75 54 53 57 84 100 81 81 68 57 71 67 67 67 64 62 58 50 38 29 38 59 44 85 81 90 86 91 98 97 92 83 83 83 75 83 92 96 94 89
5 26 28 38 49 66 59 53 65 93 93 96 80 72 70 72 65 56 70 76 78 62 42 52 77 68 48 74 71 68 72 82 88 79 98 95 97 88 96 99 95 100 100 99
4 19 25 24 35 69 71 61 74 98 80 68 82 94 100 85 65 84 100 100 93 86 77 68 88 60 59 65 56 58 63 62 65 80 76 88 97 99 98 93 97 99 95 99
11 3 23 27 31 37 70 88 85 86 69 78 75 75 90 100 74 65 99 99 81 77 70 68 92 67 51 64 50 44 53 59 58 74 84 79 78 98 97 93 84 84 100 98
13 7 2 27 26 31 48 68 69 71 90 85 93 82 78 99 85 76 68 77 75 74 88 89 84 85 48 62 56 43 41 49 53 55 67 77 80 83 83 89 87 84 77 81
14 9 3 3 38 50 45 55 74 74 73 85 92 89 78 91 69 58 63 80 72 73 89 91 83 84 51 48 56 52 43 37 51 45 55 72 75 74 79 84 84 84 82 84
15 10 4 2 10 49 62 61 75 62 60 73 59 57 78 85 85 81 71 90 75 92 93 98 93 90 76 61 47 45 44 38 49 48 45 60 69 71 86 91 96 90 92 91
15 10 3 2 2 34 60 60 64 61 65 72 64 70 76 86 82 99 87 82 95 84 88 96 99 86 87 78 66 49 38 38 56 56 52 51 60 80 87 87 96 93 99 99
12 7 4 3 2 20 56 67 71 65 70 73 76 84 82 88 100 98 88 99 86 82 97 95 90 98 81 77 78 68 48 40 62 71 71 61 63 82 85 92 89 82 82 77
11 4 5 3 2 28 84 73 74 72 77 96 84 84 77 97 100 87 84 96 83 78 93 96 99 98 81 86 91 88 58 63 68 73 86 75 66 83 81 84 78 81 87 100
10 4 6 2 2 33 97 92 91 81 90 89 84 77 58 77 94 84 78 82 81 82 93 95 97 95 91 96 92 71 69 61 76 85 94 93 79 91 93 94 92 92 87 98
7 5 5 2 2 40 100 100 100 96 86 81 92 80 67 67 80 76 76 73 75 82 91 96 99 100 98 93 90 85 80 76 72 73 85 91 93 97 98 97 93 91 91 96
6 5 4 2 3 61 100 100 100 100 91 99 100 98 74 64 68 71 67 65 73 76 85 98 98 100 89 82 86 93 96 92 80 76 73 77 79 85 90 95 95 96 88 86
4 7 3 2 11 99 100 100 100 99 90 100 98 85 69 64 67 71 69 70 67 71 91 98 99 97 99 97 98 96 84 94 90 88 80 72 70 80 90 93 94 98 99 90
4 9 3 7 80 100 100 100 100 90 93 100 98 82 71 69 60 59 56 61 63 65 84 94 99 100 100 96 97 97 98 100 99 97 98 96 94 98 100 86 92 94 97 98
5 15 4 42 89 100 100 100 98 86 96 100 98 83 72 67 65 65 66 58 58 61 69 81 87 98 100 100 98 99 100 98 100 100 96 95 98 100 98 98 96 93 91 90
10 16 23 46 66 82 99 83 79 84 100 100 90 74 67 66 64 64 70 68 68 61 62 70 71 88 97 100 100 100 100 100 99 100 100 99 98 98 96 93 95 95 90 86
18 7 27 37 60 68 69 53 63 87 92 98 97 83 76 67 65 73 69 70 71 73 81 75 67 69 83 92 100 100 100 100 99 98 98 98 98 98 98 98 97 94 87 80
28 18 10 37 40 53 58 59 63 69 84 92 88 82 71 62 67 73 68 78 98 100 96 86 64 58 63 76 94 100 100 100 100 100 99 98 98 98 96 93 93 96 96 97
36 29 21 8 44 56 56 55 63 65 68 76 79 76 67 59 68 76 99 100 94 88 87 81 83 65 64 76 88 94 100 100 100 100 100 100 100 100 100 100 100 100 100 98

GFSNW_500_rhum_009.txt.gz
RH
19 50 49 53 80 89 100 89 67 70 27 33 99 100 100 93 91 96 88 98 95 50 43 42 42 40 35 31 26 23 26 32 34 44 50 53 52 60 62 74 93 76 64 23
14 28 37 46 84 92 100 37 23 27 16 32 100 100 97 90 100 100 99 100 98 56 43 40 37 32 30 26 22 26 34 40 51 52 57 54 57 80 69 87 92 57 60 25
13 30 70 77 74 90 93 29 7 11 64 97 100 100 100 95 100 100 99 95 92 81 60 45 38 32 30 25 24 33 33 52 59 67 66 56 65 69 79 94 63 54 34 31
10 27 63 90 88 68 62 48 10 84 99 97 92 100 100 99 100 100 89 80 97 96 88 63 49 36 28 22 31 33 53 74 73 80 84 87 90 72 63 53 58 54 43 40
8 28 39 45 61 70 40 30 77 100 98 98 100 100 97 100 100 89 78 72 69 65 74 71 56 40 22 31 34 52 79 90 84 79 95 91 75 61 44 53 59 60 67 92
7 23 32 35 44 47 17 37 93 88 95 88 84 87 83 73 78 70 61 55 55 49 43 41 28 19 25 34 55 78 89 94 83 93 93 86 65 54 57 70 79 72 78 100
10 12 24 32 32 44 13 62 67 73 66 62 79 76 68 57 52 52 52 59 63 41 33 24 20 27 31 37 67 86 98 94 91 98 90 64 68 66 68 68 84 88 93 83
17 7 16 21 33 39 44 31 34 28 41 42 56 56 78 78 73 70 67 62 53 44 36 37 35 32 28 49 63 90 96 95 96 98 90 71 75 73 78 92 85 80 99 93
21 15 7 17 23 30 42 50 73 64 48 32 36 54 72 65 55 59 58 56 51 48 41 38 41 35 47 49 89 83 86 87 92 96 94 79 93 80 73 68 83 96 97 99
19 19 13 6 18 25 29 50 47 68 55 57 51 49 51 58 62 66 77 87 83 58 42 38 52 61 60 51 78 72 83 90 81 76 71 76 87 81 74 72 71 80 97 99
18 18 17 8 6 19 23 34 46 46 59 49 64 67 67 74 70 79 98 97 98 83 65 56 68 74 68 55 67 66 60 73 66 69 64 71 71 69 72 72 75 78 85 96
21 18 18 10 6 7 21 26 60 55 65 57 57 72 83 79 82 96 100 100 86 82 81 73 70 68 74 56 62 68 56 47 52 54 60 64 73 67 59 65 78 76 79 79
25 20 18 17 9 4 14 31 37 59 62 67 65 70 77 95 82 100 100 98 86 74 79 88 80 69 68 68 51 58 64 50 43 53 54 58 70 71 65 66 77 86 76 78
26 22 18 15 8 5 3 48 49 63 67 64 73 87 78 81 94 80 79 78 94 71 79 87 84 80 73 73 56 45 57 57 51 41 53 50 63 70 70 79 78 73 85 80
26 22 18 12 5 5 3 48 64 57 67 66 69 88 90 84 99 88 72 62 80 87 98 86 90 93 81 78 60 59 54 51 51 47 48 53 52 61 80 84 83 90 92 90
26 21 16 9 6 4 2 43 81 71 72 71 72 62 68 86 98 94 98 90 82 97 88 89 96 83 78 74 80 84 75 63 49 49 61 64 59 54 78 83 87 88 82 82
24 19 14 8 4 3 2 41 81 77 85 77 80 71 71 91 99 94 98 96 100 95 88 82 93 84 70 73 88 96 74 72 60 58 73 72 73 70 85 81 80 87 85 78
22 17 12 6 2 3 2 45 86 97 96 84 82 73 79 78 88 99 100 98 99 86 80 84 97 88 76 85 68 65 71 73 82 86 86 98 96 87 99 95 92 87 94 87
21 15 9 3 2 3 4 58 98 100 98 78 79 85 80 72 81 95 97 82 84 79 82 87 92 95 93 77 69 67 69 77 78 80 92 99 99 98 98 100 96 93 94 84
21 14 7 2 2 4 45 98 100 100 89 96 100 84 79 64 70 84 81 79 79 78 88 92 98 99 95 95 85 86 90 88 90 89 84 84 97 96 93 91 91 100 93 84
20 13 7 2 5 39 100 100 100 98 98 100 100 93 85 72 60 58 63 66 66 73 88 93 100 100 100 100 98 96 98 100 99 96 87 83 83 81 79 86 95 97 95 98
23 11 8 4 28 99 100 100 100 93 99 100 97 90 84 77 62 57 52 52 56 64 74 87 100 98 98 100 100 97 98 98 99 95 99 100 99 94 96 100 100 99 97 98
26 12 11 9 59 92 95 92 76 78 97 100 95 90 78 68 58 51 45 46 50 52 58 76 95 99 99 99 100 99 99 99 99 100 95 97 99 100 98 99 100 98 100 100
30 20 13 22 46 56 68 78 85 81 94 96 84 86 82 70 62 49 44 48 58 64 73 81 78 91 98 97 98 99 100 98 98 99 96 98 98 100 100 100 100 100 100 99
34 25 16 27 37 49 53 62 68 77 99 100 96 82 78 72 59 52 52 61 70 74 70 73 78 78 82 86 88 95 99 100 99 98 99 99 99 100 99 98 99 99 99 99
36 34 24 16 32 46 58 54 62 73 88 98 95 90 80 68 60 56 65 69 70 68 69 76 83 84 67 65 78 83 97 100 100 100 100 100 99 100 100 100 100 100 96 91
42 38 35 27 13 35 57 63 65 61 74 84 95 97 93 82 76 65 67 98 88 78 69 73 89 94 87 62 73 91 88 96 100 100 100 100 100 98 99 100 99 99 98 98

GFSNW_500_rhum_012.txt.gz
RH
8 18 47 60 54 97 100 18 48 31 4 49 99 100 100 100 92 98 97 98 80 71 60 56 46 37 34 36 40 44 41 29 25 28 32 31 32 42 43 47 63 51 57 21
9 18 35 47 68 94 60 6 15 12 23 81 97 100 100 100 76 100 95 100 100 57 56 53 49 46 47 48 45 35 26 24 32 34 41 50 50 57 56 57 49 49 50 43
10 14 29 51 33 56 8 5 5 6 64 97 95 100 100 100 88 84 95 99 100 63 52 51 49 48 46 41 31 25 22 28 34 50 58 55 54 64 73 62 45 54 70 42
13 11 26 31 22 25 16 10 21 26 71 96 100 99 100 100 100 100 100 99 100 96 59 48 44 41 34 28 28 24 25 35 54 76 68 57 72 81 68 56 70 67 65 81
17 10 26 25 22 8 82 70 54 92 100 92 100 100 93 88 98 100 100 98 95 92 84 63 54 42 36 35 27 22 33 61 82 85 68 75 89 78 76 74 66 70 69 81
20 13 20 25 28 38 77 80 64 87 79 75 78 83 76 86 88 89 93 87 86 78 93 85 78 59 54 43 24 30 66 83 83 74 72 85 76 83 73 67 72 74 82 90
24 21 10 25 28 35 38 57 65 55 55 56 58 65 72 71 70 76 70 64 59 51 37 54 66 62 59 22 27 48 76 92 91 84 89 76 80 75 66 53 77 59 76 79
31 22 21 8 22 28 36 37 47 54 50 50 46 46 47 49 50 49 46 46 46 45 37 29 26 22 18 27 32 68 88 97 100 96 92 84 93 80 60 54 68 62 66 83
40 29 24 21 7 18 24 27 34 38 37 33 40 45 32 40 55 55 57 55 51 44 34 30 27 29 32 34 48 76 94 98 96 87 92 93 91 83 63 69 64 68 69 85
48 40 27 25 24 10 14 23 29 41 41 30 26 29 30 45 53 54 55 51 49 43 39 36 33 33 34 51 53 77 94 94 85 82 78 76 76 68 56 62 70 64 67 83
45 40 34 25 25 21 11 10 22 33 37 51 55 57 28 40 45 50 64 64 67 63 52 45 42 41 37 50 57 69 84 80 84 76 62 58 56 60 63 61 70 71 61 79
36 41 37 27 21 20 16 6 11 24 36 43 56 55 56 61 65 80 92 82 78 95 77 65 58 61 50 44 57 74 87 70 66 56 54 46 48 54 64 67 67 66 75 70
38 41 42 30 21 18 14 9 6 24 31 39 54 56 62 78 76 78 100 100 96 96 89 87 88 69 51 40 41 53 65 65 63 49 47 49 46 49 61 61 66 66 75 83
42 41 44 31 22 18 13 8 6 27 41 47 59 60 64 75 93 81 99 100 100 96 82 86 84 71 54 45 40 51 52 53 61 66 53 42 52 47 47 55 67 71 82 87
52 47 43 29 23 14 8 5 5 61 71 55 64 70 72 83 99 99 88 93 91 88 76 87 94 83 64 67 55 69 55 50 48 57 61 53 48 49 45 50 68 75 89 80
61 48 40 26 16 10 5 2 6 64 100 80 83 71 82 100 100 96 100 81 61 61 69 94 98 86 73 78 88 77 58 48 56 59 54 51 52 56 48 48 71 81 86 76
61 46 33 21 11 6 1 3 6 78 100 96 84 74 86 100 98 100 100 99 98 72 84 98 91 94 83 78 78 64 63 61 70 77 67 71 72 68 61 67 76 80 92 86
56 47 29 13 7 2 2 4 16 100 100 100 92 78 99 96 88 100 100 98 100 98 100 100 99 100 91 78 64 68 74 72 83 89 79 82 100 96 79 86 91 90 89 90
58 43 21 10 3 2 3 6 91 100 100 100 98 92 95 96 100 100 100 100 100 100 100 100 100 100 100 100 95 88 82 78 86 89 94 100 100 100 99 99 100 98 97 97
55 36 16 8 2 2 5 59 100 100 96 100 99 95 97 90 85 87 94 100 100 100 100 100 100 100 100 100 100 91 79 79 86 91 88 88 94 92 99 100 100 100 100 100
53 30 15 7 2 5 42 100 100 99 100 100 100 99 97 80 76 74 90 98 99 100 100 100 100 97 94 98 100 98 90 88 87 95 95 96 90 80 87 99 100 100 98 100
45 27 14 8 7 19 72 94 91 84 90 97 95 98 85 76 71 68 61 62 80 97 100 100 89 87 98 100 100 100 96 94 99 95 100 98 90 85 80 88 99 99 100 100
44 28 15 11 20 30 56 64 66 78 95 100 97 94 82 80 79 69 60 53 58 62 75 90 89 86 99 99 100 100 100 99 97 99 98 99 99 99 100 98 97 98 100 98
45 32 19 20 31 52 67 64 75 81 98 100 100 98 95 88 86 70 62 56 50 58 64 68 70 83 82 91 98 100 100 100 100 98 93 94 98 99 100 100 99 100 99 98
47 36 28 13 26 52 67 67 67 76 85 91 99 96 94 90 80 74 66 54 57 64 67 72 75 77 80 78 81 95 99 99 99 100 96 95 94 99 97 97 97 98 98 97
54 42 35 26 17 33 44 54 59 63 72 80 81 80 80 77 72 73 64 60 62 52 51 58 67 80 89 86 75 72 90 98 100 97 98 100 100 93 93 99 99 98 98 97
66 48 41 36 31 16 29 39 59 59 62 59 61 67 75 79 74 70 68 73 75 54 48 50 58 66 81 98 89 73 64 77 98 100 100 100 100 100 99 98 99 99 99 98

GFSNW_500_rhum_015.txt.gz
RH
15 10 11 13 4 3 5 8 39 99 100 100 100 100 100 100 70 99 94 90 66 89 58 31 32 31 29 32 32 30 29 32 41 35 28 23 21 30 39 47 44 40 38 30
17 11 11 13 5 2 3 9 65 96 100 98 100 81 94 99 100 98 98 94 100 85 78 45 32 31 31 33 32 36 40 38 33 24 24 26 39 51 52 48 54 61 47 50
20 13 11 16 10 4 8 40 64 92 90 100 99 77 77 98 83 96 99 96 96 87 67 51 46 41 41 35 44 44 40 28 25 26 29 40 57 62 70 60 60 50 51 32
28 15 11 17 17 13 25 54 72 80 94 92 100 99 96 72 73 60 97 98 94 83 63 56 55 53 51 48 45 39 28 26 27 30 44 55 68 74 66 77 68 59 47 56
39 21 12 13 19 13 26 59 57 53 54 71 75 73 82 90 73 94 90 86 86 96 56 55 55 51 48 43 33 29 25 27 41 55 73 77 85 81 89 66 52 43 54 66
48 33 18 10 16 23 36 45 46 70 69 58 57 55 67 76 80 84 90 93 91 88 87 51 46 41 38 37 35 31 26 34 72 78 76 84 91 96 74 54 46 39 58 66
47 44 32 19 12 18 30 32 43 49 53 58 54 56 48 46 66 75 74 76 84 65 54 74 50 47 45 53 54 26 22 56 89 86 96 93 92 97 76 63 50 42 62 51
52 49 44 28 22 11 19 24 34 32 37 38 43 47 48 47 41 45 46 42 41 52 49 37 44 61 60 58 48 27 37 78 95 100 100 97 97 100 82 61 51 55 45 66
54 56 48 43 29 25 10 18 20 33 36 40 36 42 37 37 38 33 29 29 29 28 30 31 35 29 41 33 15 22 51 92 96 100 99 95 98 93 70 71 55 60 49 68
54 57 52 52 42 31 27 17 15 22 33 37 35 35 37 40 36 36 43 42 33 36 33 30 29 26 25 27 32 46 59 93 95 93 92 82 81 78 69 67 60 64 56 55
52 53 47 54 52 43 31 27 19 8 23 29 36 33 29 28 35 43 48 46 45 40 34 31 29 29 28 27 41 55 53 85 91 94 87 71 61 58 52 56 61 65 58 60
62 59 48 50 46 44 41 30 24 20 9 18 32 42 56 53 38 48 58 56 56 48 44 42 34 36 32 30 37 45 61 68 82 83 77 58 58 49 42 44 52 59 57 65
66 66 55 55 51 41 38 34 29 19 12 9 20 39 51 58 65 62 59 87 82 78 88 88 78 53 49 37 34 36 54 64 81 74 59 52 50 50 45 43 47 59 63 70
78 68 61 60 53 43 38 33 22 13 10 7 18 41 44 67 69 67 78 100 100 100 100 100 100 90 71 63 41 36 48 54 65 64 61 67 59 45 45 47 46 65 71 77
73 70 64 55 52 42 34 22 12 6 3 6 30 62 65 64 82 90 84 90 100 100 100 99 99 96 83 72 64 73 34 52 50 58 53 54 59 59 50 48 48 66 77 79
74 74 60 60 49 37 20 10 2 2 2 15 74 100 80 83 81 96 100 88 94 95 100 93 100 94 91 90 88 58 38 47 46 58 60 51 53 54 52 53 56 77 84 85
85 72 60 58 40 20 8 2 2 3 12 46 100 100 80 75 97 95 100 99 100 88 70 66 93 98 88 86 76 74 68 75 72 64 65 67 66 60 61 59 67 89 96 94
89 64 71 45 25 11 2 3 7 58 100 100 100 100 100 79 99 100 97 100 100 95 87 97 98 97 83 93 88 85 76 74 78 96 90 81 72 67 77 83 77 100 100 93
79 76 60 37 16 5 3 6 73 100 100 100 100 94 95 86 100 100 100 100 100 100 100 100 99 84 90 100 96 95 79 76 83 87 83 83 75 67 88 96 96 100 99 97
70 84 49 20 12 4 14 82 100 100 92 100 100 100 97 99 100 100 100 100 100 100 100 96 83 80 100 100 100 96 88 78 76 77 77 80 93 88 84 97 99 100 100 99
82 77 36 13 8 16 67 97 96 100 100 100 100 100 100 92 100 100 100 100 100 100 99 83 86 84 98 100 100 100 100 90 81 84 86 90 84 75 76 88 91 100 100 100
95 77 32 12 16 31 70 61 85 93 93 94 96 98 100 100 100 100 99 100 99 99 93 86 85 85 93 100 100 100 99 99 100 90 97 100 94 95 92 88 79 93 99 100
100 85 33 14 20 48 56 51 59 67 80 92 96 100 99 100 99 100 100 88 75 67 72 84 86 93 93 98 99 100 100 98 92 100 100 91 100 91 90 94 100 97 99 94
100 88 38 16 21 45 57 54 60 63 74 80 83 94 100 100 99 93 95 81 64 57 60 70 71 75 86 98 98 95 99 99 100 100 98 98 100 98 99 95 99 100 100 97
100 93 43 18 21 26 48 58 60 61 70 79 89 92 93 99 91 92 85 81 68 62 68 73 77 85 88 91 96 98 94 99 100 100 100 99 100 98 97 99 100 100 99 99
100 100 58 32 19 25 37 49 54 58 69 81 88 92 93 92 83 80 81 84 82 67 58 60 60 68 77 92 93 89 95 96 97 100 100 95 99 100 100 100 96 94 99 100
100 100 84 42 29 18 22 41 63 65 65 66 71 74 78 77 80 74 75 91 90 76 65 58 50 54 66 74 84 92 89 85 88 92 100 100 99 99 97 100 100 100 100 100

GFSNW_500_rhum_018.txt.gz
RH
25 18 12 11 42 66 88 89 76 98 94 96 99 100 100 58 100 73 67 75 86 94 98 56 33 27 25 23 23 27 29 30 29 28 32 32 24 24 27 28 38 46 41 45
30 21 14 14 36 48 52 50 31 55 66 51 92 86 91 100 91 86 75 60 69 82 49 29 28 26 27 27 29 31 32 31 33 38 32 24 26 28 36 46 57 57 44 41
34 28 13 15 29 33 44 58 44 36 60 50 61 94 76 54 69 85 73 91 77 77 40 29 31 28 27 29 30 30 35 39 36 27 23 24 38 46 56 65 55 55 50 43
38 37 13 18 28 23 22 31 37 39 29 49 55 53 72 64 57 86 90 92 94 80 76 44 34 32 32 32 33 45 46 40 29 23 23 39 62 72 76 66 48 31 40 50
45 44 32 17 24 23 30 34 29 29 30 32 36 33 37 34 40 72 85 84 100 90 65 60 51 46 49 52 50 46 38 30 25 24 31 60 73 81 72 55 36 33 34 53
50 53 44 29 16 18 22 26 28 34 46 47 36 34 63 70 58 51 63 67 83 90 84 68 58 54 50 49 46 37 31 27 23 31 57 73 73 83 72 60 37 43 44 63
57 52 56 44 29 15 14 19 32 29 32 37 45 38 42 51 50 62 78 85 62 56 76 73 55 47 43 39 37 37 38 23 32 59 73 80 90 88 79 72 53 46 48 69
59 58 57 60 46 31 15 13 13 17 33 34 35 48 42 32 34 34 39 57 50 61 61 41 64 58 45 46 49 52 38 23 45 71 88 95 94 94 88 72 66 49 49 47
58 65 66 60 68 57 36 22 14 13 11 22 30 36 37 41 39 33 30 30 32 29 40 40 34 36 56 50 51 58 26 33 67 83 91 97 94 96 90 74 64 49 53 44
59 67 76 72 65 70 68 50 31 21 12 11 13 33 39 36 35 36 34 29 25 24 25 24 27 36 29 44 42 24 18 36 77 93 98 93 91 79 72 68 61 49 54 53
71 69 76 72 76 69 64 68 59 40 27 15 12 11 24 34 37 38 43 39 38 28 28 27 29 32 28 28 30 29 40 51 86 97 99 88 83 68 61 56 57 47 54 57
87 77 89 77 66 63 77 79 69 62 48 32 27 13 15 29 31 31 31 33 51 49 40 33 32 34 35 35 34 38 48 56 62 92 90 90 77 58 52 50 45 46 51 56
97 82 90 93 83 72 65 68 59 49 47 40 33 25 15 26 38 48 40 37 40 50 54 55 52 42 44 40 40 37 40 41 67 86 77 89 58 50 51 51 44 46 53 63
95 92 96 89 73 66 50 44 49 43 34 24 17 14 14 15 39 55 70 64 54 50 68 91 99 90 83 75 59 60 40 32 49 75 80 74 64 60 53 46 45 46 58 71
92 88 93 85 83 64 45 43 38 20 11 7 4 4 9 24 57 80 81 74 73 79 93 100 100 100 100 98 92 65 39 31 27 50 60 62 60 59 62 59 51 48 60 77
93 88 92 95 78 51 46 30 12 4 2 3 3 6 19 100 100 95 81 82 90 100 100 100 100 97 96 98 97 69 45 40 33 44 45 67 68 57 52 53 47 49 65 80
93 93 95 82 58 47 24 9 3 3 2 13 61 52 89 100 100 95 100 93 99 96 100 100 99 87 80 80 91 89 61 53 57 61 64 74 66 66 58 51 49 55 65 83
100 97 89 67 55 31 8 7 8 27 58 100 100 100 100 100 96 99 100 100 100 93 96 100 89 69 63 70 86 74 66 61 65 74 75 71 83 78 70 66 62 69 76 89
100 100 93 70 52 13 18 66 82 100 100 100 100 100 100 99 100 100 100 100 97 93 98 92 70 60 63 81 84 75 80 76 73 71 71 76 84 81 75 71 77 94 90 90
100 98 99 73 40 17 62 80 76 81 100 100 92 100 99 86 95 100 100 100 100 100 94 93 83 68 78 85 93 87 90 94 87 86 88 83 77 72 71 69 74 92 98 96
100 100 100 54 27 39 59 54 65 85 97 100 94 92 97 94 100 100 97 100 100 100 100 99 85 90 81 89 100 99 98 100 95 87 83 81 81 80 83 81 90 90 99 95
99 100 100 43 21 43 38 46 72 83 97 96 100 100 100 99 100 100 100 100 100 100 100 100 100 91 86 97 98 100 100 98 98 89 85 94 98 95 92 86 81 85 86 94
87 100 100 59 24 39 30 37 61 79 93 100 100 100 100 100 100 100 95 96 90 90 88 91 90 90 96 99 98 98 100 100 93 95 99 95 95 97 97 100 94 91 85 87
94 100 100 77 23 32 35 37 56 70 75 81 86 93 95 98 100 99 97 100 93 81 70 74 77 82 97 99 99 99 99 100 100 99 100 98 100 100 98 98 99 100 99 100
97 100 100 94 28 33 41 39 51 53 57 75 82 78 86 99 100 99 96 99 93 82 73 74 77 84 90 94 97 97 97 99 100 100 100 100 99 100 100 100 100 100 98 100
100 100 100 99 29 24 43 53 57 64 73 73 79 83 88 86 87 95 100 99 100 96 83 72 65 60 64 70 79 89 93 94 97 100 100 100 100 100 100 100 100 100 96 100
98 100 100 100 54 24 26 36 54 68 67 64 69 77 83 87 92 94 99 100 99 94 89 82 73 64 56 56 57 61 67 80 92 96 97 99 100 99 100 100 100 100 100 100

GFSNW_500_rhum_021.txt.gz
RH
38 25 18 24 30 24 46 65 44 60 82 47 44 42 52 56 49 64 69 93 94 99 100 95 38 30 26 38 45 48 47 37 27 24 27 26 30 30 25 22 20 28 40 52
41 34 20 22 30 34 25 34 42 35 63 75 70 45 46 50 70 71 66 83 84 84 89 70 33 28 28 28 30 31 30 28 28 29 29 34 28 24 25 27 37 62 60 52
47 39 27 19 22 30 32 30 24 34 44 41 50 74 69 83 80 69 59 55 66 82 73 37 31 26 27 29 31 32 31 31 30 34 33 28 25 25 36 50 60 76 46 37
59 40 35 23 18 22 29 28 31 31 24 28 46 50 37 54 72 90 89 92 81 88 46 29 28 27 29 31 32 32 34 38 40 32 24 25 26 43 60 69 59 39 40 34
83 48 41 29 23 19 27 36 27 22 29 29 43 34 50 49 73 79 76 82 88 79 59 44 31 31 30 32 34 39 44 44 37 30 25 27 45 66 72 73 45 37 40 38
97 58 49 41 31 22 18 24 32 32 39 41 29 26 27 24 38 44 55 56 72 76 69 57 48 42 37 37 41 46 46 40 32 27 26 34 70 74 78 69 51 36 38 43
99 75 53 52 45 39 27 17 23 31 33 37 34 34 39 44 35 49 52 62 65 78 82 72 57 54 53 50 49 47 42 36 32 27 28 58 76 80 83 71 53 44 49 45
99 96 64 60 58 51 48 40 22 16 25 30 36 37 28 29 44 46 49 64 64 58 55 73 74 65 57 48 43 41 38 36 34 23 55 78 82 88 87 81 58 50 48 43
100 99 75 70 68 66 54 53 50 33 18 22 26 29 36 34 34 27 31 33 39 52 55 55 42 60 61 50 40 39 41 41 34 30 65 87 93 92 91 88 68 59 46 46
100 99 95 74 76 80 72 59 56 56 45 27 16 18 23 30 36 36 36 34 34 30 33 40 39 39 39 58 54 45 42 54 29 43 79 91 94 97 95 78 67 53 49 43
100 100 100 79 79 87 78 73 68 63 63 59 43 28 15 20 33 40 34 36 34 31 28 28 25 27 32 37 43 50 47 38 24 53 85 88 92 96 82 66 50 48 44 41
100 100 100 96 91 96 100 94 84 75 67 73 59 53 44 26 13 29 38 33 42 46 40 33 32 30 31 38 36 35 39 45 56 60 96 97 92 92 73 57 45 40 43 40
99 100 99 99 97 92 96 99 83 77 63 59 64 65 50 50 33 16 22 35 35 34 35 43 45 40 44 37 37 37 40 44 56 57 73 94 98 90 62 57 49 43 43 40
99 100 100 100 100 96 88 84 81 66 48 39 46 46 45 43 44 35 18 35 34 32 33 36 41 48 56 53 40 42 37 35 32 45 66 77 82 81 55 50 45 46 47 44
100 100 100 100 96 85 77 64 54 43 27 16 12 11 13 17 25 27 22 41 48 46 43 39 34 49 63 69 69 50 38 37 38 40 51 50 85 79 70 65 65 61 55 49
100 99 100 99 94 81 64 58 33 11 5 3 2 2 3 5 8 17 64 99 81 80 62 64 73 72 79 91 100 74 57 52 44 47 36 32 60 83 71 63 62 61 57 52
100 100 100 96 88 79 67 38 11 18 44 48 7 5 5 7 23 61 89 89 100 98 94 100 97 83 84 91 100 94 83 66 52 47 46 41 44 50 59 59 62 60 54 54
100 96 85 90 88 76 41 16 48 65 76 52 36 30 38 89 100 100 100 100 100 100 100 100 100 98 82 73 75 76 74 69 60 54 59 60 44 52 56 64 75 68 59 67
89 89 99 90 88 49 24 37 81 90 68 48 92 100 100 91 96 84 86 84 86 93 98 96 80 72 60 58 56 57 61 61 62 58 60 67 69 70 70 72 76 76 85 92
77 89 100 100 71 35 35 52 48 42 48 69 79 69 76 100 97 100 100 100 100 100 100 80 65 63 69 68 60 62 62 55 68 79 77 69 68 73 81 84 85 84 88 93
86 83 85 100 72 35 46 78 83 86 54 90 95 100 100 100 100 100 96 99 95 87 75 94 87 94 96 95 91 83 83 81 76 89 95 86 80 82 81 81 82 91 93 89
76 71 72 100 84 38 38 60 59 78 80 74 90 97 97 98 99 96 100 96 98 88 85 85 80 100 100 100 94 82 96 98 84 83 97 89 82 84 89 86 82 83 84 94
99 77 77 98 84 45 38 39 58 79 80 80 81 85 98 100 100 96 100 100 100 95 99 88 92 98 100 98 90 89 99 100 100 82 87 97 95 99 94 99 99 99 98 85
100 100 89 92 100 82 42 42 53 63 78 90 95 100 100 100 100 100 100 100 96 87 79 72 84 99 100 100 100 100 100 100 100 97 91 100 100 100 100 99 99 100 96 89
100 97 95 92 100 99 45 48 48 68 77 86 95 99 99 100 96 97 99 97 91 97 90 71 79 86 95 97 100 100 100 99 100 100 100 100 100 100 100 97 92 91 98 100
88 85 98 100 100 100 81 41 50 54 67 68 74 85 87 88 87 92 91 94 100 95 92 90 77 67 68 77 86 94 97 98 99 98 100 100 100 100 100 100 99 91 95 100
98 100 100 100 100 100 99 44 54 50 56 71 66 69 79 74 76 85 100 100 100 98 91 90 90 80 68 57 56 59 62 66 72 76 89 95 99 100 100 100 100 100 100 100

GFSNW_500_rhum_024.txt.gz
RH
100 52 25 18 22 27 25 37 41 45 39 36 48 38 34 24 36 46 59 73 69 82 88 88 94 71 47 30 28 44 38 52 65 56 48 36 27 28 30 26 24 24 30 32
85 78 32 21 17 26 30 24 25 31 38 30 29 40 52 65 53 55 83 97 90 96 84 73 57 44 32 40 55 61 64 54 44 32 28 30 32 32 29 24 29 36 55 45
100 99 41 23 20 20 26 27 24 23 37 33 36 42 40 51 58 69 77 72 69 83 91 76 37 31 32 37 40 42 40 29 28 32 34 36 34 28 25 30 40 64 60 40
98 100 52 32 22 19 21 29 26 23 27 42 43 50 60 62 70 71 68 52 64 86 89 55 31 27 28 30 33 34 30 33 34 39 36 31 26 25 31 54 63 68 39 32
100 99 88 45 29 23 24 31 33 35 34 34 37 34 38 40 73 67 64 74 81 63 40 31 31 26 31 33 35 34 34 36 40 38 30 26 25 30 61 75 71 48 40 41
100 99 98 51 42 31 24 23 27 32 42 37 30 34 29 28 40 50 50 54 82 66 55 36 32 32 30 30 31 30 33 40 41 35 29 27 33 51 73 82 65 50 37 38
100 100 100 69 56 42 35 29 22 23 30 38 42 34 34 46 43 43 37 47 58 78 68 61 48 39 37 34 35 34 39 43 42 35 30 28 54 72 78 84 75 56 40 43
100 98 100 99 65 60 48 44 38 23 20 22 26 37 36 30 44 52 72 64 64 61 64 78 68 56 54 52 50 47 44 44 40 33 28 31 51 79 83 84 72 58 45 43
96 100 100 100 92 70 65 56 49 49 39 23 20 22 28 36 31 28 37 56 65 61 57 55 52 70 70 61 54 49 44 42 38 37 34 29 73 86 85 83 72 63 52 44
93 100 100 100 99 78 70 69 62 57 51 53 43 28 19 18 20 25 31 36 42 42 47 56 53 48 45 56 59 50 44 40 40 42 39 43 84 94 92 91 81 68 56 48
90 100 99 98 100 97 79 78 75 69 74 65 61 61 50 34 21 17 22 24 25 35 41 39 37 46 42 47 42 48 52 38 39 39 45 55 93 96 96 93 85 71 53 47
88 100 100 100 100 100 91 83 85 83 89 95 82 70 62 66 50 33 25 17 24 24 27 32 33 30 30 34 35 37 39 45 41 44 39 45 92 93 94 87 72 60 47 42
95 100 100 99 100 100 100 96 90 91 78 83 89 96 77 55 64 58 47 31 17 25 26 31 37 34 32 32 30 35 37 36 44 40 47 55 87 93 84 86 63 55 50 44
100 100 100 100 100 100 99 100 94 77 61 56 64 59 66 67 58 52 58 55 32 23 28 33 36 35 36 38 38 38 38 38 38 49 66 60 65 91 89 97 63 54 47 46
100 100 100 100 100 99 100 95 71 62 58 47 34 24 18 17 27 54 60 77 50 26 23 30 35 33 34 35 38 46 39 41 44 54 49 50 67 80 95 93 68 58 60 60
100 100 100 100 100 100 97 74 58 50 27 17 21 12 10 9 14 9 63 93 61 36 27 33 34 31 32 33 38 44 51 54 49 57 55 54 49 48 76 86 79 67 66 64
100 100 100 100 100 91 72 57 39 27 42 25 8 4 4 4 3 6 17 44 70 100 99 54 45 41 34 32 51 81 67 73 69 74 77 58 47 36 34 59 81 78 67 62
100 100 100 100 100 82 63 36 38 34 34 33 34 14 7 7 9 28 97 50 71 60 66 66 56 47 50 57 100 96 99 88 76 70 65 59 52 42 30 32 47 64 69 72
100 100 100 100 91 72 38 33 32 41 37 60 94 91 97 99 91 81 99 100 97 100 87 76 62 60 64 98 99 90 74 66 62 60 57 54 56 51 42 45 51 57 62 74
100 100 100 96 92 75 41 31 29 32 47 54 65 92 100 100 100 100 100 100 100 74 76 64 65 74 87 87 75 64 64 60 59 51 46 56 58 61 57 64 68 72 86 91
100 100 93 90 97 70 49 59 54 38 42 54 68 94 100 82 76 100 100 98 97 90 84 72 69 82 88 70 69 67 63 72 75 56 52 67 72 76 73 74 78 84 88 84
100 100 100 92 95 80 62 72 57 61 55 55 73 80 94 83 83 91 90 87 77 70 92 95 75 100 96 92 94 91 89 93 90 82 69 71 78 86 86 88 83 80 80 83
100 100 100 100 95 72 52 49 59 58 87 82 68 79 86 90 98 97 93 96 90 99 99 82 79 94 85 88 96 96 96 97 100 100 85 75 84 90 92 90 91 96 98 98
98 99 100 100 100 100 76 57 51 51 74 93 82 78 81 85 100 99 100 99 94 94 98 100 97 92 94 100 100 100 97 100 100 100 100 93 93 100 100 100 100 94 97 96
98 97 100 100 100 100 100 92 51 56 71 81 95 96 100 99 99 92 100 100 100 100 97 94 82 90 99 100 100 100 100 100 100 100 100 100 100 100 100 100 96 92 84 90
91 98 99 97 96 100 100 100 98 64 73 90 100 100 100 100 84 84 90 99 100 98 100 99 94 79 71 74 85 96 100 100 100 100 100 100 100 100 100 100 99 95 84 88
100 94 96 100 100 100 100 100 100 99 68 77 93 100 100 92 85 91 99 100 99 99 93 90 94 91 85 74 64 66 73 72 72 72 80 95 94 87 86 96 100 100 100 97

GFSNW_500_rhum_027.txt.gz
RH
20 92 99 19 20 22 26 30 36 26 25 23 18 20 24 29 42 54 60 74 69 51 70 92 92 100 97 96 93 81 74 63 46 47 49 41 40 40 39 32 26 24 21 18
18 63 100 32 18 20 23 24 34 33 28 54 20 20 24 30 44 51 48 51 64 69 73 77 72 73 67 53 35 28 35 39 36 49 56 50 49 37 29 26 30 26 21 18
9 40 93 80 20 19 23 22 26 43 42 58 41 45 43 46 59 78 78 75 81 91 98 86 69 51 35 29 38 52 52 62 61 52 41 34 30 29 32 31 28 28 35 37
4 18 82 100 31 21 23 19 23 32 43 49 72 60 80 71 74 72 68 59 63 86 89 83 40 30 32 40 46 51 58 41 37 35 34 36 37 34 28 28 34 62 57 51
4 14 86 97 75 27 24 22 19 24 31 40 41 42 44 71 70 56 58 75 73 82 81 56 32 28 29 32 34 35 34 37 36 40 42 37 29 26 31 47 66 68 57 38
4 37 83 89 100 45 28 28 23 21 26 34 40 40 35 32 53 50 46 63 80 60 43 31 30 28 32 33 34 35 35 35 41 42 36 29 27 27 50 64 78 69 48 48
5 48 75 89 97 91 42 32 28 24 19 26 29 32 35 43 44 46 52 55 72 76 61 48 34 32 29 31 33 35 37 41 45 39 33 30 31 34 47 69 81 72 62 53
12 54 93 96 98 100 69 45 38 33 27 19 20 22 28 36 40 55 75 76 81 81 82 72 60 49 41 37 34 34 34 42 44 40 37 32 31 36 54 70 81 81 74 52
16 89 92 96 100 99 100 72 53 47 45 38 29 21 19 19 25 27 40 66 74 72 71 76 82 70 58 52 50 45 45 45 42 41 38 35 33 36 60 76 83 86 78 55
35 47 94 90 100 100 100 100 73 65 56 55 53 48 40 27 21 18 21 31 42 62 63 60 57 58 68 70 65 59 53 49 44 42 38 42 38 38 65 83 82 88 80 57
60 62 54 69 97 100 96 100 99 82 86 72 69 63 59 53 50 40 23 18 19 28 36 48 50 55 52 46 47 49 59 58 49 42 37 42 39 38 70 92 94 89 80 54
97 94 80 62 100 100 100 96 100 96 99 99 97 92 89 81 68 54 51 40 23 20 19 27 33 36 45 43 40 47 45 42 49 50 42 37 40 40 75 94 95 95 77 50
100 100 100 85 94 95 100 99 94 94 99 100 100 98 90 83 75 72 64 56 52 35 20 21 21 29 31 30 30 31 33 36 38 43 48 42 44 40 50 94 100 94 68 49
100 100 100 100 100 98 100 100 98 93 91 98 100 92 79 68 61 56 61 90 72 78 48 26 20 20 21 25 28 28 31 32 38 44 45 49 48 48 66 99 97 86 67 55
100 100 100 100 99 100 100 100 100 100 98 87 65 48 43 38 27 24 37 60 90 88 93 56 28 25 27 30 33 31 32 35 42 51 52 52 52 59 60 74 92 85 78 57
100 100 100 100 100 100 100 100 100 98 47 36 27 18 12 9 8 9 15 31 57 100 100 96 51 30 31 27 30 36 34 30 41 54 55 58 54 46 46 67 78 89 88 68
100 100 100 100 100 100 100 99 67 40 26 19 22 40 59 18 6 4 4 5 29 56 100 100 62 29 27 27 33 37 31 33 45 69 72 74 59 51 43 41 45 69 82 84
100 100 100 100 100 100 100 81 42 28 21 35 37 70 72 42 7 4 5 15 36 100 100 100 65 40 32 34 43 42 41 50 82 80 72 76 72 58 47 41 38 32 37 57
100 100 100 100 100 99 70 51 34 36 35 52 48 48 100 88 84 100 53 77 100 100 100 100 93 50 35 56 59 51 62 89 99 84 71 69 63 58 49 43 39 36 33 36
100 100 100 100 100 88 66 48 44 38 60 60 59 58 89 95 100 99 100 100 100 100 100 88 49 60 77 86 89 76 95 95 79 65 54 50 51 50 47 44 41 39 46 58
100 97 100 100 100 97 56 48 63 59 62 62 72 74 66 77 100 100 96 94 100 100 99 65 68 82 100 95 90 84 75 67 62 58 51 48 52 46 42 49 58 52 62 76
87 98 99 100 100 99 72 77 79 73 83 57 73 87 86 79 80 89 98 100 97 100 94 81 74 98 83 76 76 77 70 64 66 62 60 51 54 70 59 72 89 86 91 98
63 82 100 100 100 100 94 93 92 70 79 81 67 88 85 76 83 96 99 89 80 72 66 72 97 90 80 85 95 95 90 96 90 85 81 74 72 74 74 90 96 91 91 92
77 77 90 100 100 100 100 85 73 69 72 92 83 81 86 88 88 83 81 95 100 99 99 98 80 79 82 84 95 100 100 100 100 100 98 100 94 94 99 100 100 100 100 100
17 49 91 97 100 100 100 100 95 74 69 76 99 96 85 92 95 89 82 83 80 91 81 84 88 84 90 96 100 100 100 100 100 100 100 100 100 100 99 100 100 100 100 100
10 29 76 92 90 100 100 100 100 100 83 69 90 100 100 94 86 92 92 100 89 94 100 100 100 89 84 90 99 100 100 100 100 100 100 100 100 100 100 100 100 100 100 100
8 11 30 92 99 98 100 99 96 100 100 100 80 88 100 92 86 94 100 100 98 100 100 100 100 100 100 96 94 94 87 92 99 99 98 98 98 98 98 98 98 94 90 94

GFSNW_500_rhum_030.txt.gz
RH
4 7 28 85 16 19 24 28 26 16 14 17 21 29 28 22 20 32 32 33 44 52 62 65 68 76 79 87 89 86 91 94 99 91 80 62 52 37 34 37 43 38 32 27
2 4 7 93 26 14 19 25 32 27 18 17 19 19 20 23 25 32 40 38 40 54 66 70 71 71 82 90 93 87 77 74 93 67 75 72 45 36 36 44 42 30 27 26
2 2 4 44 76 18 14 18 24 35 32 37 39 29 27 40 57 58 65 74 77 77 79 79 76 87 85 76 49 48 44 53 60 46 56 60 53 49 46 38 29 32 26 20
2 2 3 21 96 29 19 17 19 26 48 67 59 46 42 57 67 68 65 61 61 83 81 77 64 50 43 42 55 56 65 46 46 59 60 59 54 38 32 34 30 26 23 22
2 2 3 20 96 82 24 19 19 21 37 50 64 62 80 72 63 56 71 77 72 79 78 59 38 32 30 36 47 59 67 68 58 47 38 35 36 37 36 30 27 28 26 43
3 2 4 35 87 100 41 26 22 18 19 36 40 48 46 66 69 56 51 81 86 87 87 66 44 31 31 34 37 68 53 37 38 39 40 43 38 31 27 26 28 40 65 67
3 3 6 19 88 100 100 35 29 26 21 18 33 34 35 32 31 36 40 56 87 74 67 50 34 30 28 31 33 38 37 40 46 49 43 35 30 28 29 36 48 64 78 55
4 6 8 29 91 100 100 97 37 31 28 22 18 22 29 26 26 38 38 47 66 80 76 70 53 38 32 30 32 35 39 44 48 47 39 34 32 31 36 45 64 78 84 68
9 27 34 25 100 100 100 100 95 42 36 33 28 22 18 17 19 28 42 54 58 64 81 86 74 63 49 38 34 32 36 39 45 47 42 38 33 30 29 42 63 77 88 80
14 26 83 57 59 100 100 100 100 99 53 46 44 40 36 29 23 19 19 26 52 66 69 70 73 79 76 58 53 50 44 39 39 40 39 38 35 34 32 33 61 85 86 89
43 81 91 92 71 76 100 100 100 100 100 81 68 65 62 58 53 48 33 24 19 31 51 63 63 59 56 61 68 69 62 55 51 46 43 42 38 36 35 35 56 87 94 93
53 82 91 93 100 86 68 100 100 100 100 98 90 93 88 83 74 66 61 62 51 30 21 22 37 55 54 52 50 48 46 48 52 56 54 48 42 38 37 39 51 83 90 92
87 92 91 96 100 100 99 97 97 100 100 100 100 100 100 98 99 97 96 94 89 77 62 31 20 21 39 42 43 49 44 39 40 42 42 45 48 42 36 38 40 77 93 96
95 93 93 99 100 100 100 100 99 100 100 100 99 97 100 100 100 98 99 100 93 88 87 76 48 24 22 24 32 38 38 36 32 33 34 36 41 43 37 39 38 49 85 92
100 96 97 100 96 100 100 100 100 100 100 100 99 100 100 95 93 87 57 48 51 65 80 86 75 58 29 22 21 24 32 31 27 29 29 36 40 40 46 48 40 62 83 86
99 96 99 100 100 100 100 100 100 100 100 100 100 77 49 22 18 12 10 11 11 15 36 97 100 99 72 30 22 29 35 35 34 33 35 41 41 42 44 50 63 61 69 83
99 98 99 100 100 100 100 100 100 100 100 64 25 23 24 27 29 24 12 7 5 12 30 46 100 100 100 64 31 35 32 34 32 30 30 54 54 52 44 43 45 49 62 63
100 99 98 100 100 100 100 100 100 83 30 36 28 35 33 32 50 42 12 4 4 9 52 54 100 100 98 84 40 33 30 33 30 28 33 53 60 64 58 53 46 42 40 39
100 99 98 100 100 100 100 99 74 52 33 46 58 50 28 55 58 62 84 25 10 39 98 94 100 99 96 83 42 33 31 33 38 37 47 84 86 68 60 56 51 47 42 38
100 99 100 100 100 100 100 99 68 50 38 66 63 60 52 53 82 98 100 100 92 100 100 98 100 100 100 97 65 39 40 43 58 69 79 81 72 63 60 57 51 46 38 35
72 84 98 100 100 100 100 94 91 76 64 70 72 98 54 61 74 95 100 100 100 100 100 100 100 100 99 90 74 70 69 71 80 86 77 63 55 51 52 49 44 41 39 36
20 37 59 94 100 99 100 93 88 94 92 83 99 100 93 68 76 93 100 100 98 100 100 100 100 98 90 87 82 75 75 75 71 67 62 56 50 41 39 44 43 40 43 56
8 10 20 56 95 100 100 100 100 100 84 88 100 100 97 80 70 81 89 100 100 98 94 89 97 95 81 69 75 76 74 77 85 86 80 68 57 40 49 55 47 57 79 89
14 8 14 59 77 100 100 100 100 100 100 90 97 100 100 100 88 86 85 85 90 94 95 74 67 72 83 81 70 75 82 88 92 90 90 95 97 82 96 92 90 100 100 100
38 32 11 9 57 100 100 100 100 100 100 98 83 99 100 100 100 92 88 92 92 100 94 92 97 97 92 89 90 95 100 100 100 100 97 100 100 100 100 100 100 100 100 100
29 44 47 10 10 42 94 100 100 100 100 100 95 76 94 100 100 94 92 98 99 96 98 100 98 99 96 94 99 100 100 100 100 100 100 100 100 100 100 100 100 100 100 100
34 49 54 38 8 10 20 70 95 100 100 100 100 96 73 80 100 100 100 100 100 100 100 97 100 100 100 100 98 97 100 100 100 100 100 100 100 100 100 100 100 100 100 95

GFSNW_500_rhum_033.txt.gz
RH
3 2 2 3 66 20 17 16 15 15 14 23 25 27 28 31 25 23 25 24 25 30 46 57 55 52 49 54 65 71 81 91 88 99 100 100 100 95 98 94 88 69 56 37
3 2 2 3 29 36 15 22 16 14 18 19 23 28 24 21 20 21 23 26 36 47 56 53 57 62 59 52 57 67 73 84 89 87 88 94 92 65 54 43 45 45 39 34
3 3 2 3 5 71 17 17 23 18 16 19 18 20 23 23 23 32 34 44 51 58 66 62 64 73 81 89 91 83 74 69 83 91 81 77 77 72 57 47 40 51 42 33
4 4 2 3 6 56 49 16 17 24 22 25 31 31 30 44 51 46 57 64 69 74 83 73 66 70 84 79 61 44 72 57 58 68 76 57 62 62 49 36 48 42 36 30
3 5 3 3 8 32 94 26 18 17 27 35 50 50 41 48 62 63 66 65 62 62 73 84 74 58 45 44 55 70 64 60 48 49 49 50 56 59 51 44 41 32 32 31
4 5 4 4 16 54 99 86 22 20 21 32 51 54 78 74 70 63 53 67 80 74 82 85 62 41 33 32 38 50 72 84 77 62 59 52 51 53 54 38 36 32 28 34
4 6 4 7 22 29 100 100 46 23 22 29 36 42 46 45 49 56 52 44 71 75 84 75 64 48 35 34 36 52 91 53 56 55 58 58 45 44 38 32 29 29 39 59
4 8 5 7 36 38 98 100 100 36 26 23 28 36 36 37 34 32 31 30 43 79 68 54 46 36 32 31 34 39 43 43 42 44 47 44 36 31 29 28 36 56 65 84
7 6 6 11 35 65 64 100 100 100 36 32 23 22 22 28 32 31 34 36 42 58 83 80 68 52 37 33 34 36 38 39 43 48 49 42 36 33 32 36 49 63 79 94
6 9 10 45 75 89 64 96 100 100 100 49 35 32 24 20 19 20 23 27 37 40 63 72 87 83 66 52 45 41 39 37 36 40 45 42 40 36 33 30 38 59 82 92
10 17 68 80 83 94 92 78 97 100 100 100 65 41 38 36 32 28 25 24 22 23 30 48 66 73 72 70 70 64 50 45 47 43 37 41 38 38 35 35 35 46 72 95
31 57 84 78 88 100 99 100 81 100 100 100 100 89 71 54 56 58 56 48 36 30 28 22 24 50 60 61 58 60 62 58 56 54 50 46 40 38 38 36 34 36 50 92
66 75 86 76 72 84 100 100 94 75 100 100 100 99 99 97 88 89 96 96 80 73 62 50 35 23 24 40 53 54 53 51 47 48 48 48 47 48 49 43 37 33 35 70
70 91 78 74 82 90 100 100 100 94 100 100 100 100 100 100 100 100 100 99 100 97 95 87 72 60 42 24 23 40 48 47 46 43 41 42 39 40 43 48 45 37 36 41
83 89 84 84 91 94 100 100 100 100 100 97 100 99 100 100 100 100 100 100 98 94 94 88 85 84 82 70 35 20 25 31 38 40 38 36 37 32 34 40 45 40 39 40
100 91 92 96 98 97 100 100 100 100 100 100 100 100 100 98 85 68 65 30 20 25 48 69 74 79 98 88 75 51 26 24 25 26 27 26 25 25 26 38 42 46 45 41
86 89 90 91 100 99 100 100 100 100 100 98 91 66 40 24 26 22 24 21 13 8 7 7 11 21 49 78 86 100 45 26 27 30 32 33 27 24 24 30 41 46 51 58
65 80 88 88 99 99 100 100 100 100 100 87 45 34 25 31 29 45 34 33 30 6 3 5 12 27 84 78 90 100 74 30 28 30 32 30 27 31 35 32 37 42 43 47
21 68 82 80 96 100 100 100 100 94 76 50 44 42 34 36 47 49 62 52 66 37 7 6 12 72 100 100 100 100 97 41 33 31 29 26 28 26 28 47 52 52 44 43
14 19 57 76 90 99 100 100 100 98 80 68 68 56 40 31 48 52 55 74 91 84 70 39 70 100 100 100 100 100 97 43 34 31 28 32 37 52 72 71 62 57 53 48
12 14 16 34 64 92 100 100 100 100 90 69 88 78 67 59 83 77 57 94 99 100 100 94 83 96 100 100 100 96 89 49 42 43 48 64 74 80 73 65 58 55 52 49
18 12 14 14 18 49 86 100 100 100 100 95 86 94 94 95 100 94 92 91 92 100 100 100 100 100 100 99 100 98 88 79 79 79 85 84 75 68 59 52 46 42 46 44
22 16 12 19 16 17 71 100 100 100 100 100 100 99 94 97 100 100 100 100 100 100 100 100 93 91 90 94 100 100 98 91 85 77 68 61 59 52 45 41 37 37 36 42
26 22 14 14 26 13 11 62 100 100 100 100 100 100 100 97 100 100 100 100 100 100 100 83 90 76 96 92 94 80 84 86 82 82 84 82 82 78 68 52 56 43 51 80
29 25 16 14 20 31 23 8 59 99 100 100 100 96 88 98 100 100 100 100 100 96 100 98 88 88 99 99 89 81 76 74 80 91 97 100 90 89 95 100 99 100 100 100
34 28 21 19 22 29 38 27 8 14 75 99 100 100 99 84 88 100 100 100 100 100 100 100 100 96 96 98 99 100 100 100 100 100 100 100 100 100 100 100 100 100 100 100
40 35 27 27 37 26 29 44 21 9 9 28 86 99 100 100 91 86 100 100 100 100 100 100 100 100 100 100 100 100 100 100 100 98 100 100 100 100 100 100 100 100 100 100

GFSNW_500_rhum_036.txt.gz
RH
4 4 4 3 2 4 68 18 16 13 12 18 27 30 32 37 33 28 27 26 28 36 39 53 50 51 50 74 83 96 100 95 94 95 95 95 99 99 99 97 84 76 65 56
4 4 4 3 3 4 45 28 19 15 15 20 23 26 27 30 24 35 32 28 32 44 53 55 56 53 50 48 53 68 76 89 96 90 96 96 94 100 100 100 100 100 100 82
4 4 3 3 3 6 8 74 19 21 19 18 22 26 23 24 22 30 37 36 36 44 55 65 60 65 62 59 60 59 59 71 94 87 88 93 98 100 96 78 80 85 80 66
3 3 3 3 3 5 7 92 22 22 26 23 20 19 21 24 25 27 34 42 63 69 74 72 72 68 70 83 78 76 76 72 69 78 86 92 83 85 82 69 84 70 60 48
2 2 3 4 3 5 10 28 90 20 22 30 28 32 33 31 48 62 68 62 60 60 60 63 83 73 76 80 72 73 49 66 75 66 75 84 86 72 63 70 77 46 49 52
2 2 2 3 3 4 10 16 97 59 22 21 31 44 46 46 53 61 60 56 56 73 74 71 80 68 59 44 36 37 60 71 66 52 53 63 64 54 54 57 54 49 50 47
2 2 2 3 3 3 13 19 80 100 32 21 28 45 62 62 77 76 66 60 49 60 76 84 82 63 44 34 33 38 46 81 84 76 61 55 54 54 55 57 40 39 37 35
2 2 2 4 4 7 21 34 48 100 93 26 24 37 42 51 48 50 47 45 36 36 73 71 81 65 49 33 31 36 65 90 51 72 77 58 52 47 44 45 41 35 34 31
2 2 3 6 8 29 30 48 44 99 100 69 28 28 33 40 39 39 36 34 37 35 44 75 66 58 53 39 33 34 41 51 44 44 44 49 51 45 35 32 32 34 43 68
2 2 6 17 36 66 56 67 70 62 100 100 81 34 29 29 34 34 35 35 32 36 40 45 69 78 73 61 52 46 37 35 40 40 46 48 47 39 35 34 36 42 60 76
2 3 12 32 77 69 60 62 83 81 73 100 100 94 47 33 29 29 26 25 22 24 27 35 43 60 74 79 75 72 56 42 40 36 34 43 47 44 41 39 38 35 41 66
2 4 19 65 65 65 72 70 71 88 79 77 100 100 100 54 38 39 33 31 27 26 26 24 22 30 54 62 67 67 64 62 56 49 39 42 40 40 44 40 39 38 37 45
3 13 36 69 68 66 84 82 82 88 93 71 85 99 98 100 89 48 51 52 59 57 58 54 41 31 24 29 50 56 58 58 58 57 55 54 53 49 48 45 44 40 38 36
5 25 68 73 69 80 85 88 93 92 99 78 70 92 100 100 100 100 99 99 99 100 97 86 80 75 75 55 31 22 31 48 52 53 49 44 44 45 46 46 45 45 46 42
4 15 71 73 62 66 88 90 97 100 100 94 87 94 100 100 100 100 100 100 100 100 100 92 82 83 89 87 85 58 36 23 29 45 48 48 46 41 38 36 34 37 44 48
5 6 41 76 78 67 85 93 93 99 100 98 100 100 100 100 100 100 100 95 71 54 46 52 78 86 85 76 64 81 100 77 30 24 26 33 36 40 36 32 30 32 36 41
7 8 9 39 81 72 83 92 100 100 100 100 100 100 100 97 92 73 43 28 24 29 21 20 13 9 10 39 48 72 95 100 92 41 25 21 22 22 19 23 24 24 32 39
8 11 10 20 73 84 89 93 100 100 100 100 100 96 73 47 51 38 43 40 36 32 39 30 24 10 7 6 12 47 82 97 100 85 31 25 23 21 24 27 33 30 35 44
9 9 12 12 28 65 96 99 100 100 100 98 94 76 64 50 51 48 39 42 34 41 50 36 12 4 3 4 31 87 100 97 98 99 38 28 27 26 26 26 24 29 39 46
11 12 9 13 13 23 75 100 100 100 100 98 93 100 86 69 56 52 53 47 36 48 64 43 87 100 59 37 84 76 100 100 100 93 38 33 30 29 24 22 25 25 32 45
17 14 12 10 12 13 21 60 99 100 100 100 100 93 100 100 71 70 76 64 56 60 90 75 81 100 100 100 100 100 100 100 100 99 58 43 37 29 26 28 32 47 56 60
26 21 17 15 12 15 13 18 71 100 100 100 100 100 100 100 89 74 75 91 84 89 96 99 100 100 100 100 100 100 100 100 100 97 64 49 41 37 44 63 72 65 58 52
31 26 23 23 21 22 21 11 15 25 85 100 100 100 100 100 100 93 92 93 100 100 100 100 98 99 100 100 100 98 99 100 100 100 92 74 68 75 74 69 62 52 46 45
38 31 32 40 38 32 27 17 12 14 14 27 86 100 100 100 100 100 100 92 100 100 100 100 92 87 90 99 100 98 100 100 100 100 93 83 71 72 78 67 54 48 40 30
49 48 44 49 44 36 30 21 17 12 18 20 11 57 98 100 100 99 100 96 97 98 100 100 100 100 96 96 94 92 94 92 91 96 94 91 95 97 90 81 78 70 72 88
72 71 74 60 48 42 34 25 19 14 15 26 24 9 24 86 100 100 100 100 100 100 100 100 100 100 100 100 100 99 99 99 98 98 100 100 100 100 97 93 90 98 100 100
84 87 77 65 51 47 40 32 25 19 18 23 33 25 9 16 60 100 100 100 100 98 91 88 98 100 100 100 98 100 100 100 100 100 100 100 100 100 100 100 100 100 100 100

GFSNW_500_rhum_039.txt.gz
RH
4 3 3 2 2 2 4 5 45 22 14 15 31 29 30 29 32 28 26 30 36 36 40 48 49 57 87 100 100 100 100 98 100 91 100 99 93 100 94 98 98 99 83 68
3 2 2 2 2 2 3 4 32 33 17 14 20 24 28 29 29 23 28 27 28 38 45 48 47 47 44 58 87 99 100 94 97 99 100 97 88 99 94 92 99 95 91 68
3 2 2 2 2 2 3 4 16 61 21 16 21 26 28 28 27 22 31 39 36 41 49 58 59 53 51 48 45 56 75 86 94 100 94 96 95 97 100 99 99 97 90 84
3 2 2 2 2 2 2 6 10 66 23 22 19 22 26 28 28 26 27 37 47 64 67 72 79 70 63 62 61 61 59 71 77 90 90 88 86 90 82 84 100 85 94 90
4 3 2 2 2 2 3 8 11 53 77 21 26 25 27 25 24 34 41 49 49 50 54 59 61 79 76 84 85 72 72 78 70 74 91 95 93 77 71 76 84 79 91 76
4 3 2 2 2 3 4 6 12 32 100 56 18 30 38 43 40 36 44 52 54 53 61 66 73 72 73 73 70 66 72 69 58 68 74 69 81 100 90 78 68 72 74 73
4 3 2 2 2 2 4 14 16 29 83 100 36 27 38 56 60 58 64 66 61 53 49 74 82 82 74 53 36 32 34 40 60 72 70 60 59 64 71 62 58 58 59 55
4 3 2 2 2 3 9 27 29 36 44 99 89 33 32 45 76 77 82 74 62 53 35 62 74 86 71 57 44 33 36 41 60 77 87 65 59 58 56 56 61 52 43 44
6 4 2 2 2 5 25 34 41 46 83 66 100 76 38 38 47 59 59 50 41 43 41 36 72 67 63 50 40 33 35 60 69 50 52 73 87 67 50 47 50 58 48 41
9 5 2 2 2 5 27 44 53 55 76 72 97 100 47 40 38 45 50 47 43 38 35 32 41 71 85 76 64 46 36 37 42 47 45 51 86 70 64 39 39 37 42 49
11 6 3 2 4 18 38 47 60 64 58 83 74 99 98 57 46 36 35 38 34 35 34 31 31 40 63 76 82 77 60 46 41 36 39 49 58 57 58 46 42 44 40 50
9 6 3 3 6 21 47 57 58 62 76 80 93 81 100 100 87 62 34 30 31 33 29 26 24 23 33 42 63 71 73 66 65 54 43 43 43 49 53 50 44 39 39 38
9 6 3 3 6 27 45 53 70 81 82 92 99 99 86 100 100 100 67 40 42 38 37 42 45 44 34 27 25 41 59 64 63 61 60 59 50 52 44 41 40 42 40 40
11 6 3 3 7 28 49 52 74 87 94 100 100 100 93 98 100 100 100 96 75 57 84 83 95 100 90 82 69 40 26 33 50 55 56 55 54 53 52 52 50 49 48 47
11 7 4 3 4 38 51 50 80 90 100 100 100 99 100 92 100 100 100 100 100 100 100 98 100 100 94 87 79 64 82 60 36 28 42 50 52 47 42 41 41 39 39 42
10 7 4 4 4 48 64 71 75 89 100 100 100 100 100 100 100 100 100 100 100 100 99 61 40 38 45 53 57 59 72 95 85 57 25 24 41 49 48 47 45 42 38 37
14 13 9 5 6 14 62 73 82 99 100 100 100 100 100 100 100 100 100 99 95 62 47 47 39 28 17 13 15 15 25 56 72 82 57 42 25 24 31 34 33 34 33 34
11 12 8 10 8 6 37 82 84 96 100 100 100 100 100 99 99 100 97 88 60 51 37 33 29 25 42 22 10 6 6 10 38 83 100 92 63 26 20 18 18 17 21 26
13 14 11 11 11 10 10 49 86 93 100 99 99 97 100 100 95 85 89 69 71 50 48 31 22 54 42 64 27 4 10 48 43 68 100 100 99 56 27 19 18 21 23 25
18 16 10 8 8 12 11 13 20 89 100 100 98 96 89 93 98 89 75 81 67 49 48 39 54 54 45 100 52 55 96 100 100 100 100 100 100 60 28 23 24 24 23 23
30 22 11 8 10 12 13 11 12 14 58 98 99 98 97 97 96 94 77 64 55 62 62 46 44 59 81 96 76 88 98 99 98 100 100 100 100 57 35 32 29 26 22 22
40 32 22 17 14 16 16 17 14 12 15 15 46 80 94 97 100 100 94 89 62 69 82 78 74 92 100 100 100 91 85 64 88 100 99 100 100 70 52 45 36 30 25 23
48 45 31 24 21 30 27 22 20 15 13 17 15 16 44 84 100 100 100 95 89 79 97 98 94 100 100 100 100 100 99 100 100 94 100 100 100 98 69 49 43 42 38 33
58 60 48 38 32 32 34 30 28 20 19 21 21 15 17 26 65 99 100 98 100 95 99 100 100 100 100 99 100 100 100 100 100 100 100 99 100 100 96 86 73 63 50 40
75 76 62 54 44 43 43 39 37 31 32 30 26 24 15 18 16 54 99 100 100 100 98 88 100 99 99 100 96 96 94 85 90 97 98 98 97 94 90 86 79 67 57 57
88 86 76 69 64 60 55 50 45 44 44 42 38 31 21 17 19 17 63 100 100 100 99 99 93 98 97 100 100 100 100 100 100 98 97 100 97 95 95 91 89 85 77 60
90 86 82 80 80 76 69 65 56 52 53 49 51 35 28 24 19 19 22 88 100 100 100 100 87 86 95 99 93 100 100 100 100 100 100 100 100 100 99 98 96 95 100 100

GFSNW_500_rhum_042.txt.gz
RH
8 6 4 4 3 2 2 2 3 17 28 20 15 31 37 33 32 29 39 59 52 40 47 55 72 87 85 87 88 87 95 88 84 70 58 57 52 47 72 89 88 99 83 65
9 7 5 4 3 2 2 2 3 9 30 22 15 22 35 32 31 26 26 25 27 33 40 44 47 48 74 80 82 88 96 90 93 93 97 84 69 83 100 98 99 85 81 69
12 8 5 4 3 3 2 2 3 6 37 39 20 21 25 31 31 29 23 27 30 36 46 49 45 44 45 49 74 83 80 86 91 98 94 90 96 99 98 90 91 97 72 86
12 9 6 5 4 3 2 2 4 6 18 57 25 19 21 31 34 30 24 25 35 44 61 64 57 52 44 48 46 53 77 87 84 88 87 87 89 87 80 71 93 79 99 79
15 10 7 5 4 3 2 3 4 8 11 57 40 30 23 25 28 29 30 34 49 61 59 56 57 56 60 55 56 62 60 71 88 98 100 99 94 86 80 79 78 69 85 78
15 11 8 6 4 3 2 3 9 15 21 49 100 33 38 38 36 37 37 48 54 54 54 66 74 80 71 68 74 78 75 71 69 72 76 79 81 97 86 86 81 82 70 87
15 12 8 6 4 3 2 4 13 18 21 35 90 97 34 39 47 55 58 59 58 55 53 58 70 84 86 76 74 66 54 55 66 71 66 61 66 62 61 68 81 82 76 70
17 13 10 6 4 3 2 3 15 27 19 37 54 100 85 36 41 63 62 68 69 63 58 40 72 93 94 75 50 45 35 34 36 43 65 76 71 63 60 57 66 76 64 61
19 16 13 9 5 3 2 2 14 48 40 35 63 84 100 65 44 68 78 75 75 64 55 47 46 79 93 78 66 48 36 34 52 74 62 67 85 74 62 55 55 56 60 48
25 18 17 12 7 4 2 2 12 39 53 53 62 66 100 100 64 54 71 70 62 53 43 39 40 51 91 87 74 53 40 35 52 67 60 54 62 88 82 64 51 50 56 55
37 29 19 12 9 6 3 3 10 33 55 66 54 70 77 100 98 64 63 62 51 49 45 40 39 36 45 74 93 86 65 49 41 40 48 49 62 86 92 84 61 43 40 40
40 32 24 16 12 6 3 3 14 35 60 72 78 85 89 82 100 87 60 56 46 38 36 33 29 26 25 28 41 67 81 77 71 56 44 49 50 60 70 79 56 49 53 45
26 29 23 18 12 7 2 4 25 43 64 77 83 95 100 100 97 100 89 70 52 44 39 42 37 33 35 35 30 27 32 55 68 69 66 59 52 49 50 55 67 60 46 42
19 18 12 10 10 6 3 5 27 54 66 73 76 90 100 100 100 96 100 100 96 83 54 53 42 56 65 80 79 77 79 50 34 47 64 62 59 58 54 51 48 46 45 44
9 8 7 7 6 5 3 12 26 52 70 74 84 95 98 100 100 97 100 100 100 100 99 97 100 98 89 94 88 76 90 95 92 75 33 46 57 56 54 53 52 49 49 49
8 8 10 6 4 3 3 13 40 55 72 76 82 89 100 100 99 100 97 100 100 100 100 100 100 82 60 48 36 26 23 29 63 74 80 46 29 46 54 50 45 43 43 41
9 8 9 7 6 4 4 8 31 48 80 88 92 91 100 100 100 100 100 100 100 100 100 89 74 47 37 23 17 15 14 15 11 22 49 71 78 45 27 49 51 49 47 45
10 8 9 10 10 8 6 5 12 56 65 72 80 91 91 95 99 98 100 100 100 100 97 71 56 43 29 20 18 16 16 14 5 5 8 26 88 97 67 28 28 41 42 36
13 11 10 12 12 11 9 10 10 14 31 54 67 74 92 100 100 98 92 96 98 88 72 67 54 46 37 38 33 27 29 12 6 12 9 10 59 100 100 88 35 21 21 17
19 17 13 13 15 16 12 11 12 11 11 12 28 58 75 80 97 99 94 94 93 88 80 71 56 62 62 47 58 34 68 78 99 89 100 39 86 100 100 100 81 32 22 19
28 21 20 20 19 20 13 11 9 11 12 11 12 13 22 58 81 88 98 99 96 83 88 91 77 80 72 46 68 64 78 94 67 100 100 100 100 100 100 100 95 53 27 26
36 32 31 29 29 25 24 16 15 12 12 13 13 13 14 13 32 73 85 96 97 91 86 92 91 74 87 84 66 65 82 86 90 96 74 81 86 99 100 100 100 72 44 35
48 44 44 44 44 40 39 32 22 20 18 14 12 14 16 18 13 28 68 93 100 98 100 100 85 76 92 93 83 74 81 97 55 52 70 83 64 92 100 100 100 93 64 43
61 58 53 57 50 48 48 50 39 27 26 24 20 18 19 20 22 13 25 68 96 100 100 98 100 100 87 97 88 96 92 94 100 100 94 98 100 96 90 100 100 100 83 61
79 68 73 68 59 55 57 58 54 46 34 31 28 28 26 25 27 24 15 26 100 100 100 100 100 100 96 94 92 88 86 96 100 100 100 100 100 100 100 100 100 100 98 83
84 82 78 75 70 61 63 69 66 58 53 40 38 40 41 36 38 41 26 16 17 61 100 100 100 100 100 100 100 99 90 93 100 100 100 100 100 100 100 100 100 100 88 76
86 97 98 89 77 72 74 73 72 63 60 53 48 50 54 61 50 51 44 31 22 16 49 98 100 100 99 100 100 100 100 94 95 100 100 100 100 99 100 95 99 98 94 84

GFSNW_500_rhum_045.txt.gz
RH
32 17 12 8 6 5 4 4 3 4 4 26 23 18 29 34 34 30 62 65 46 49 85 100 100 75 37 38 49 57 55 49 56 60 58 77 81 73 69 48 31 36 26 22
42 21 14 9 7 5 4 4 4 4 4 23 31 20 29 36 35 29 28 35 30 35 48 57 89 98 90 80 83 83 81 69 66 70 59 50 48 57 57 48 42 34 43 29
46 24 20 11 8 5 4 4 4 5 6 16 44 27 25 28 32 34 27 28 27 34 43 44 49 55 95 85 84 91 95 93 100 100 96 92 85 96 96 87 47 55 54 74
49 30 27 16 9 5 4 4 4 7 7 20 60 43 33 33 32 33 32 29 34 34 42 52 48 45 47 64 89 85 86 86 92 96 83 83 85 94 73 55 74 74 84 63
51 36 36 24 11 7 5 4 4 6 10 10 41 53 39 32 33 37 34 29 37 46 61 51 53 51 48 50 54 61 87 100 100 100 87 79 71 72 78 75 83 76 76 80
50 42 36 29 14 9 5 4 4 6 20 13 18 77 46 49 34 32 33 40 55 61 57 58 62 53 52 55 54 62 64 65 79 89 91 86 76 99 90 85 70 88 73 98
52 47 44 31 19 14 6 4 4 4 17 23 22 36 100 40 57 55 46 51 72 64 58 57 70 74 71 70 70 65 78 77 72 69 64 57 58 59 59 56 74 72 75 80
56 50 38 26 20 16 7 4 4 3 17 39 46 32 83 87 44 67 65 72 76 68 64 58 56 71 90 82 78 75 69 51 42 40 42 48 59 65 65 61 55 53 62 77
58 52 45 28 29 13 9 5 3 3 14 40 49 45 44 100 81 49 75 84 88 80 66 58 60 76 91 99 83 64 50 40 35 36 40 52 69 80 73 62 58 54 57 65
60 55 51 38 23 14 10 6 3 2 10 38 58 52 42 64 100 60 69 100 98 85 67 53 50 56 68 85 82 78 66 43 35 40 66 69 57 69 82 77 63 57 56 57
60 55 48 41 28 20 13 7 3 3 12 46 60 71 58 47 84 97 68 70 79 78 66 55 47 43 42 58 89 94 81 66 48 39 48 53 55 58 68 88 75 62 51 50
58 50 44 35 28 22 13 8 4 3 19 46 49 61 82 70 69 100 97 73 63 68 59 51 44 35 31 31 35 46 68 83 84 72 57 52 54 55 66 83 91 71 60 48
54 46 32 30 24 19 16 8 4 3 20 50 55 48 77 93 84 84 100 98 69 53 47 41 41 42 40 30 28 28 30 33 42 76 82 74 68 60 52 58 73 72 76 59
45 36 29 22 20 17 11 7 4 6 30 46 60 67 67 90 99 92 100 100 98 81 65 49 43 48 46 41 62 93 98 81 50 29 34 70 77 67 58 50 53 57 75 79
31 22 18 18 16 11 8 6 4 4 18 41 50 71 81 79 78 90 100 100 100 100 100 95 91 57 55 82 100 96 82 86 82 83 72 36 35 60 63 62 59 52 50 48
15 11 11 13 10 8 6 5 5 7 21 39 48 54 61 85 98 95 97 100 100 100 100 100 100 98 100 100 78 66 42 40 31 30 38 74 90 57 31 56 59 57 57 56
10 10 11 10 9 7 6 5 5 5 16 32 54 60 71 75 79 99 97 94 95 100 100 100 100 100 95 75 59 42 31 30 24 16 13 11 16 50 91 44 37 55 50 45
10 12 12 11 11 9 9 8 6 6 5 7 26 50 60 68 77 87 96 97 97 99 100 100 99 89 69 57 50 42 37 32 26 18 11 8 8 9 21 87 66 30 48 51
15 15 15 12 13 12 11 11 10 9 8 6 7 10 20 52 67 78 79 87 92 94 97 96 84 78 69 58 56 51 38 32 20 17 15 9 6 6 8 18 84 80 32 36
19 21 18 17 13 16 16 14 11 10 11 9 10 10 14 14 18 54 78 91 96 94 94 98 94 96 72 69 65 52 40 32 38 24 35 42 62 59 23 34 80 100 89 39
21 26 24 23 20 18 21 19 17 17 16 10 9 10 11 13 15 15 33 69 91 100 100 100 100 88 92 88 75 54 55 54 65 48 56 98 90 96 38 79 100 100 100 97
35 25 35 32 25 25 23 17 16 17 17 21 17 15 13 13 14 18 17 41 80 95 100 100 98 88 93 88 77 72 67 85 84 72 83 96 96 100 100 98 100 100 100 100
56 49 38 45 39 33 30 26 24 20 20 23 26 24 20 18 16 19 19 21 56 93 100 99 95 94 99 96 94 91 82 98 99 88 80 89 100 93 76 78 75 81 91 100
80 71 68 62 52 44 42 43 44 37 30 31 33 34 30 26 23 21 22 17 18 30 69 98 100 98 100 100 100 100 99 96 100 100 98 97 99 87 76 100 75 98 100 100
72 70 72 65 62 57 50 55 50 46 45 34 38 41 42 39 34 29 23 22 18 20 22 27 24 28 79 100 100 99 100 100 100 100 100 100 100 97 97 78 94 99 100 100
70 67 60 53 52 54 57 61 58 55 54 47 46 48 49 46 46 40 38 27 23 28 32 29 25 18 13 58 100 100 100 100 100 100 100 98 91 100 100 100 100 100 100 100
71 66 61 59 54 52 57 60 58 55 57 57 59 55 54 55 55 61 66 50 39 37 38 40 45 36 25 15 23 85 94 100 100 100 100 100 100 100 100 100 100 100 100 99

GFSNW_500_rhum_048.txt.gz
RH
33 34 30 29 26 15 7 4 5 6 5 5 24 31 26 35 36 49 76 53 67 100 54 58 44 74 67 91 98 89 83 100 97 94 93 78 60 58 64 54 44 43 41 20
33 35 31 30 26 17 7 5 5 6 5 6 28 37 26 38 38 35 45 60 41 58 97 73 59 62 66 80 94 99 96 95 95 78 71 58 62 67 70 68 70 45 46 20
34 30 35 34 33 21 13 7 5 5 5 6 18 46 31 37 38 35 34 32 32 39 55 68 98 74 45 37 38 48 69 69 61 59 60 66 60 72 68 66 57 50 32 33
29 32 39 38 33 22 20 9 5 4 4 7 11 47 49 35 32 33 36 35 36 42 48 54 58 65 96 95 89 79 63 58 65 66 66 75 76 58 51 35 49 52 66 56
30 32 39 45 36 29 21 10 6 4 4 10 14 19 61 43 43 40 35 37 41 42 42 48 56 56 57 59 88 100 100 100 98 99 100 100 89 85 91 96 100 78 90 60
37 36 42 45 39 33 28 13 6 4 3 7 21 24 44 50 42 36 40 34 33 45 53 58 55 58 58 65 63 62 69 81 95 100 100 98 92 100 100 95 86 96 69 95
46 38 42 46 40 38 30 16 7 4 3 8 23 33 28 73 54 35 38 36 41 52 64 61 61 63 66 69 72 73 72 74 66 69 67 65 64 67 75 79 85 85 78 92
48 40 42 45 38 35 29 18 9 3 3 6 27 45 30 47 70 54 50 43 51 67 65 61 64 73 77 81 83 84 84 86 88 75 71 61 58 60 59 59 64 50 47 58
56 52 43 45 35 30 25 18 9 4 3 6 22 40 51 27 83 66 49 64 65 73 71 66 61 64 83 87 95 93 82 80 60 45 37 34 38 44 55 70 73 62 58 58
72 56 49 50 41 31 21 16 11 5 3 4 19 28 53 52 53 100 64 66 79 86 82 70 64 66 72 83 94 94 77 59 66 51 34 42 67 68 60 69 75 68 65 61
64 57 51 52 40 33 27 20 13 7 3 5 16 30 33 64 51 84 91 80 81 94 88 78 61 57 52 56 79 94 86 77 73 54 41 45 60 65 57 60 68 83 73 58
78 64 53 50 39 30 24 18 13 8 4 4 9 34 31 48 74 48 92 86 84 92 90 81 68 56 47 41 40 39 52 71 83 81 75 63 51 52 57 58 68 85 85 73
90 69 61 48 38 29 23 18 12 9 6 5 7 31 43 42 79 85 92 100 97 82 71 72 68 56 46 43 42 32 29 30 33 49 70 80 80 68 53 51 56 64 88 94
94 75 62 42 35 27 23 16 11 10 6 4 7 22 51 49 59 89 100 94 100 98 84 65 56 50 45 46 53 44 41 31 27 27 28 31 43 62 72 68 57 53 56 78
94 81 70 39 32 26 21 14 10 9 7 4 6 14 37 72 71 72 84 98 99 100 100 98 85 66 56 65 66 50 55 78 92 92 88 85 84 62 29 40 68 63 55 53
96 86 45 36 30 26 17 14 9 8 7 5 4 11 23 51 60 80 93 86 87 99 100 100 100 100 100 100 90 79 77 84 81 68 61 41 29 48 73 77 38 39 61 58
93 53 45 37 28 22 19 13 9 7 6 5 4 5 10 34 54 64 78 84 91 89 98 100 100 100 100 100 95 89 82 80 70 37 20 21 17 15 14 18 50 72 38 45
86 56 30 29 14 14 14 9 6 7 7 5 4 4 5 5 15 41 66 84 97 98 99 100 100 100 100 100 100 96 76 58 42 30 29 21 18 17 13 10 10 16 57 63
88 77 39 19 12 11 11 10 8 8 7 6 6 6 5 6 6 7 23 59 80 91 95 94 100 100 92 96 88 71 56 51 62 53 32 21 14 18 26 12 11 6 10 23
97 76 25 18 18 14 16 11 11 11 9 9 9 10 9 8 7 8 9 19 63 83 97 100 98 94 79 76 71 69 77 76 64 45 38 31 25 25 24 26 37 22 21 20
95 75 27 28 24 22 22 15 11 12 12 11 12 12 12 12 11 9 8 12 22 75 98 100 100 100 99 99 94 86 96 93 79 62 45 42 39 38 37 33 37 73 99 100
98 81 40 25 30 33 30 30 25 20 19 14 13 14 18 17 13 10 11 10 14 29 61 90 100 100 100 100 100 100 100 100 92 84 77 73 78 58 65 78 83 100 100 100
99 97 66 45 37 39 41 40 38 33 34 37 32 25 24 23 23 16 11 13 11 15 20 30 51 64 62 62 71 83 96 100 100 100 100 87 100 75 65 79 100 75 88 100
99 93 88 68 56 55 52 50 50 42 35 38 36 39 36 34 32 30 26 18 15 14 16 17 16 18 19 19 17 16 17 28 82 100 99 99 97 100 90 88 86 95 86 85
98 97 98 85 73 66 63 58 54 50 49 50 42 44 50 41 42 44 35 26 22 20 21 24 28 30 25 21 22 20 19 16 35 75 100 100 96 100 100 87 92 91 97 99
96 91 89 81 75 70 64 56 56 55 58 56 50 49 50 38 42 47 51 44 37 32 29 29 32 36 33 30 30 25 31 30 28 22 90 100 100 100 100 100 100 99 100 100
91 89 82 79 77 69 62 56 58 57 57 54 49 44 49 49 46 48 52 52 46 38 37 38 45 47 43 40 42 50 53 50 44 39 32 75 100 100 100 100 89 100 100 100

GFSNW_500_rhum_051.txt.gz
RH
25 22 25 23 24 25 24 12 5 4 4 4 6 27 32 32 40 56 80 74 100 43 49 60 64 68 100 99 91 93 88 93 84 65 61 60 55 47 41 38 30 27 27 30
28 24 26 25 23 24 28 14 5 4 4 4 6 20 35 36 42 38 56 59 91 100 58 48 60 61 96 97 92 83 73 73 80 66 64 58 56 70 63 56 49 41 38 26
33 26 28 28 28 26 29 16 5 4 3 4 9 14 39 36 45 41 40 46 42 87 94 60 74 73 73 80 70 72 64 71 77 87 76 79 68 72 70 61 45 47 29 36
36 32 33 30 28 27 28 20 6 4 3 4 11 14 41 34 36 42 44 44 40 52 65 96 82 58 51 54 60 52 69 83 84 87 80 72 65 60 53 41 46 47 42 42
36 38 37 33 31 30 29 21 8 4 3 3 13 22 22 45 33 29 37 44 42 44 56 60 62 81 90 80 60 54 54 52 52 54 56 56 63 89 87 78 73 51 56 39
43 40 37 37 34 28 27 17 11 6 3 3 8 24 23 37 40 33 33 40 40 36 42 55 66 67 64 62 77 94 98 98 99 99 91 90 99 98 88 90 96 91 70 95
51 44 45 53 44 38 29 22 14 8 4 3 5 12 30 16 48 34 33 38 38 36 36 48 69 74 74 74 68 63 63 68 74 82 80 84 90 91 88 88 95 88 91 96
69 62 62 56 53 40 30 23 14 9 4 3 5 11 27 24 27 47 33 38 38 40 44 53 58 61 69 79 82 84 83 80 75 72 80 74 66 62 60 64 63 59 60 60
75 72 69 66 52 41 27 20 14 8 4 3 4 8 21 31 23 44 45 39 36 38 59 63 60 58 59 65 78 85 83 83 82 81 82 60 56 42 38 42 49 53 57 57
89 79 77 79 62 42 28 20 14 8 5 3 3 6 17 27 39 21 60 48 53 52 64 72 66 66 63 67 81 94 98 95 81 66 60 67 42 39 54 62 58 61 73 74
88 88 96 86 74 50 30 19 13 9 6 4 3 4 14 23 38 42 48 75 62 68 68 80 80 72 74 72 67 76 92 94 85 75 65 55 41 40 66 68 61 60 68 84
88 99 96 87 82 71 31 18 13 9 7 5 4 4 11 20 26 55 46 75 80 66 82 93 92 77 64 54 48 44 42 48 81 90 89 82 74 57 51 54 58 60 69 95
95 100 97 95 96 66 28 17 14 10 8 6 5 3 5 17 34 39 61 59 88 85 79 95 100 89 76 62 53 47 39 34 32 38 48 66 78 81 83 74 51 52 61 63
90 97 96 95 93 68 24 17 14 11 8 7 5 4 4 7 38 51 47 63 80 93 99 94 90 86 79 71 58 52 49 44 34 30 28 30 32 33 33 37 53 70 64 56
96 96 94 96 93 70 25 17 15 12 9 7 6 4 4 4 10 40 67 81 74 91 93 99 99 93 77 67 54 46 51 56 53 45 64 87 100 98 86 83 77 53 37 68
96 96 96 97 93 56 44 17 15 13 10 8 6 4 4 4 3 6 31 66 98 86 88 87 93 99 100 100 88 70 74 84 70 66 95 95 79 59 44 33 38 45 62 64
97 96 98 96 85 92 29 20 18 14 11 10 8 5 4 5 4 4 7 14 49 63 65 71 88 97 100 100 99 100 100 100 99 100 93 73 55 29 25 21 18 17 14 15
99 98 97 97 98 46 28 23 20 16 13 12 11 10 8 8 5 4 5 5 19 41 75 92 99 95 99 100 100 100 100 100 100 97 87 63 46 40 30 21 14 12 12 10
100 97 95 97 91 40 31 25 19 16 16 12 11 12 11 11 10 6 5 5 6 13 43 74 88 89 89 95 97 100 100 100 100 96 78 64 43 44 31 32 25 19 18 17
98 98 97 97 76 44 35 22 18 15 14 12 11 12 13 14 15 11 8 7 6 6 10 29 43 55 60 65 77 93 97 97 99 100 100 98 88 59 49 37 38 24 20 20
98 98 97 98 78 48 30 23 24 20 15 14 13 14 15 19 19 18 13 11 10 8 7 7 12 29 44 58 60 65 74 85 87 88 89 87 83 74 67 65 48 50 37 28
98 99 99 98 88 46 32 30 32 32 31 27 25 27 24 24 24 27 24 19 15 13 10 10 9 9 22 37 47 50 55 57 59 53 49 67 78 85 85 75 57 56 49 86
100 100 100 96 82 69 49 30 34 39 42 42 41 37 37 34 33 26 29 25 25 21 16 13 16 15 13 11 10 11 11 11 16 15 13 16 30 62 83 100 72 66 76 95
100 99 99 97 93 89 72 63 56 52 52 54 54 54 52 55 48 40 28 36 37 35 36 33 29 25 22 24 24 20 18 18 20 19 16 14 11 16 44 92 100 99 88 87
100 100 99 98 98 96 95 92 84 77 70 66 66 66 62 65 62 50 40 44 44 42 39 38 42 43 40 34 31 30 28 25 18 20 25 30 28 18 21 52 100 98 94 98
100 100 100 100 100 96 94 85 79 74 68 63 62 63 62 62 62 51 46 46 48 48 42 40 44 46 44 39 35 34 34 35 36 37 34 32 29 29 32 27 81 100 100 100
100 100 100 99 97 94 83 81 78 74 68 66 68 65 68 67 66 59 55 55 54 46 41 38 40 42 37 33 35 39 47 51 49 38 28 23 19 14 18 26 32 100 100 100

GFSNW_500_rhum_054.txt.gz
RH
59 36 29 23 22 21 15 13 6 4 3 4 5 9 18 26 41 57 83 89 44 45 59 57 71 85 99 100 92 92 81 81 83 74 76 68 62 54 43 38 34 32 30 16
62 42 31 24 23 18 17 14 7 4 3 3 5 8 14 27 36 41 78 93 100 52 51 60 54 67 94 95 86 73 80 76 74 71 65 62 63 64 58 52 44 35 31 22
73 53 34 27 23 19 19 14 8 4 3 3 4 7 11 28 35 38 39 55 88 100 56 48 53 65 74 75 81 67 64 73 74 68 61 67 66 64 59 48 38 47 38 62
83 60 40 28 25 24 24 19 10 4 3 3 4 7 11 29 32 37 37 35 42 80 100 70 61 97 93 94 88 81 74 70 66 64 66 64 74 77 76 61 63 43 58 47
83 61 43 38 35 35 33 19 10 4 3 2 3 7 10 19 27 31 37 40 33 45 66 89 83 70 76 73 81 80 80 76 77 78 74 84 88 84 67 59 52 43 44 35
84 69 49 49 40 44 31 20 12 5 4 3 3 5 9 11 31 26 30 38 40 35 42 56 67 79 84 86 77 69 64 56 57 56 62 70 74 81 70 73 83 65 53 78
89 70 63 58 43 44 35 21 12 6 4 3 3 4 7 10 23 34 26 30 36 39 38 44 49 59 67 68 67 74 86 99 100 100 100 100 100 98 94 97 86 78 81 77
96 81 76 64 50 47 41 26 14 6 4 3 3 3 6 12 10 34 29 31 35 37 36 40 54 65 65 60 61 63 66 68 68 67 74 77 74 73 69 62 58 57 58 59
97 87 79 62 53 49 51 44 17 7 5 4 3 3 4 10 17 18 36 33 29 38 37 46 56 62 64 66 71 78 75 76 79 74 75 78 77 69 65 61 50 48 49 50
95 97 89 81 85 61 59 51 15 8 6 4 3 3 3 7 14 23 34 41 34 32 32 34 60 65 61 62 60 65 81 90 91 93 83 79 69 60 53 47 42 42 52 58
90 92 86 88 89 73 71 42 17 9 7 5 4 3 3 6 12 24 23 42 50 41 40 40 42 60 64 65 66 65 64 80 97 100 87 74 63 56 46 46 57 69 66 59
95 98 93 96 96 89 64 39 25 10 7 6 5 4 3 3 9 20 37 34 64 70 57 57 75 84 78 69 68 59 53 48 50 69 92 97 93 89 72 56 57 59 61 61
98 100 98 95 93 92 86 67 35 11 9 7 6 4 4 3 4 12 35 46 40 67 82 84 89 100 95 83 69 60 52 49 46 42 39 39 44 61 77 85 86 82 71 67
98 97 96 94 90 91 83 68 23 12 10 8 6 5 4 4 3 4 19 60 59 51 71 99 97 96 100 97 88 79 70 60 53 49 50 48 47 35 31 35 32 32 37 52
97 97 97 92 91 90 81 45 49 13 11 9 7 6 5 5 4 3 3 12 55 66 65 86 95 97 92 86 79 67 70 64 56 52 50 55 78 92 85 91 90 82 75 75
96 96 96 94 90 90 84 87 23 15 12 10 8 7 7 5 5 4 4 4 11 58 82 86 84 83 95 91 94 97 95 89 76 79 93 90 75 96 100 96 82 59 45 47
96 97 94 93 92 86 87 50 21 18 14 12 10 9 8 6 5 6 5 6 6 8 19 42 62 64 67 80 90 92 99 100 99 95 96 94 91 95 97 88 84 69 34 26
97 96 92 96 92 96 82 44 26 20 18 15 13 12 10 9 8 7 5 8 7 6 6 14 32 54 76 80 89 98 93 85 85 86 86 89 94 99 98 90 81 53 30 24
97 96 95 97 96 97 82 71 27 24 21 20 19 18 15 14 11 8 7 6 10 8 8 7 9 12 40 60 64 66 73 83 89 86 85 82 81 78 71 78 85 61 32 24
97 96 97 96 97 98 94 72 32 28 25 25 23 22 20 19 17 15 11 9 10 13 10 12 12 10 10 10 29 33 51 45 40 43 47 48 49 56 66 76 71 59 51 44
97 97 99 97 98 98 97 53 38 31 31 32 30 30 25 22 26 25 20 13 12 14 18 20 15 15 16 8 8 8 10 13 12 11 12 14 27 37 40 48 55 68 72 65
98 98 97 98 99 98 94 81 45 36 35 36 38 40 41 37 34 34 37 30 22 20 28 29 23 14 15 17 16 12 11 12 13 17 15 15 15 20 21 20 25 43 68 89
100 95 98 97 97 99 99 70 56 44 37 35 38 45 52 54 54 51 51 51 51 39 29 35 38 38 37 35 27 26 24 24 22 24 22 21 18 15 14 14 12 11 17 57
95 97 99 98 96 99 95 77 69 62 61 62 64 71 72 71 69 64 60 58 54 49 41 38 46 46 38 40 43 40 36 33 30 28 31 29 28 29 26 18 18 17 20 13
98 99 97 98 100 100 99 94 91 87 85 81 78 71 67 64 59 58 61 63 60 58 56 57 60 62 49 43 37 33 32 31 33 33 35 38 44 46 42 38 32 25 24 23
98 98 100 100 100 99 96 97 98 89 74 69 67 62 58 55 54 56 64 66 69 70 71 69 63 53 42 38 37 37 30 28 26 26 28 28 22 16 19 28 38 38 36 26
99 100 100 100 97 96 98 100 95 74 64 59 56 55 56 53 50 54 56 61 62 65 62 57 46 39 29 20 14 12 12 12 13 13 12 12 16 18 19 19 18 18 22 24

GFSNW_500_rhum_057.txt.gz
RH
93 88 73 41 30 22 16 9 4 2 2 3 4 4 8 20 40 73 77 29 47 81 86 99 100 100 100 89 83 87 95 82 82 84 69 63 57 63 73 70 47 27 22 23
95 89 64 40 30 20 17 11 5 3 2 3 3 4 7 18 34 57 89 75 34 32 46 72 97 100 94 98 92 76 79 73 74 67 62 65 63 75 70 55 38 30 34 36
98 93 61 41 28 25 23 14 6 3 2 3 3 4 5 11 24 37 57 87 87 40 34 48 76 91 93 84 88 81 75 78 75 69 68 81 79 79 74 62 47 56 48 52
97 93 55 39 34 34 26 15 7 3 2 3 3 3 4 6 20 37 37 41 80 80 47 41 63 66 82 84 86 74 76 76 70 72 71 70 67 66 64 55 70 51 68 62
97 93 64 52 48 38 30 15 8 5 2 3 3 3 4 5 14 24 38 39 45 75 85 59 45 52 62 70 84 87 74 72 67 64 68 71 71 63 61 62 76 68 67 57
97 94 73 64 49 38 36 20 10 6 3 3 2 3 4 5 7 19 29 36 36 42 62 84 75 85 93 84 82 82 76 70 71 69 70 68 65 71 74 79 78 66 60 54
96 93 79 65 53 39 38 26 16 7 4 3 3 3 3 4 5 12 20 26 32 37 43 53 66 77 75 72 69 66 65 62 63 63 58 55 54 58 57 61 64 59 46 48
96 95 80 75 57 44 44 36 24 10 6 3 3 3 3 4 6 7 23 22 26 33 35 36 48 53 58 58 59 62 64 68 76 80 86 77 83 75 78 81 68 78 78 77
97 95 85 90 72 56 49 39 34 14 7 4 3 3 3 4 6 9 12 26 29 30 32 35 37 46 60 65 63 61 60 64 66 67 68 68 48 67 70 69 60 60 58 54
96 97 86 83 85 79 60 42 39 15 9 6 4 4 3 3 4 9 11 18 34 29 31 38 40 56 64 61 60 63 63 67 69 76 78 74 74 75 79 76 58 55 52 47
96 97 90 91 94 85 80 54 37 16 16 8 5 4 4 3 3 6 9 16 31 38 37 39 40 54 64 70 68 65 63 66 72 80 85 84 87 81 75 63 55 46 41 42
96 97 91 87 87 80 91 73 84 18 12 9 6 4 4 4 3 3 7 14 21 39 59 53 66 69 78 81 75 73 69 62 59 52 54 69 90 92 82 76 70 56 50 59
97 97 88 89 90 88 82 88 86 37 12 10 7 6 5 4 4 3 4 7 16 31 46 72 84 74 82 74 74 78 75 66 58 52 51 49 44 39 36 40 72 93 87 79
96 97 95 92 91 89 80 74 72 44 15 13 8 7 6 4 4 4 4 4 8 23 41 53 82 90 91 86 83 79 92 86 84 77 67 62 53 47 45 40 33 31 35 39
96 96 99 97 90 93 76 69 71 48 30 11 9 8 7 6 5 5 5 4 4 5 27 49 74 87 96 100 97 100 98 92 97 88 74 70 60 51 46 52 49 48 68 83
96 97 98 93 95 90 72 72 64 66 17 12 10 9 8 7 6 6 6 5 4 4 6 20 65 74 68 64 65 75 85 95 100 100 100 98 97 91 90 91 76 72 68 68
96 97 96 96 96 90 81 78 73 54 19 14 12 11 10 8 8 8 8 8 7 7 7 7 7 14 24 50 64 71 72 85 89 99 100 100 97 98 99 100 100 100 99 95
96 96 97 96 96 95 81 82 79 31 22 17 14 13 12 11 10 9 9 10 10 10 10 11 10 9 9 9 16 40 56 72 81 85 84 86 83 76 72 72 76 83 89 92
97 96 95 95 95 97 90 88 60 39 27 19 17 16 16 16 16 16 13 11 11 13 14 16 17 18 13 13 10 8 9 12 22 32 36 39 36 34 31 28 30 38 46 50
98 95 94 94 96 96 98 82 52 55 28 24 22 21 22 22 22 24 26 27 24 18 12 13 16 20 22 20 16 13 9 8 8 9 11 12 12 11 11 11 11 16 22 22
96 96 95 96 96 96 96 88 85 77 55 29 26 28 32 34 34 37 37 37 36 37 36 30 23 19 26 29 27 22 20 19 16 13 13 14 16 17 16 13 10 9 8 11
99 98 98 97 96 96 97 98 94 95 49 33 31 33 36 40 43 50 53 56 54 53 53 52 47 44 34 34 39 38 34 30 26 25 25 25 23 20 21 19 16 17 15 16
97 96 93 96 95 95 94 98 98 96 64 44 37 37 42 52 57 56 58 55 53 50 51 56 56 62 55 47 48 51 52 56 41 37 36 36 31 28 26 23 26 27 28 29
97 95 94 96 92 95 98 100 100 92 67 59 59 68 71 65 58 56 52 46 42 39 48 58 62 66 67 67 68 70 72 68 54 41 30 23 17 15 19 28 33 37 40 46
98 97 96 95 98 97 100 100 100 87 81 80 82 76 62 56 54 52 49 44 39 39 41 41 46 51 52 54 54 54 49 40 28 17 12 10 10 12 16 18 14 12 13 14
99 96 95 95 98 100 100 100 98 91 89 89 78 63 54 51 50 49 46 42 40 40 39 40 45 49 52 54 50 39 30 21 14 11 10 9 9 9 9 12 18 24 34 30
92 92 97 99 100 100 100 100 98 98 96 83 66 57 51 49 46 45 43 41 41 41 40 41 46 48 51 46 38 32 21 15 12 10 8 9 10 11 17 27 95 100 100 100

GFSNW_500_rhum_060.txt.gz
RH
93 97 98 92 87 47 22 11 5 3 2 2 3 3 5 15 35 70 37 23 43 86 90 96 82 71 60 67 81 78 99 83 97 100 94 90 89 90 96 100 100 91 66 53
99 97 97 94 81 35 22 12 5 3 2 2 3 3 4 7 26 57 56 32 44 82 89 95 100 94 85 93 97 90 91 79 90 85 76 80 81 92 99 96 84 75 60 41
100 96 97 94 72 28 28 13 5 3 2 2 3 3 4 5 15 32 54 71 33 49 69 89 100 95 86 78 87 81 93 92 78 78 85 79 78 81 92 83 71 74 56 40
98 98 97 94 57 33 32 14 6 3 3 2 2 3 3 4 8 20 33 40 67 32 32 72 97 100 100 92 93 93 86 80 80 81 84 86 87 86 82 74 84 58 66 56
97 96 98 90 43 41 30 14 9 5 4 2 2 3 3 4 4 15 28 32 42 71 41 30 73 81 91 87 83 82 85 93 86 89 88 85 83 75 74 77 77 67 66 61
97 97 98 80 50 45 30 18 11 6 5 3 2 3 2 3 4 8 18 31 32 48 72 40 35 60 64 67 69 69 81 84 82 80 79 78 75 76 74 72 72 65 59 56
97 97 98 78 62 44 32 23 16 9 6 4 3 3 2 3 4 5 11 21 32 36 44 69 67 42 48 60 67 74 69 75 76 76 73 62 55 56 57 54 51 50 54 51
98 97 97 88 61 43 36 33 26 14 8 5 3 3 3 3 3 4 6 15 19 30 34 34 44 69 82 81 76 76 71 64 60 57 55 52 50 47 52 51 50 50 51 59
98 97 97 95 59 44 42 43 34 20 10 7 4 4 3 3 3 3 5 7 15 21 24 29 32 30 36 46 52 56 56 56 56 56 56 57 51 58 62 61 60 74 73 71
97 98 97 94 63 49 50 49 44 27 13 10 6 4 4 4 3 3 3 5 8 20 24 27 30 33 35 34 37 45 49 54 55 58 54 54 60 72 79 67 63 65 71 71
98 98 97 95 83 69 66 60 48 38 19 23 9 5 4 4 3 3 3 4 7 13 25 30 30 34 38 45 52 55 62 66 63 60 56 65 84 87 91 83 83 81 71 60
97 98 97 96 88 85 87 86 51 52 34 24 10 7 5 4 4 4 3 3 4 9 18 32 38 45 46 45 50 57 60 75 72 68 60 55 52 51 64 82 96 93 83 72
98 97 97 97 93 90 84 74 80 88 51 17 11 8 6 5 5 4 4 3 3 4 9 19 39 66 74 67 52 82 86 90 78 71 60 60 56 53 52 52 46 40 36 48
98 97 97 97 96 94 86 65 71 87 49 24 12 10 7 6 6 5 5 4 4 4 3 7 19 32 60 78 78 77 86 89 79 83 76 95 90 76 73 66 55 46 47 43
98 96 97 96 95 89 78 63 60 72 53 45 22 12 10 8 6 6 6 5 5 5 4 4 5 11 35 65 74 71 72 70 91 100 100 97 98 96 87 80 69 56 45 48
98 97 97 96 97 92 80 65 58 66 59 54 38 14 10 9 8 7 7 7 7 7 6 5 5 5 6 15 30 34 46 54 69 77 87 86 91 93 94 98 96 92 90 88
97 97 97 97 97 92 86 74 64 58 63 63 28 14 12 11 9 9 9 9 9 9 10 10 10 10 9 8 8 8 9 16 29 47 62 81 97 100 100 98 96 97 94 90
98 97 97 97 97 94 82 74 70 66 64 66 23 16 16 13 11 11 11 11 12 12 13 14 16 17 18 19 20 19 14 9 8 9 17 27 32 39 42 51 53 55 49 52
96 96 94 96 95 97 93 83 74 71 68 37 22 20 16 16 15 15 16 18 19 20 21 23 22 20 20 22 22 20 22 26 23 20 14 10 9 10 13 14 18 16 16 16
97 95 97 97 94 96 95 90 78 80 64 39 36 25 19 21 20 21 23 25 27 28 33 34 37 40 42 40 37 35 30 27 28 31 33 33 25 19 15 16 14 14 13 12
97 93 99 97 97 97 99 95 89 77 56 46 39 32 26 26 27 30 33 34 37 38 39 39 40 50 55 55 51 48 46 45 39 37 39 41 50 62 43 34 32 29 26 24
97 98 97 96 96 98 94 96 96 93 56 56 67 57 33 30 32 33 36 43 44 38 35 34 34 40 40 42 46 51 56 58 57 53 52 57 62 70 72 61 48 42 39 38
97 90 90 91 93 96 95 95 100 100 88 89 91 70 49 39 38 43 49 47 43 39 38 37 34 34 34 34 36 40 44 52 60 62 63 60 52 46 41 37 29 20 15 12
89 90 89 88 95 95 97 100 100 100 100 100 98 80 58 60 58 56 50 42 38 37 38 36 35 34 33 33 32 34 37 44 51 53 52 43 36 30 22 17 15 13 12 10
84 88 90 94 97 97 98 96 100 100 100 100 98 80 79 73 64 53 46 40 39 35 33 30 29 29 31 29 28 29 36 44 49 48 46 43 34 26 20 14 11 9 9 12
91 92 94 97 97 98 100 100 99 99 100 100 97 91 84 72 58 51 43 39 34 29 27 26 25 26 26 27 29 32 41 48 52 50 42 34 23 13 11 9 10 18 39 71
93 86 96 97 98 98 96 93 95 95 100 100 98 95 79 68 56 45 35 28 24 23 23 22 23 24 25 28 30 37 42 45 44 38 24 16 11 10 10 11 21 70 92 100

GFSNW_500_rhum_063.txt.gz
RH
7 38 96 98 98 96 85 31 11 5 3 2 2 2 3 8 26 35 22 49 84 67 26 36 38 47 53 80 82 88 100 100 90 94 88 95 99 99 94 97 100 92 86 78
13 61 96 98 98 96 76 23 10 4 3 2 2 2 3 5 16 39 38 34 42 85 63 38 55 28 45 59 70 70 99 96 99 90 94 100 100 99 100 99 100 91 95 86
16 61 97 98 98 97 44 22 8 4 2 2 2 2 3 3 7 27 40 46 31 48 83 84 70 65 58 58 61 63 64 78 91 80 96 98 98 95 91 87 99 100 100 96
40 98 98 98 97 96 40 22 7 4 3 3 2 2 2 2 4 9 25 34 56 27 38 79 83 84 80 81 82 91 88 88 94 90 96 78 68 68 64 69 100 89 100 93
71 98 98 98 98 81 40 21 8 4 3 3 3 2 2 2 3 5 16 29 35 63 24 47 82 88 87 96 94 96 92 92 87 85 86 92 84 80 84 87 86 87 89 86
94 98 98 98 98 62 38 20 10 5 3 3 3 3 2 2 3 4 7 20 29 32 63 22 48 70 77 78 80 74 75 79 92 87 83 85 92 94 92 85 75 72 69 71
96 98 98 98 97 55 37 19 10 7 5 4 4 3 3 2 2 3 4 8 16 28 30 51 31 28 61 67 68 66 69 69 76 80 78 72 68 65 61 61 62 61 60 63
99 99 98 97 96 58 36 20 11 9 7 5 4 4 3 3 3 3 3 4 8 17 27 29 35 57 33 49 54 54 58 64 70 67 64 58 55 65 68 68 71 73 72 71
91 98 99 97 96 62 34 22 16 14 9 7 5 4 4 4 3 3 3 4 5 11 16 19 27 27 40 61 68 66 70 67 61 58 54 50 53 58 60 60 62 70 66 70
100 96 98 98 95 65 35 27 24 24 14 9 9 6 4 4 4 3 3 3 4 7 12 16 19 23 26 29 33 38 42 45 48 49 52 52 53 58 56 53 60 66 66 62
98 99 97 98 96 54 35 36 36 27 21 15 21 10 5 5 4 4 4 3 3 4 7 10 14 20 19 21 26 30 34 43 47 58 65 63 62 62 70 70 80 82 82 81
99 98 98 98 95 46 39 42 46 37 27 20 25 11 8 5 5 5 4 4 3 4 4 5 9 12 17 21 24 32 38 44 57 64 68 68 66 63 57 54 51 54 57 60
97 97 96 97 93 47 51 58 59 38 40 45 26 13 11 7 6 5 5 5 5 4 4 4 4 5 9 12 28 32 42 48 54 54 56 61 65 60 59 60 60 60 60 57
98 97 98 97 94 77 89 88 66 56 74 69 26 17 13 10 7 6 6 6 6 6 6 5 5 5 4 6 11 27 38 55 69 73 72 74 84 93 99 98 99 99 94 78
98 98 96 97 95 90 73 72 75 82 77 53 32 31 20 12 9 7 7 7 7 7 7 7 7 6 6 6 6 7 11 22 28 40 46 50 59 68 86 100 100 100 100 100
98 97 98 97 96 90 70 73 63 64 71 52 42 41 22 14 12 9 8 9 9 8 9 9 10 10 10 9 8 9 8 8 8 8 10 12 18 23 39 53 70 83 91 92
97 96 97 98 97 94 82 65 54 61 61 62 48 46 30 13 12 11 10 10 11 11 12 13 14 15 16 17 18 19 20 19 19 20 20 18 13 11 11 12 13 20 24 30
97 97 97 97 94 86 75 66 62 56 52 57 52 46 29 17 14 12 12 13 14 15 17 18 19 22 22 23 25 27 28 29 29 26 27 27 27 26 22 20 17 16 15 15
98 97 97 96 94 93 79 70 68 59 49 56 61 45 25 23 18 16 16 17 18 21 24 26 28 30 33 33 33 29 30 35 36 40 41 39 35 33 34 36 39 41 42 49
96 98 98 96 95 95 92 76 64 58 60 66 55 34 22 31 24 23 23 23 27 30 35 37 36 36 30 29 30 29 30 32 38 41 47 50 54 57 56 51 51 55 59 61
96 99 99 97 94 94 91 80 75 72 65 70 60 39 30 34 36 32 30 30 32 36 44 42 38 35 35 32 31 31 31 33 35 35 41 47 55 61 64 66 67 66 64 60
98 97 97 96 96 95 93 90 88 75 65 64 54 40 37 44 52 45 38 38 42 45 43 37 34 35 33 29 27 26 28 29 29 28 32 39 51 54 53 51 49 47 46 46
97 93 89 96 89 85 94 94 96 95 94 87 67 54 57 70 71 64 55 52 50 45 38 35 32 25 21 19 19 20 21 23 24 26 33 38 44 51 54 53 51 42 34 27
99 94 88 91 89 90 99 99 99 99 97 96 94 93 92 97 89 72 67 58 50 41 35 27 21 19 16 15 16 15 15 18 21 24 33 45 51 50 44 35 25 18 12 10
91 84 83 83 91 96 98 98 95 93 96 95 98 100 100 100 89 79 69 57 47 37 26 22 20 17 16 15 15 16 18 20 24 29 35 40 43 37 27 18 13 11 11 13
87 78 87 90 95 94 89 88 87 84 80 81 91 96 100 96 89 81 66 54 39 28 25 23 19 19 18 17 17 18 19 21 26 32 37 38 33 25 19 15 12 11 16 43
84 81 86 96 97 98 96 95 86 80 82 86 93 99 99 95 87 76 61 45 31 28 26 22 21 19 19 20 20 22 23 26 30 35 36 33 26 21 17 13 14 15 24 48

GFSNW_500_rhum_066.txt.gz
RH
46 100 41 7 58 81 96 99 87 30 6 3 2 3 4 7 24 25 38 56 48 34 32 37 38 34 58 82 63 58 72 66 77 78 80 91 100 93 91 90 85 78 70 62
100 100 71 90 90 94 97 100 71 17 4 3 2 2 3 6 13 31 22 43 63 34 32 32 41 32 40 53 73 83 69 78 94 76 80 84 88 90 96 92 92 94 96 97
100 90 95 35 99 98 97 99 45 12 4 3 2 2 3 4 8 18 42 24 37 63 29 30 37 36 32 51 61 68 69 85 86 88 90 96 96 97 98 95 100 100 100 95
100 68 96 96 99 98 97 96 33 10 4 3 2 2 2 3 6 12 31 52 22 34 62 58 34 25 24 29 36 47 55 63 77 79 76 80 85 84 87 93 100 98 100 96
100 100 44 99 98 99 97 87 26 6 3 3 3 3 3 3 3 7 19 30 45 23 46 62 78 68 42 62 69 70 70 72 88 80 81 84 84 82 76 85 79 96 97 91
80 100 86 98 99 99 96 52 20 6 3 4 3 3 3 3 3 5 9 22 27 41 24 44 58 66 68 69 69 69 75 74 81 82 80 79 84 81 87 91 81 89 93 99
93 100 98 99 99 98 98 36 14 5 4 4 4 3 3 3 3 3 5 8 17 22 31 32 28 50 58 64 64 72 69 68 70 73 73 73 76 74 69 68 69 73 81 87
99 99 99 99 98 98 98 37 13 6 4 4 5 4 4 3 3 3 3 4 8 14 19 28 30 31 20 36 60 64 65 62 62 63 67 63 60 60 62 62 58 58 59 61
95 94 100 97 98 98 85 32 12 6 4 4 4 5 4 4 3 4 3 3 4 5 10 13 23 26 26 32 32 32 45 57 58 59 55 53 58 58 59 60 53 72 72 75
99 100 96 94 97 98 62 32 12 7 6 5 5 5 5 4 4 4 4 3 4 4 5 7 10 14 18 22 24 26 34 39 47 49 46 43 44 50 49 60 68 70 69 72
100 97 100 97 94 96 54 25 12 8 8 8 8 7 6 5 5 5 4 4 4 4 4 4 6 7 11 16 18 17 20 20 22 26 30 33 41 47 51 56 54 57 61 67
98 98 98 99 98 92 52 24 14 11 9 11 15 11 7 6 6 5 6 5 5 5 4 4 4 5 5 8 10 11 16 16 20 22 26 31 38 45 46 54 58 57 55 54
99 98 98 97 98 89 44 22 19 14 12 13 21 15 10 8 7 6 6 6 6 6 6 6 6 6 6 6 6 6 7 7 11 20 36 38 48 58 64 65 64 65 70 77
98 99 97 95 98 83 37 24 30 23 20 18 22 19 12 10 8 7 7 7 7 7 8 8 8 8 9 9 8 8 8 8 8 7 10 8 14 19 27 37 48 59 64 72
99 99 98 94 98 74 34 30 41 37 36 54 46 23 18 12 11 9 8 8 9 9 10 10 10 11 12 12 12 12 13 14 13 13 13 10 9 7 8 9 10 11 19 32
98 97 97 94 97 61 36 45 61 51 67 65 57 36 26 17 11 12 10 10 10 11 12 13 14 15 15 16 16 17 19 20 21 22 23 22 22 23 23 22 21 18 16 13
99 97 97 99 93 46 71 74 60 79 77 56 44 44 46 29 13 14 15 13 13 14 15 17 19 20 21 22 22 23 24 26 30 32 34 34 35 31 30 29 29 30 30 31
94 96 96 98 95 95 78 77 68 60 59 56 50 52 49 42 23 20 18 17 17 17 19 22 25 28 29 28 28 28 28 30 33 36 38 42 44 48 49 53 58 60 60 58
95 98 97 97 97 97 88 63 57 52 41 51 55 58 51 47 34 24 24 21 23 24 26 29 32 37 35 32 32 32 31 30 31 30 27 29 30 33 37 47 49 57 64 65
97 98 99 89 95 96 80 54 57 52 45 42 55 55 42 48 34 32 35 32 30 33 32 35 40 41 35 33 30 27 25 24 23 23 22 24 24 28 31 36 39 46 51 54
94 97 98 99 100 97 97 83 65 54 52 56 56 60 54 50 46 40 43 48 43 40 42 44 42 35 34 28 20 19 18 17 17 15 15 18 22 26 33 42 45 54 58 57
100 99 97 99 98 95 92 93 82 58 57 60 60 61 58 50 49 54 65 65 61 54 51 46 39 34 26 20 18 16 15 15 14 14 15 17 21 24 28 35 40 45 45 36
99 96 95 97 92 91 89 77 75 74 83 70 64 60 58 53 56 71 81 78 68 63 53 45 37 27 22 20 17 17 16 16 17 18 19 21 24 27 30 39 42 37 29 23
97 93 89 96 92 95 87 96 96 92 87 84 84 86 75 73 81 88 86 78 73 63 52 44 30 26 26 20 19 17 19 21 21 20 22 25 28 35 40 41 36 30 26 21
92 92 94 95 99 99 96 95 90 90 86 84 86 86 92 88 94 90 80 78 74 65 54 38 29 30 24 21 20 22 24 23 22 23 27 28 32 36 40 37 32 28 21 16
99 99 98 100 97 95 94 90 84 86 86 85 86 86 86 93 87 82 78 76 72 64 51 36 36 30 24 21 22 25 24 23 25 27 29 32 35 38 40 36 32 25 19 18
96 98 98 100 97 96 90 82 82 81 73 74 77 76 86 84 79 78 77 76 72 65 50 43 42 31 24 24 27 26 25 26 27 27 30 32 37 40 40 37 29 21 21 30

GFSNW_500_rhum_069.txt.gz
RH
92 44 13 83 100 56 9 36 84 97 100 44 9 6 7 21 27 39 56 34 34 35 34 40 70 68 75 70 71 80 85 88 86 85 87 79 62 72 65 90 93 90 88 79
56 26 72 98 88 82 60 95 95 100 87 21 7 5 7 19 26 44 54 36 30 34 33 30 46 43 57 54 57 66 66 58 67 71 76 91 97 85 68 62 62 62 63 61
36 41 100 100 47 99 100 99 97 100 46 8 5 5 6 13 24 28 48 44 33 28 28 26 28 30 28 32 62 60 55 60 86 73 70 68 77 82 90 94 90 80 75 75
75 100 100 55 100 99 100 94 97 89 18 6 4 4 4 9 21 26 28 40 29 26 20 24 31 30 25 31 30 34 45 49 62 56 59 70 72 74 78 82 89 82 75 74
53 99 100 100 99 98 100 100 100 59 8 6 4 4 4 7 11 23 30 26 35 30 32 34 34 31 26 25 28 32 27 33 36 39 58 65 63 72 74 66 69 72 68 70
97 100 92 100 94 99 100 97 95 26 6 5 3 4 4 5 6 9 23 25 27 33 34 30 27 21 16 17 29 50 52 50 55 65 65 62 62 66 65 63 64 72 65 69
100 98 96 98 100 98 99 99 71 11 6 4 3 3 3 4 4 6 10 18 26 24 28 32 31 36 41 43 44 49 55 60 63 66 67 62 62 61 62 65 70 74 74 72
100 100 100 99 100 93 96 100 36 7 5 4 3 3 3 3 3 4 4 7 12 25 27 23 23 26 40 39 41 41 44 51 58 54 55 54 53 53 50 49 51 53 56 59
98 98 96 99 99 100 100 84 19 6 5 4 4 4 4 4 3 4 4 4 6 8 13 17 22 28 25 20 22 23 32 45 48 51 51 49 53 50 49 50 46 53 52 54
98 99 99 94 96 95 96 59 13 5 5 4 5 5 4 4 4 4 4 4 4 4 6 9 10 13 15 18 21 25 27 31 32 31 31 32 31 28 27 29 34 38 46 47
100 98 100 100 94 97 95 39 10 5 4 4 5 6 5 5 5 5 5 5 5 4 4 4 5 6 7 8 8 10 11 12 14 15 16 18 15 17 23 22 28 34 42 48
98 97 98 99 97 100 72 28 8 5 5 5 5 6 6 5 6 6 7 7 6 5 5 5 4 4 5 5 6 6 8 7 8 8 11 10 11 11 14 18 20 25 25 30
96 100 96 98 97 99 60 21 8 6 5 5 6 6 6 6 6 6 7 8 8 8 8 8 8 7 7 7 7 7 8 8 8 9 9 10 10 10 10 9 9 9 12 21
88 94 95 97 99 88 49 18 9 8 7 7 9 9 9 9 7 7 7 7 8 9 10 10 11 11 12 11 12 12 12 12 13 13 13 14 15 16 18 19 18 16 14 13
96 98 96 99 98 79 48 17 11 9 9 12 14 11 12 13 9 8 8 8 9 10 11 12 14 15 15 16 16 16 17 18 19 20 20 22 24 26 26 28 28 28 28 29
85 85 98 97 92 79 44 18 15 11 11 16 21 22 20 14 14 9 12 13 12 11 13 15 18 20 20 22 22 22 22 23 24 25 25 27 29 32 33 37 39 42 44 46
89 95 99 98 98 76 35 21 20 17 21 38 45 34 25 29 21 18 17 17 14 16 18 17 21 24 27 29 28 27 27 28 28 28 28 29 28 28 31 32 31 30 32 37
86 94 98 97 97 87 37 25 26 27 47 60 40 36 38 49 32 24 22 20 19 23 21 24 26 29 33 36 34 30 30 30 28 26 23 23 20 18 19 19 23 25 26 29
88 93 90 95 92 83 34 34 36 38 62 61 39 43 46 45 36 35 30 26 26 29 28 31 34 35 39 40 34 31 29 25 22 20 18 16 14 13 15 17 20 25 28 31
96 96 99 94 96 94 75 70 59 65 67 44 48 50 51 52 44 34 37 42 44 42 44 46 43 45 43 38 33 30 22 20 18 15 15 14 15 18 20 23 26 28 30 35
97 94 98 100 96 95 79 65 65 61 51 43 44 54 53 48 44 48 48 49 60 59 53 54 52 49 44 38 32 24 24 20 17 16 16 19 22 23 27 29 32 35 41 44
100 100 100 100 97 96 74 70 64 50 50 42 47 48 57 56 59 53 56 61 68 70 65 61 57 51 46 39 28 30 25 20 18 20 23 24 24 27 30 33 35 40 42 43
98 96 90 91 91 88 88 80 61 70 55 70 72 58 60 58 56 56 61 67 72 71 69 64 60 55 48 36 34 34 25 20 21 24 26 25 28 30 32 34 35 39 42 41
89 95 87 88 82 71 72 83 97 79 94 96 77 66 61 60 68 71 72 71 74 73 72 67 62 58 47 38 40 34 26 23 25 29 27 25 27 31 34 35 38 41 40 32
90 97 90 86 83 83 87 96 96 96 91 91 91 75 78 74 76 74 71 74 71 71 68 64 63 59 48 45 44 34 26 28 31 27 24 25 27 30 35 39 37 36 25 26
90 90 88 93 91 96 98 96 93 95 97 96 90 84 77 78 71 70 73 70 66 65 66 66 66 64 53 49 43 31 31 34 30 25 24 25 27 32 34 36 30 20 21 28
91 91 93 100 99 96 99 98 98 98 96 92 87 80 79 73 64 65 67 63 61 65 66 67 68 65 54 49 40 35 37 34 28 26 25 26 29 31 33 28 16 15 24 32

GFSNW_500_rhum_072.txt.gz
RH
100 92 100 66 89 52 100 100 78 48 99 100 59 93 16 20 27 56 41 44 35 38 84 84 78 51 54 64 76 85 81 83 84 78 85 82 62 62 60 65 75 76 82 73
86 89 100 33 100 100 93 85 100 99 82 97 100 39 14 20 36 50 36 38 34 33 53 51 70 56 59 65 65 55 56 59 62 62 66 68 68 69 66 72 73 85 87 87
88 94 95 82 100 96 100 95 42 91 97 100 49 14 13 19 40 44 32 31 29 30 36 37 36 42 53 54 67 70 52 69 63 60 63 63 70 76 65 57 47 52 52 52
85 98 95 100 100 97 80 99 99 100 100 85 12 10 18 23 39 46 37 30 26 24 30 35 30 27 26 32 28 28 34 44 48 41 42 56 61 60 58 63 66 63 57 48
61 100 99 100 100 88 100 95 100 100 94 19 8 9 19 24 29 40 50 48 29 23 24 26 24 24 23 24 21 18 19 23 24 30 28 43 46 51 56 55 55 59 62 64
70 98 100 100 98 96 100 99 100 99 19 9 7 9 17 22 19 21 24 26 28 20 20 19 18 18 19 20 17 20 34 34 26 32 38 41 46 48 47 44 45 46 50 60
79 97 100 99 100 100 100 100 100 77 10 6 7 8 8 12 17 18 21 21 22 30 26 25 19 18 14 15 24 34 33 36 37 41 36 46 49 44 43 44 43 43 44 46
98 100 100 100 99 100 100 86 99 34 7 5 6 5 5 4 5 10 12 17 18 24 21 26 25 25 23 24 25 29 26 29 26 28 38 45 46 42 42 43 42 42 38 37
85 95 98 98 100 93 98 83 78 11 7 4 4 4 4 4 4 5 6 8 12 14 16 18 21 24 24 25 26 28 24 24 25 38 41 35 42 45 41 39 36 38 44 44
94 99 99 100 91 92 98 81 24 8 6 4 4 4 4 4 4 4 4 5 6 8 10 12 11 11 16 14 17 19 18 20 21 23 24 25 21 20 18 18 17 18 21 24
98 98 99 92 98 98 94 40 10 7 6 4 4 5 6 6 5 4 4 5 5 5 5 6 6 6 6 6 6 6 7 9 9 9 10 11 9 8 10 10 8 9 11 10
99 96 94 92 99 100 70 20 7 6 6 5 5 5 6 7 7 6 6 5 5 5 5 4 4 4 5 5 5 5 6 6 6 6 8 8 9 8 8 8 8 10 10 12
89 98 99 97 98 96 64 15 6 5 6 5 5 6 6 7 7 7 8 8 8 8 7 8 7 7 6 7 7 7 8 8 8 9 10 10 10 11 11 11 12 13 13 15
82 88 96 99 94 88 46 15 6 5 5 5 5 5 6 6 6 7 8 8 8 9 10 11 11 11 13 12 14 14 13 14 14 15 15 15 15 16 16 16 16 16 18 19
82 92 100 100 97 77 40 15 7 5 5 6 6 6 6 6 7 6 8 8 9 10 11 13 14 15 16 17 19 19 19 19 21 22 22 23 23 22 22 21 18 18 20 21
92 91 96 97 95 83 45 14 8 7 6 7 9 9 10 9 10 12 10 12 12 12 12 13 16 19 22 24 27 27 26 26 26 27 27 27 26 25 21 18 16 16 14 15
81 90 99 99 100 73 42 16 9 8 8 10 12 15 17 20 24 22 16 16 15 15 16 17 18 22 25 29 33 33 32 30 28 28 26 23 19 17 14 13 12 13 15 18
89 97 96 99 100 75 46 19 13 11 10 15 17 22 32 26 27 22 21 20 20 23 25 27 28 31 33 35 36 38 36 32 30 26 22 20 17 15 14 15 19 22 22 24
90 91 91 91 96 82 53 27 20 20 18 31 49 36 31 38 36 35 30 29 31 35 37 40 43 42 43 44 44 42 37 34 28 26 25 20 17 17 21 24 25 26 29 28
91 86 90 89 94 82 56 33 26 33 38 45 55 41 33 45 43 39 42 40 43 44 48 52 49 51 53 51 49 45 40 32 32 32 24 20 20 24 28 28 27 29 29 27
86 90 96 95 100 96 69 43 38 43 51 61 55 46 46 46 48 46 45 49 51 53 55 56 59 60 57 55 53 48 42 33 36 34 26 22 24 30 29 27 29 31 30 30
89 95 92 93 92 96 86 69 48 54 61 65 53 47 49 52 52 53 53 54 54 59 62 62 64 60 58 58 57 52 40 38 41 36 27 28 33 32 29 30 30 29 28 29
80 84 87 91 82 81 76 68 70 70 62 57 57 45 72 63 58 62 58 56 57 64 66 68 61 59 58 59 58 54 44 46 45 36 31 35 36 31 30 29 27 26 27 25
74 82 87 93 87 75 79 92 81 69 69 80 51 59 78 63 64 62 67 66 61 62 70 70 59 58 56 59 59 59 51 50 48 38 37 40 38 34 32 28 27 26 24 17
84 91 74 75 81 93 90 95 91 77 68 83 90 82 94 74 70 70 70 60 58 64 64 57 56 54 54 59 62 63 57 51 50 45 44 44 38 34 30 29 27 23 16 12
80 80 69 74 79 84 98 93 95 95 88 89 87 93 89 88 90 77 63 57 58 54 55 53 54 53 54 57 61 60 55 52 55 52 47 41 36 33 30 27 24 16 10 10
62 75 79 77 86 88 90 92 92 90 90 92 92 92 97 89 80 68 63 58 54 52 51 52 51 48 52 55 58 58 55 58 58 48 40 36 34 32 30 26 18 11 12 21

GFSNW_500_rhum_075.txt.gz
RH
100 100 95 87 100 100 17 65 100 100 100 100 100 100 99 34 33 30 28 46 85 96 87 66 100 66 67 58 75 74 74 70 64 51 47 43 63 65 51 58 52 92 95 95
97 100 73 92 100 60 91 100 100 100 100 100 100 100 62 30 38 28 30 43 66 82 62 50 68 70 56 52 70 71 64 64 59 51 47 42 37 36 48 44 41 48 40 59
93 100 65 99 100 100 100 100 100 100 100 94 96 31 22 29 35 32 33 38 46 51 60 46 53 60 55 46 39 47 47 47 37 47 51 54 57 40 32 32 36 54 60 54
93 100 59 100 100 100 100 100 100 100 100 99 94 16 24 30 31 26 29 38 40 38 37 38 46 49 53 34 31 39 34 28 28 29 44 46 46 47 48 44 43 42 38 40
82 94 92 91 99 98 100 100 100 100 100 100 16 12 22 42 27 27 24 32 39 36 32 28 26 27 28 25 20 20 23 19 13 26 36 43 49 54 52 53 54 52 51 55
73 74 99 95 96 98 89 97 90 99 100 24 11 15 26 41 34 30 21 24 30 31 32 30 26 23 20 20 16 17 20 23 20 27 32 38 42 44 44 42 42 42 34 38
76 96 90 85 82 96 100 94 88 100 27 10 10 18 23 32 35 36 25 20 20 21 24 25 24 22 21 18 16 25 28 29 26 26 30 35 42 43 42 40 38 35 34 34
90 98 72 74 97 99 100 94 100 50 10 8 11 16 16 17 17 21 22 17 19 19 18 16 15 15 16 15 15 25 23 23 27 25 23 30 32 35 36 36 29 28 28 28
99 96 83 77 96 98 98 92 33 12 8 7 8 10 12 13 12 14 14 16 19 21 22 20 20 19 17 17 20 19 22 22 21 23 22 20 29 29 30 29 31 31 27 27
88 89 87 96 95 95 90 65 11 7 6 6 5 6 6 8 10 10 11 12 14 16 13 13 14 13 15 17 16 17 18 12 12 13 12 12 12 12 11 10 10 8 6 7
96 97 99 90 88 95 66 14 7 6 5 5 4 4 5 4 5 6 6 9 8 6 6 7 6 7 8 6 5 6 7 6 6 6 6 7 7 6 6 6 6 6 6 7
90 93 97 99 97 100 55 8 6 5 5 6 6 5 5 5 5 5 5 5 4 5 5 5 5 5 5 5 5 5 5 5 5 5 5 6 6 6 6 7 7 8 8 8
72 82 91 86 86 81 23 8 5 5 6 6 7 8 8 8 8 8 8 8 8 9 8 7 7 6 6 6 7 8 8 8 9 11 10 11 12 12 12 13 14 15 15 15
78 85 80 84 89 61 16 7 6 5 6 6 6 6 7 8 8 8 9 9 9 10 10 10 11 11 13 11 13 14 14 14 15 17 18 19 20 21 21 20 19 18 17 15
70 78 70 76 80 50 17 8 5 6 6 5 6 6 6 6 7 7 8 8 9 10 10 12 13 15 16 18 20 22 21 22 22 23 25 26 27 25 22 20 18 16 13 12
69 70 69 68 78 68 28 10 5 5 6 5 5 6 6 8 10 9 9 9 11 10 11 12 15 16 19 23 25 28 32 33 33 32 30 29 27 24 23 18 16 15 14 18
59 61 56 62 76 71 33 12 6 5 6 6 7 8 10 11 10 10 13 12 15 16 17 20 23 23 25 30 34 35 38 40 38 34 33 30 25 26 22 19 17 20 27 28
63 66 62 54 66 72 42 18 9 7 6 8 11 12 19 19 17 17 22 23 24 27 26 30 33 38 39 42 44 46 46 45 42 38 34 28 31 28 24 21 22 30 31 28
58 57 59 63 63 75 49 28 13 9 8 11 16 21 26 38 32 28 31 35 33 34 36 43 45 48 48 50 54 53 51 50 47 43 34 34 37 35 28 27 32 35 34 32
56 63 65 68 72 70 59 39 21 14 15 16 25 40 46 42 35 38 42 41 40 41 44 48 48 52 52 54 53 53 53 54 52 46 36 40 44 38 32 33 39 41 39 34
48 61 70 74 77 74 68 52 34 30 25 32 38 45 58 41 40 44 46 45 46 49 48 49 56 58 54 49 48 48 51 53 54 50 45 47 48 43 39 42 46 44 39 34
57 70 72 72 75 73 66 58 40 37 33 35 46 57 60 49 47 48 51 53 58 55 53 56 59 54 48 42 42 46 49 51 54 57 54 54 52 50 50 51 45 41 36 33
53 64 67 68 70 62 52 58 54 49 37 38 45 58 61 55 58 84 62 62 60 62 58 59 54 48 43 39 42 44 45 48 53 59 62 58 54 57 59 47 40 36 34 29
48 55 62 68 53 55 67 75 76 66 54 44 71 71 83 80 58 67 78 69 68 61 60 58 50 45 43 40 43 43 42 43 49 55 60 56 59 60 47 38 38 37 33 24
55 57 60 54 56 66 76 77 85 80 64 68 81 67 76 91 69 78 95 77 72 65 58 53 49 44 40 38 38 37 38 40 44 50 54 57 55 46 40 41 40 37 28 20
61 56 47 57 66 78 88 93 87 89 86 85 80 70 78 87 87 95 94 91 79 63 57 54 47 38 34 36 37 38 37 40 44 48 52 52 48 43 43 43 41 31 22 14
58 54 54 63 73 87 90 91 93 90 90 90 84 74 74 87 89 90 89 84 72 63 58 52 41 34 34 37 38 38 38 41 44 49 54 54 49 49 43 41 38 27 13 12

GFSNW_500_rhum_078.txt.gz
RH
98 100 100 100 90 80 96 37 49 58 52 91 100 100 49 32 35 44 71 79 91 73 83 90 73 67 81 69 56 71 87 58 53 51 45 54 56 57 64 82 94 96 95 84
100 99 100 100 78 80 100 54 72 99 100 100 100 86 40 41 34 45 82 89 76 69 76 73 68 64 68 65 65 68 58 54 43 42 42 37 40 40 38 41 44 72 78 82
100 90 100 60 50 61 85 100 100 100 100 93 46 39 38 33 31 55 72 86 61 67 56 53 47 49 69 63 53 57 60 62 61 53 42 35 34 31 32 32 32 34 29 33
100 68 83 89 100 100 100 100 100 100 98 39 42 35 38 30 35 53 51 73 49 51 56 43 40 45 55 49 43 40 36 35 48 56 56 49 47 43 31 27 28 24 35 25
87 82 68 95 94 96 95 88 98 100 32 31 34 39 43 26 39 43 40 40 47 38 42 44 31 22 19 18 18 18 18 18 27 45 48 51 50 50 54 53 43 30 24 20
86 87 88 88 83 95 85 80 92 53 24 28 26 29 24 22 36 44 39 36 32 30 34 34 26 22 21 18 25 29 24 20 24 23 33 36 37 36 38 40 38 40 37 38
82 79 82 95 86 82 98 88 74 18 18 23 17 19 18 19 25 38 38 36 33 29 27 25 23 22 21 19 16 26 29 26 25 27 24 24 30 33 34 33 31 31 31 33
61 74 87 69 90 95 92 66 12 13 11 12 15 14 14 14 15 20 30 28 29 31 30 26 22 18 18 19 16 21 20 23 26 27 24 25 30 28 30 25 25 25 24 23
59 63 78 80 94 97 66 14 7 8 10 12 12 11 10 12 13 15 15 16 16 19 18 17 15 18 14 14 14 18 17 17 17 18 18 18 18 17 16 14 15 11 11 9
66 72 87 94 95 55 15 7 6 7 10 10 8 8 8 9 10 11 13 14 16 16 15 15 14 12 13 11 11 10 8 9 8 7 7 8 7 6 5 7 8 6 5 4
64 77 90 93 78 26 7 6 5 5 6 7 6 5 5 6 6 6 7 9 9 9 9 8 7 7 6 5 5 5 5 4 4 4 4 5 6 6 6 6 5 5 6 6
72 79 79 77 43 9 5 5 4 4 5 5 5 5 5 5 6 7 6 6 5 6 5 5 5 5 5 5 6 6 5 6 6 6 5 6 5 5 6 7 7 8 9 11
56 64 70 54 26 7 5 5 5 5 5 5 6 6 6 7 7 7 7 7 6 7 6 6 7 7 7 8 8 10 12 11 11 13 14 15 16 17 18 20 20 19 18 18
52 52 56 41 14 6 5 6 7 7 8 8 8 10 11 11 11 12 11 9 10 10 10 11 12 12 14 14 16 18 19 21 20 21 21 22 24 24 25 25 24 23 23 21
46 41 42 33 11 5 4 5 6 6 7 7 8 8 9 9 9 9 9 9 10 11 12 12 13 15 17 19 22 24 26 28 31 32 32 32 31 30 30 28 30 30 26 22
38 39 35 21 11 5 4 4 5 6 6 6 6 8 9 9 9 8 10 11 14 15 20 19 18 19 22 25 32 34 35 37 38 39 40 39 36 36 32 33 35 32 29 24
33 33 33 31 19 7 5 5 6 6 6 6 6 9 14 14 19 22 22 19 18 20 26 26 29 30 32 38 41 44 45 47 47 46 46 43 44 39 36 38 39 39 35 29
29 28 34 36 38 17 6 6 5 5 5 6 9 11 18 24 30 27 28 30 33 34 33 31 34 42 44 45 46 48 49 48 46 46 47 48 47 43 39 44 45 44 39 38
27 32 31 31 32 39 16 9 7 6 6 6 9 13 15 24 36 39 36 40 40 40 42 44 44 44 46 50 52 52 46 43 40 42 44 48 51 49 46 48 51 51 50 55
28 28 31 36 31 31 34 28 20 11 8 9 10 14 25 32 40 40 39 42 41 41 47 49 46 46 48 51 50 42 38 36 35 37 40 44 50 57 58 57 56 55 60 60
35 33 33 39 41 39 38 31 27 26 14 12 15 22 27 37 49 47 40 45 47 49 53 54 51 51 52 51 46 40 34 34 35 35 38 40 47 53 57 59 58 61 58 44
40 34 33 37 42 40 36 36 40 43 32 21 23 26 34 45 56 55 47 50 56 59 58 58 58 52 50 48 42 41 38 35 36 36 36 38 42 46 52 56 59 54 47 47
42 37 33 30 31 35 38 49 69 69 53 37 32 35 37 42 52 60 54 62 68 65 64 64 62 53 48 45 43 38 34 34 35 36 36 36 40 43 49 54 56 53 55 47
40 36 32 32 27 28 42 59 64 72 73 47 37 44 54 50 60 66 60 75 70 72 77 71 67 55 51 46 41 32 33 34 33 35 36 38 42 46 51 58 60 62 49 34
19 30 34 34 40 38 47 64 66 69 72 72 52 46 51 54 56 68 76 92 78 82 88 82 75 58 52 47 34 31 33 32 32 35 37 40 44 49 58 61 61 47 37 25
7 18 28 41 49 49 56 65 69 64 71 76 79 70 60 55 60 69 68 84 90 92 84 81 71 58 56 48 34 34 32 30 33 37 40 44 45 50 58 58 45 39 27 14
12 6 24 45 47 61 70 70 82 73 68 81 85 89 74 66 68 70 69 85 93 91 87 82 66 59 58 45 38 33 31 31 33 37 41 43 45 52 54 44 41 29 18 5

GFSNW_500_rhum_081.txt.gz
RH
100 93 98 86 100 99 99 100 70 99 98 99 100 100 100 46 67 90 79 73 72 69 100 97 88 72 98 98 90 91 100 95 93 95 85 92 99 97 97 91 86 78 75 69
72 75 95 95 78 85 65 65 65 93 100 99 100 94 40 64 90 97 96 66 70 96 91 78 68 59 57 60 64 60 53 52 56 52 52 53 53 56 76 80 85 83 71 62
38 42 63 74 75 84 94 99 93 88 94 98 94 42 54 68 88 98 86 75 92 89 81 76 60 63 48 49 50 55 50 50 50 52 44 41 38 35 37 42 49 57 54 66
85 88 86 94 97 93 89 96 94 94 100 73 42 45 49 56 76 77 67 72 67 68 56 56 47 34 35 41 46 53 51 52 53 51 38 32 29 29 28 27 31 32 32 31
56 71 86 99 100 98 99 92 40 50 68 44 38 41 47 54 77 66 74 72 61 47 49 54 34 17 18 18 19 24 34 42 47 48 47 35 29 25 22 23 23 23 29 29
77 97 99 100 100 88 29 23 29 32 38 39 35 44 52 48 58 58 52 51 48 36 31 23 20 17 20 26 20 18 24 26 30 31 38 42 42 41 40 32 24 24 24 26
83 97 100 100 87 19 20 20 30 32 31 30 39 50 48 43 42 39 36 44 45 42 28 24 20 19 17 16 22 20 19 20 20 19 20 22 23 24 25 24 24 24 24 25
74 82 100 94 18 12 11 12 16 20 18 20 26 34 35 29 28 29 29 29 28 27 25 22 21 19 18 19 17 19 18 23 20 24 23 21 22 24 24 24 24 24 20 16
65 74 53 16 7 6 6 7 8 10 12 13 16 21 24 26 29 31 31 29 28 28 24 21 17 16 13 14 14 14 16 14 16 15 13 13 10 10 11 10 12 10 7 6
41 29 13 6 4 4 4 4 5 6 8 8 9 10 10 10 12 12 14 15 20 19 17 14 11 10 10 10 10 10 8 7 7 5 5 5 5 4 4 6 6 6 5 6
14 10 5 4 3 3 3 3 3 4 4 5 5 5 6 6 6 7 8 9 9 9 10 10 9 7 6 6 5 5 5 4 5 5 5 5 6 8 8 8 7 7 7 6
8 5 4 4 3 3 4 5 6 6 5 5 6 6 6 6 6 6 6 6 6 6 6 6 5 5 6 8 9 8 8 10 9 9 11 10 12 11 13 16 16 18 18 19
6 4 4 4 4 4 5 6 7 9 9 10 10 12 13 12 11 10 9 10 10 9 9 10 9 11 12 13 16 14 17 18 19 20 18 19 21 22 23 24 24 25 25 26
8 7 6 6 6 6 8 8 11 14 16 16 16 16 14 13 13 14 12 12 13 13 14 14 15 16 16 20 22 24 25 27 28 30 31 32 32 33 33 33 33 34 33 32
12 9 8 8 8 9 10 10 11 12 12 12 13 12 12 10 10 12 13 13 16 18 18 20 19 23 26 28 30 32 35 36 36 37 36 38 37 38 38 38 39 38 36 38
14 15 10 8 7 7 8 9 10 9 9 9 11 19 20 19 15 14 19 20 21 25 30 31 30 33 34 35 39 38 36 36 34 33 33 32 33 35 35 37 38 39 40 42
16 17 19 16 8 6 6 6 6 8 8 9 12 17 22 30 36 33 31 36 33 37 37 36 38 39 38 40 41 37 37 32 29 28 26 27 28 30 31 33 34 38 42 44
20 16 16 18 24 8 6 5 5 6 6 6 9 14 17 22 29 36 39 37 40 42 42 43 43 42 40 41 42 39 35 28 25 24 23 24 26 28 31 32 33 36 39 43
28 26 29 20 18 22 15 10 5 6 5 5 5 6 13 21 24 32 40 40 40 40 42 45 48 46 43 42 42 43 38 31 27 26 26 26 27 28 31 32 34 36 39 43
25 32 31 29 31 23 20 22 14 14 8 7 6 7 9 16 25 30 40 44 39 40 43 47 50 52 49 46 44 40 36 35 33 31 29 28 29 30 32 33 36 39 42 46
18 24 31 34 30 32 30 21 22 23 25 26 19 10 9 13 21 34 40 47 46 43 44 50 55 56 54 51 44 42 40 39 34 30 30 30 29 31 32 34 37 40 43 45
7 21 25 28 36 34 34 28 32 36 32 33 39 29 13 14 19 26 35 47 52 48 51 62 63 63 64 62 50 46 45 42 34 30 30 28 28 29 31 36 39 42 44 45
10 7 16 22 32 41 33 32 40 40 37 40 43 48 35 20 22 28 33 38 46 53 52 64 68 71 72 72 59 48 49 43 34 32 28 26 28 28 32 38 39 43 45 42
19 12 7 11 19 32 39 40 39 42 45 48 48 51 59 49 28 28 32 38 44 50 60 86 89 80 78 78 66 52 54 44 36 32 28 27 27 31 35 37 38 42 42 42
34 24 15 9 6 13 28 41 40 38 40 57 59 54 60 71 61 35 33 39 46 52 64 90 92 86 82 81 66 55 55 46 38 33 29 28 31 34 36 38 41 42 42 31
41 38 26 16 10 7 10 31 43 47 43 47 66 67 58 64 67 64 54 43 44 51 69 78 83 90 87 84 68 58 56 46 39 36 31 31 34 38 40 42 44 43 36 24
40 48 32 22 13 8 7 15 46 58 64 65 81 83 75 59 60 67 79 66 47 57 76 85 86 88 94 90 73 61 58 45 43 41 36 36 38 40 42 45 45 41 29 20

GFSNW_500_rhum_084.txt.gz
RH
46 40 36 57 32 32 22 20 26 85 100 100 100 100 100 99 85 82 80 97 69 73 89 67 72 85 88 99 95 100 100 97 100 99 100 94 96 90 86 79 84 85 95 80
100 100 97 80 48 40 63 95 52 95 100 99 98 100 78 77 84 87 81 88 100 100 94 97 99 100 92 100 100 97 92 88 79 89 92 91 88 86 82 70 64 59 51 48
100 100 100 100 100 95 88 100 86 85 75 79 65 64 90 98 100 80 95 98 97 98 94 88 67 88 71 59 62 65 72 66 59 60 55 49 56 65 74 66 63 52 47 48
100 73 47 56 99 95 100 99 90 66 50 51 75 93 100 99 66 77 81 86 78 70 70 65 49 57 48 45 36 36 37 38 39 39 37 38 35 40 41 44 42 39 42 51
94 23 17 19 25 38 49 83 76 35 56 76 81 80 85 69 59 55 59 56 60 48 50 42 38 25 31 31 35 40 39 33 24 21 24 28 27 28 28 31 34 38 36 35
48 14 15 17 20 20 24 30 26 45 60 62 67 77 52 45 44 52 50 40 40 24 19 18 23 22 17 17 21 27 31 31 29 27 28 28 26 22 20 19 18 17 14 15
5 6 8 9 12 13 14 17 28 43 47 50 53 45 44 41 44 39 36 43 27 19 21 21 20 19 19 21 16 19 18 17 19 22 18 21 17 19 18 18 18 16 15 13
3 3 4 4 4 5 7 11 22 16 16 17 19 19 17 19 24 30 26 33 26 24 23 21 20 16 16 17 16 16 16 14 13 13 12 13 15 14 14 13 13 12 10 8
2 3 3 3 3 3 3 5 6 9 13 12 15 15 15 15 16 19 23 27 23 20 18 17 13 12 11 10 10 10 10 9 8 7 6 6 5 4 4 5 7 6 6 6
2 2 3 4 4 3 3 4 4 4 5 7 9 10 12 12 11 11 14 11 12 14 12 9 8 8 8 7 6 5 5 5 5 5 5 7 7 7 8 8 8 10 10 10
3 3 3 5 7 8 8 7 5 4 4 4 5 5 6 6 6 6 7 7 7 7 6 6 6 6 6 6 6 7 8 7 9 10 12 12 13 13 14 16 18 20 20 22
3 3 4 6 7 9 10 12 12 11 10 8 7 6 6 6 6 6 6 6 7 7 8 9 9 11 11 13 13 15 16 19 20 20 22 21 22 24 26 26 26 26 26 26
3 3 4 5 5 6 9 14 18 19 18 19 19 16 13 13 13 12 14 13 13 14 15 16 17 16 19 22 22 24 27 27 28 27 27 27 28 27 26 25 26 22 22 24
4 4 4 4 6 9 10 15 20 21 22 21 19 18 17 15 16 14 15 15 19 20 23 23 23 26 29 29 28 30 30 29 29 27 25 23 21 21 21 21 19 19 20 20
5 6 7 8 10 12 13 15 16 16 16 18 21 23 27 27 25 23 25 28 29 32 32 33 30 30 32 32 31 30 28 24 21 18 17 17 17 18 18 18 19 19 20 21
12 10 8 9 9 10 13 13 14 12 12 13 16 24 26 32 36 40 37 38 38 39 38 34 33 33 34 34 34 32 26 21 18 16 16 17 18 18 19 20 21 22 22 23
20 16 16 13 11 9 9 10 11 10 10 9 12 18 20 23 26 33 37 38 38 39 40 40 40 41 41 40 37 34 31 25 20 18 18 19 20 21 22 22 22 24 24 25
24 29 22 18 19 16 14 12 8 6 6 8 7 7 10 13 18 23 27 36 38 36 37 38 41 44 45 44 40 36 34 30 26 25 25 25 22 22 21 21 23 24 24 26
22 26 31 24 26 24 20 18 19 17 8 5 6 5 5 5 9 16 23 29 32 36 37 37 38 41 46 49 45 40 37 35 35 35 33 26 22 23 21 22 23 23 26 29
12 20 21 24 29 29 28 25 21 20 22 18 9 6 6 6 7 9 14 22 29 32 40 39 40 43 48 53 56 56 50 42 41 41 40 28 26 24 22 23 24 25 28 32
7 6 10 14 23 30 31 32 27 25 23 26 31 24 22 20 16 12 10 12 18 22 33 39 44 50 55 62 63 65 66 59 48 46 46 35 31 27 25 25 25 27 31 35
18 12 9 9 9 14 22 24 29 30 28 29 34 35 36 37 38 32 21 14 13 15 23 29 45 53 54 66 74 76 77 76 64 52 52 44 36 30 28 27 27 29 32 37
27 24 16 11 11 8 6 11 20 29 36 35 36 42 47 51 52 49 47 31 20 19 20 28 41 52 66 75 90 88 86 81 75 61 57 52 39 33 32 31 31 32 36 40
33 35 29 16 12 12 9 6 9 14 25 35 41 40 40 40 48 61 62 61 53 39 27 25 33 46 66 83 91 96 96 94 81 67 62 58 43 39 38 37 36 34 40 44
41 37 39 32 20 17 15 14 10 7 6 15 39 46 43 39 37 37 53 64 68 73 69 38 28 33 48 77 81 81 96 96 95 79 69 64 47 46 48 44 38 35 43 44
45 42 41 47 30 26 26 24 20 13 9 4 7 19 35 49 56 48 42 50 82 94 95 92 57 36 39 47 58 86 96 97 97 97 89 73 52 53 56 48 38 38 47 45
47 59 59 62 49 42 40 36 25 22 18 8 8 6 26 29 47 58 67 89 90 90 95 96 97 69 44 43 49 75 91 94 99 98 97 87 60 60 62 47 40 44 50 45

GFSNW_500_rhum_087.txt.gz
RH
97 98 55 34 35 42 51 40 63 96 99 96 85 92 100 97 84 79 81 79 61 43 45 44 53 74 93 84 96 100 99 96 92 87 96 91 88 76 81 84 77 80 88 80
31 86 99 92 66 65 90 86 59 62 69 73 88 100 95 77 86 98 82 73 71 57 47 48 58 94 98 93 99 100 98 98 96 82 84 88 88 77 76 70 70 66 65 69
18 26 88 98 100 91 91 100 73 66 70 64 68 67 76 78 83 88 96 85 59 60 76 77 88 97 97 92 93 82 76 76 76 79 81 78 75 76 78 67 64 52 46 46
10 14 22 58 92 84 73 78 54 44 53 42 49 65 83 93 78 83 81 72 62 56 61 49 51 52 50 56 59 51 51 53 52 47 43 47 52 56 53 52 49 58 61 53
5 8 10 31 32 23 49 55 43 40 40 37 53 57 62 68 56 48 40 44 41 38 40 39 42 35 36 33 30 26 24 22 24 33 29 30 30 33 33 35 34 35 34 34
3 3 5 11 15 22 23 30 24 27 31 34 36 38 37 45 39 20 17 14 16 15 20 20 18 19 22 26 30 29 27 24 20 18 19 20 20 20 17 16 15 15 15 17
4 3 3 4 6 9 14 17 18 21 25 27 28 22 25 28 22 18 17 15 15 16 18 19 18 17 16 17 18 17 17 18 19 15 16 13 13 10 9 8 7 6 6 6
5 4 4 4 4 4 5 9 13 19 20 17 17 19 18 21 24 21 17 19 19 18 16 14 14 14 15 14 13 11 11 12 11 10 10 10 8 7 6 8 8 6 7 7
7 9 8 4 4 5 4 4 5 7 9 10 13 16 18 20 20 19 20 17 16 14 14 10 10 9 10 9 8 7 7 6 6 6 7 7 7 8 8 9 9 12 14 16
6 8 8 10 9 7 6 5 5 5 5 6 6 7 9 10 11 10 10 10 10 10 8 7 7 7 7 6 6 6 6 8 9 11 10 10 12 15 16 18 19 22 24 25
4 6 5 5 10 13 13 13 12 9 9 7 6 6 6 6 7 7 7 8 7 7 7 7 8 10 11 12 14 14 18 18 19 19 22 20 24 23 25 25 26 24 20 20
3 5 5 4 6 12 16 19 20 21 20 18 17 15 13 11 10 11 12 12 13 14 14 15 17 20 21 23 23 24 24 26 26 24 22 23 21 19 18 15 14 15 14 14
3 5 6 4 7 11 15 20 24 25 25 25 24 23 20 20 19 21 20 22 21 24 25 24 26 23 26 28 25 26 25 21 20 20 18 17 16 15 14 14 13 14 15 15
4 4 5 5 8 11 16 17 18 22 26 29 31 32 32 34 34 32 32 32 31 31 30 29 29 29 30 29 27 22 18 16 14 14 13 15 16 16 15 16 16 16 17 17
7 6 4 5 8 10 13 16 17 16 18 19 24 31 34 34 34 35 35 35 34 32 30 28 29 30 31 32 31 29 26 20 17 16 14 14 15 16 17 17 18 18 18 18
16 10 9 8 9 10 11 12 13 14 13 12 18 20 21 26 30 35 35 35 34 35 36 35 36 38 41 40 37 34 30 27 24 20 19 20 21 20 18 19 20 19 19 20
14 18 18 16 13 12 10 11 11 11 9 10 10 10 14 16 17 20 24 28 35 35 35 36 35 36 38 45 45 38 34 32 30 29 29 30 31 28 22 20 22 21 22 22
7 15 18 19 22 21 21 14 11 9 9 7 6 7 8 7 6 7 11 17 25 28 34 36 36 38 38 40 46 48 49 47 43 38 37 37 37 35 27 24 25 24 24 24
6 6 13 17 19 24 26 25 22 19 17 11 10 7 5 6 6 6 5 8 12 16 23 29 34 42 42 41 44 50 55 60 61 60 52 47 44 44 39 30 30 27 27 27
15 9 5 6 12 18 23 26 27 26 27 24 25 22 19 16 10 7 7 7 8 8 10 14 20 37 43 45 48 54 62 65 70 71 71 69 61 52 50 44 37 31 30 31
24 16 13 10 7 6 8 18 27 31 28 29 31 35 35 35 36 34 32 24 19 15 12 10 13 24 38 45 49 54 60 69 80 80 78 77 75 67 58 56 47 37 36 38
33 25 19 16 13 11 8 6 10 18 30 31 31 32 31 30 27 26 26 28 28 31 30 30 28 18 21 32 40 49 57 75 96 93 92 89 85 80 71 65 58 44 43 47
46 36 28 23 21 18 14 10 7 10 12 22 21 22 22 25 28 30 33 32 36 42 48 62 76 75 44 24 27 37 48 66 89 92 97 98 98 97 92 84 79 58 53 56
59 49 39 33 30 28 24 22 15 11 10 7 8 8 9 10 12 17 24 30 36 39 37 48 64 69 82 77 34 28 32 42 59 68 67 73 96 96 97 99 98 79 70 68
71 56 55 46 41 38 29 27 29 21 19 18 13 8 8 8 7 9 10 19 33 47 49 50 46 63 79 84 93 79 49 37 39 42 49 59 89 98 97 97 98 95 88 82
78 59 73 74 60 49 45 34 40 37 31 27 21 18 14 11 9 7 8 9 22 34 51 57 60 66 78 82 90 99 100 98 88 74 54 55 81 97 99 100 99 99 94 91
58 80 92 90 82 67 56 56 54 51 47 42 35 32 25 12 10 11 11 11 12 29 50 61 67 84 78 71 77 82 90 100 100 99 98 97 98 100 100 100 99 100 99 98

GFSNW_500_rhum_090.txt.gz
RH
90 89 88 80 54 50 70 100 52 66 67 64 80 84 80 64 58 46 38 32 33 43 47 57 70 82 74 91 92 94 88 83 92 100 98 94 95 86 90 100 98 91 93 92
44 72 92 97 79 60 78 90 75 72 70 62 75 76 78 80 80 64 26 33 43 51 60 68 87 69 81 86 95 96 84 80 85 91 92 74 80 77 82 82 77 78 75 87
10 16 31 38 38 44 89 61 40 48 52 56 68 74 66 44 40 34 37 37 42 46 62 81 76 78 90 93 85 82 79 75 83 80 77 81 70 58 52 43 53 60 54 60
5 8 12 15 19 30 40 40 53 62 66 64 66 68 78 71 60 61 69 66 69 58 69 72 71 72 75 68 56 50 53 50 50 54 56 55 51 44 40 41 40 37 47 45
6 5 7 12 17 21 31 39 33 40 42 46 39 35 50 57 45 40 42 46 46 44 36 45 37 44 40 34 30 32 35 40 42 34 35 34 34 35 33 32 31 28 30 30
6 6 6 6 7 10 15 19 17 19 22 24 25 22 22 23 23 25 30 23 16 14 18 20 21 22 18 17 15 15 15 13 13 13 14 13 13 13 12 13 12 11 8 6
7 8 7 6 6 5 7 10 12 12 14 12 14 16 16 15 14 13 13 13 15 16 14 14 17 17 16 15 16 15 15 14 12 11 11 8 7 8 8 7 6 6 6 6
9 10 11 10 7 7 7 6 7 8 11 14 16 16 16 16 16 18 16 15 15 14 13 13 12 11 10 10 9 9 8 9 8 7 7 7 7 7 9 10 11 12 15 19
9 10 11 12 13 9 9 9 8 7 7 8 8 10 12 14 16 13 12 11 10 8 8 7 7 6 7 6 6 6 6 6 7 8 8 8 12 15 16 16 19 22 23 22
6 8 12 13 14 15 15 12 11 9 9 9 8 7 7 8 8 8 8 8 8 8 8 8 8 9 10 10 10 11 12 13 14 18 17 18 22 22 20 21 21 20 16 13
6 5 9 13 16 16 18 19 19 18 17 15 15 13 10 11 11 11 11 11 12 13 14 16 18 19 19 20 22 22 24 24 26 25 24 23 24 22 19 18 16 14 14 15
7 6 6 12 14 19 21 22 23 23 25 23 22 22 23 21 21 20 21 21 22 23 21 23 22 25 26 26 26 26 25 25 24 22 21 18 17 16 15 14 14 14 15 16
4 6 5 8 14 17 20 24 26 25 26 27 29 29 29 29 29 30 27 27 28 27 28 28 28 28 28 27 24 23 20 18 16 15 15 16 17 17 16 16 18 17 17 16
3 4 6 5 9 14 17 19 21 23 26 29 31 33 34 34 35 37 38 37 35 33 31 29 29 30 32 32 31 27 23 18 15 16 16 14 15 15 16 16 17 19 20 18
13 5 4 5 6 10 14 17 18 17 17 21 25 29 32 31 32 31 31 33 33 35 36 38 38 38 40 40 36 34 29 26 24 21 20 20 20 22 23 23 21 19 20 22
11 17 13 7 5 7 11 12 16 15 14 13 14 19 22 23 25 25 26 28 32 33 31 32 33 34 37 40 42 42 38 33 32 30 29 29 29 31 32 32 30 26 21 23
5 9 16 18 12 11 9 11 12 13 14 13 13 11 10 11 12 14 14 16 19 23 28 32 34 36 37 38 38 40 42 45 48 48 46 43 41 41 41 41 40 38 29 25
10 9 7 8 13 16 17 13 14 12 11 12 12 9 8 9 8 7 6 6 6 8 11 16 20 28 35 38 32 41 41 44 50 56 58 59 60 60 58 57 53 50 49 43
16 13 12 9 6 6 8 13 18 22 19 15 20 18 13 10 8 6 6 6 6 6 6 7 8 10 16 21 32 40 44 46 50 59 62 65 72 76 74 73 75 72 62 58
33 21 15 12 6 9 7 7 8 11 20 22 23 25 26 27 26 19 15 13 14 12 12 15 18 21 14 10 11 18 31 44 48 55 64 68 81 91 94 93 90 89 85 79
68 39 27 18 11 12 9 8 6 6 7 8 17 25 26 27 29 29 25 21 17 17 20 23 26 31 36 43 43 22 17 30 40 47 52 56 73 88 88 93 97 96 98 97
79 71 41 29 19 15 14 14 12 10 6 5 6 11 18 24 25 25 23 22 19 19 16 23 29 32 35 44 60 67 40 23 26 32 39 43 52 71 71 73 66 72 99 99
87 75 72 49 31 23 19 18 17 19 12 11 8 7 7 10 9 9 11 10 11 10 12 14 18 28 37 42 44 54 71 86 80 58 40 34 40 47 43 41 67 93 97 99
91 92 78 70 55 35 27 24 24 23 21 18 12 11 10 9 9 9 10 10 9 10 9 9 10 9 19 49 52 47 57 66 70 84 91 94 95 91 97 97 96 99 100 100
100 95 75 70 72 65 43 36 35 34 29 25 20 19 18 13 10 12 11 9 12 18 14 12 10 7 9 23 53 54 50 62 75 86 89 91 93 96 99 98 98 99 100 96
97 88 72 99 96 79 76 53 44 44 42 36 35 32 28 23 21 21 18 12 14 21 13 16 7 8 9 14 31 52 59 70 77 79 86 92 99 99 100 97 97 100 98 99
74 59 99 100 100 88 77 75 66 60 52 49 44 48 46 41 36 32 25 22 19 26 16 21 12 18 13 13 16 23 35 48 57 71 84 97 100 100 100 97 99 98 98 99

GFSNW_500_rhum_093.txt.gz
RH
19 27 31 34 60 69 70 79 70 69 78 76 82 68 50 72 83 53 41 38 49 59 70 89 90 72 71 83 84 86 97 98 99 99 92 91 94 97 97 94 100 99 99 100
15 19 25 28 36 44 52 62 60 59 60 55 44 38 33 30 30 33 49 58 73 78 87 70 75 78 85 89 91 88 81 83 90 83 70 63 68 66 74 84 86 90 98 95
6 10 17 24 30 35 55 54 42 46 46 38 33 32 28 32 45 54 49 51 75 83 73 68 78 89 92 90 79 72 72 71 63 58 43 46 36 42 36 40 45 49 48 62
5 6 8 11 17 24 33 36 38 37 40 34 34 37 38 41 45 56 66 64 66 70 70 72 78 68 57 51 53 50 48 46 43 38 36 31 20 16 18 25 32 27 28 31
9 5 5 6 8 10 14 18 20 21 23 30 32 35 36 34 30 34 41 49 55 56 50 52 50 45 37 34 34 31 28 25 26 31 30 30 26 24 20 22 18 14 16 16
11 10 7 5 5 7 7 10 13 15 16 17 17 18 16 14 14 14 16 19 21 17 19 22 25 22 21 20 23 23 18 13 10 9 9 9 10 10 9 9 9 7 6 6
13 13 10 9 8 7 6 7 8 10 10 10 11 11 11 12 13 14 14 14 14 15 16 15 13 12 11 11 10 10 9 9 9 7 7 6 6 6 6 7 8 9 9 11
13 14 14 12 10 10 9 8 7 7 8 8 9 10 10 10 12 13 14 12 11 9 9 8 8 7 7 7 7 8 7 6 7 7 8 8 8 10 11 14 16 20 23 24
11 13 14 15 14 13 10 8 11 11 10 8 8 8 8 9 9 9 9 8 8 8 7 7 7 6 6 7 7 7 8 9 11 10 14 16 20 20 19 18 21 23 22 20
7 12 14 15 17 18 18 17 14 16 16 16 14 12 10 10 10 10 9 10 11 12 13 14 15 16 17 18 20 21 21 21 22 22 19 18 21 19 18 17 17 14 13 14
6 8 12 14 16 19 20 21 21 21 22 22 23 23 22 22 21 19 19 17 17 19 20 21 24 23 22 23 22 22 21 21 20 20 20 21 16 16 14 14 13 14 14 14
6 6 8 13 16 18 22 24 21 23 24 25 26 26 28 26 26 25 26 26 26 26 26 28 28 28 28 25 23 21 20 16 15 16 18 17 18 18 18 18 18 18 18 18
3 6 6 8 13 18 21 23 25 26 26 27 28 31 31 33 34 34 30 26 28 28 28 29 30 30 31 32 30 27 23 19 16 16 16 14 14 16 16 16 16 17 17 18
10 4 6 6 8 13 17 20 20 21 24 28 31 32 33 34 37 37 37 36 35 34 34 36 38 38 38 40 38 34 28 25 23 21 20 19 20 20 21 22 23 25 26 25
6 13 7 5 6 6 11 16 18 18 17 20 24 29 29 32 34 35 35 36 36 36 35 36 36 36 36 38 38 37 37 34 32 32 31 30 29 28 29 30 32 33 33 34
10 6 14 15 6 5 5 7 10 15 17 16 16 15 17 21 23 24 23 24 24 26 28 31 34 33 34 37 38 32 35 39 39 41 42 45 46 45 44 42 42 44 46 48
22 8 7 8 17 14 10 8 6 10 12 14 16 15 13 13 13 12 11 12 12 11 10 9 15 17 19 22 30 29 33 38 42 43 45 50 52 58 61 66 68 70 72 74
51 23 10 9 7 11 14 15 15 12 10 11 11 12 13 12 12 11 9 8 8 7 7 6 6 6 7 8 9 10 13 18 29 39 42 45 51 57 64 69 74 83 88 93
68 50 26 13 11 8 7 6 7 8 10 10 18 18 14 11 11 12 11 10 9 8 7 7 8 12 12 14 18 19 23 27 24 16 17 31 42 46 55 65 67 71 85 91
63 70 52 30 16 12 10 9 8 7 6 6 7 13 20 18 19 18 15 15 16 15 16 17 19 21 21 19 19 19 21 28 35 49 46 26 32 41 44 45 46 51 58 72
64 67 74 57 37 23 14 11 12 10 9 7 7 6 6 13 14 16 16 17 16 16 18 19 16 20 18 16 13 15 19 23 33 43 62 65 51 47 40 39 43 58 74 81
68 68 75 75 64 48 36 22 14 12 13 12 7 6 6 6 6 7 8 9 8 9 11 11 10 10 9 9 8 9 11 17 35 45 56 69 82 78 77 88 90 97 100 100
94 95 86 72 71 56 51 46 24 16 15 16 15 11 9 8 9 8 8 8 8 9 11 10 10 11 13 13 6 10 8 10 29 45 47 50 66 84 91 94 99 100 100 96
98 94 93 98 62 54 70 70 54 35 24 20 20 19 16 13 11 10 9 10 12 13 13 12 17 19 19 18 11 10 8 10 13 24 35 44 52 57 67 73 76 84 83 88
100 92 77 53 79 100 100 91 77 65 49 32 27 26 25 22 18 15 14 12 12 17 19 16 17 22 24 15 12 23 11 10 12 13 16 20 28 37 39 43 47 48 67 88
99 81 64 68 100 100 98 100 90 80 73 58 45 37 34 31 29 25 25 23 20 25 27 27 22 27 26 29 21 31 29 16 20 15 17 19 25 28 25 23 24 25 42 62
92 67 66 84 100 99 95 98 100 93 85 77 68 58 50 44 42 38 40 39 38 36 35 36 36 37 43 41 42 43 43 46 43 38 37 40 45 51 55 56 49 40 34 36

GFSNW_500_rhum_096.txt.gz
RH
15 17 15 20 29 41 48 48 42 46 28 29 23 28 37 55 55 37 39 46 58 63 67 71 86 82 68 68 77 88 89 93 91 90 78 78 81 89 90 94 100 95 97 97
9 14 18 19 17 18 21 24 28 32 40 42 36 42 42 39 40 53 72 68 69 75 75 76 84 82 78 78 87 89 86 81 78 68 56 54 56 53 47 50 58 76 86 90
6 9 13 19 22 24 24 24 27 29 31 36 43 50 56 57 63 79 87 77 69 66 67 82 88 82 74 65 64 66 62 53 38 34 31 28 24 20 30 28 32 37 43 50
5 5 7 10 14 15 17 24 30 35 38 42 48 55 64 72 75 72 65 54 63 78 80 65 53 50 53 54 50 44 38 27 16 11 12 13 12 15 15 14 13 20 21 19
10 6 5 5 6 9 10 11 13 17 19 23 29 36 40 46 51 53 52 48 51 52 46 40 36 34 33 34 26 23 19 14 13 12 12 9 9 9 8 9 9 9 10 10
12 12 8 7 6 5 6 7 7 8 9 10 11 12 16 17 17 16 16 18 23 25 23 24 21 19 19 15 14 13 12 12 9 7 7 7 6 6 6 6 5 5 5 6
14 13 12 10 9 10 7 6 6 6 6 6 7 7 8 8 9 10 10 10 11 11 11 10 10 9 9 9 8 8 7 6 6 6 6 6 6 6 7 8 11 13 14 17
14 15 15 14 12 11 11 10 9 8 7 7 6 6 6 6 6 6 7 7 7 8 7 6 6 6 6 6 5 6 6 6 7 7 8 11 12 13 15 17 19 22 20 19
13 15 17 17 16 15 14 13 12 12 11 10 10 9 8 8 8 8 8 8 8 8 8 7 7 8 9 10 12 12 14 15 15 14 18 19 20 18 17 17 19 17 16 16
8 14 16 17 18 19 19 20 18 19 19 19 19 18 15 15 15 14 14 15 16 19 20 21 21 20 20 21 22 22 21 22 21 20 19 16 16 15 16 15 16 15 15 15
6 8 13 16 18 19 21 22 21 22 24 24 23 23 22 23 23 23 23 22 22 23 24 24 25 24 22 22 19 18 16 14 15 17 18 19 19 18 18 18 16 15 16 16
6 5 7 11 17 18 21 23 24 25 25 24 25 25 24 25 25 25 26 27 28 29 29 30 30 31 31 30 28 24 22 18 18 17 17 15 15 16 17 17 17 17 17 17
15 7 4 7 10 16 17 22 24 27 27 28 28 31 30 30 26 23 25 25 29 30 31 33 34 35 32 34 35 32 30 26 25 25 22 21 20 20 21 21 22 22 24 26
46 19 7 5 6 7 13 16 19 20 24 26 29 33 34 33 35 33 34 34 34 34 35 35 36 34 36 36 34 31 26 29 30 30 27 30 31 31 31 30 30 30 32 34
58 47 27 7 9 4 6 7 12 16 16 18 18 21 23 28 27 30 32 34 30 30 30 30 31 32 31 35 36 32 24 31 36 37 38 39 42 44 45 48 48 49 50 51
67 60 48 35 6 9 9 5 5 5 9 14 16 14 16 14 12 15 22 24 23 22 21 20 16 14 15 15 17 22 20 15 13 15 20 27 33 39 43 47 52 57 62 73
70 71 57 48 33 8 6 11 11 7 5 5 6 11 14 16 15 14 13 13 12 12 11 9 8 7 7 7 7 8 9 10 13 16 19 21 23 22 25 31 39 45 50 58
78 71 66 53 51 24 8 6 7 9 12 11 10 8 9 10 12 13 13 13 13 12 12 12 11 10 8 8 12 16 21 21 20 18 20 26 32 39 44 34 30 35 40 47
68 70 68 62 58 51 16 10 7 6 6 6 6 8 12 14 13 12 11 10 10 10 10 9 8 10 10 12 14 15 13 10 9 7 8 11 18 29 46 63 48 35 38 40
64 64 68 64 59 61 49 22 14 10 8 8 8 8 6 7 7 7 8 10 13 13 15 16 14 16 17 16 13 11 7 7 6 10 8 8 11 28 43 53 62 75 86 88
69 71 63 63 58 56 63 53 31 18 12 10 10 9 8 7 6 6 5 5 5 5 7 8 8 12 12 10 10 8 9 6 14 14 6 7 8 19 42 53 62 61 60 64
71 66 75 69 64 55 62 60 58 46 26 15 12 11 11 10 8 8 7 7 6 6 7 7 8 10 10 10 10 11 19 15 19 24 11 13 14 10 16 22 28 32 35 42
89 75 81 77 72 52 35 51 75 81 59 39 24 16 13 14 13 12 11 11 8 7 8 8 9 11 11 11 13 19 20 24 21 29 15 15 24 17 14 15 17 21 24 23
99 93 77 82 56 42 49 63 82 90 86 78 57 34 19 16 17 17 17 17 17 16 12 10 10 13 15 17 14 19 26 29 17 23 33 20 27 31 27 28 32 40 50 62
100 93 85 53 57 54 68 91 90 88 82 84 85 70 46 33 25 22 22 23 20 19 19 20 19 15 15 20 26 23 31 37 39 44 44 45 45 48 51 53 57 61 71 73
100 90 72 56 67 81 92 100 100 97 84 75 86 92 81 71 55 43 35 33 33 26 25 25 28 29 28 28 32 36 41 47 48 51 48 46 47 49 53 57 63 70 72 74
99 86 79 75 74 87 100 100 98 100 89 81 80 79 100 86 79 78 72 69 52 40 37 34 35 39 40 43 44 47 55 58 52 52 51 51 54 57 56 58 65 70 74 78

GFSNW_500_rhum_099.txt.gz
RH
14 16 20 21 24 28 29 19 20 24 31 37 19 23 26 30 38 44 38 39 40 43 50 61 71 62 74 93 89 81 75 72 64 59 63 68 62 62 72 89 96 97 95 98
10 11 15 20 27 27 31 32 32 38 47 29 26 28 34 38 44 48 45 49 64 80 82 68 69 90 88 88 86 80 69 58 50 41 34 29 28 32 38 39 45 54 60 77
6 8 10 13 17 22 27 33 35 42 44 46 48 44 45 45 45 52 61 64 73 74 72 76 77 77 72 67 59 48 36 25 19 19 14 13 13 12 15 16 20 25 22 22
7 6 6 6 11 12 15 23 24 30 34 38 40 38 38 48 48 50 60 65 67 59 51 52 54 53 47 39 34 25 17 13 13 11 10 11 10 10 9 9 10 10 14 13
12 11 7 6 5 7 9 12 17 20 26 29 31 42 43 42 45 48 47 45 41 36 34 32 33 32 27 21 18 13 12 10 9 9 8 7 6 6 6 6 6 7 8 6
14 13 12 10 8 6 5 6 6 8 12 15 14 15 15 15 16 19 20 21 20 17 16 15 15 14 11 10 9 9 9 8 8 6 5 5 5 5 5 5 5 5 6 7
15 15 14 14 12 12 9 6 6 6 6 6 7 7 8 9 11 12 12 12 12 12 11 10 10 9 9 8 6 6 5 5 5 6 6 7 7 8 10 10 10 12 13 14
14 16 17 16 16 14 13 12 10 8 7 6 6 6 6 6 6 6 6 6 6 6 6 6 6 5 6 6 6 6 7 8 9 10 12 13 14 14 14 14 13 12 12 12
9 15 18 19 19 18 18 18 16 14 12 12 12 11 10 11 11 12 13 13 13 13 14 14 14 15 15 16 17 18 18 18 16 16 15 16 15 15 15 15 15 15 14 14
5 8 15 18 18 20 21 21 20 21 20 20 19 19 18 18 18 19 19 20 20 21 22 22 21 20 19 20 20 19 18 18 18 18 19 19 19 18 17 19 18 15 14 14
14 6 7 12 16 18 20 22 23 22 24 24 24 23 23 24 25 25 26 25 26 28 28 29 29 29 25 24 21 20 19 18 17 17 16 17 18 17 18 18 18 18 18 18
50 18 6 6 9 12 13 18 21 26 26 25 26 28 28 28 27 25 26 27 27 28 29 30 32 33 34 35 36 31 31 29 30 30 27 26 26 25 24 23 21 22 22 21
56 53 36 9 6 6 7 9 14 22 24 26 26 29 30 34 34 35 28 31 33 34 33 33 34 35 36 34 35 31 27 32 36 38 35 37 38 40 40 43 44 45 46 47
66 60 57 47 24 12 7 6 6 8 14 20 22 23 27 31 33 33 35 37 37 37 36 35 33 28 28 33 33 30 20 20 18 20 21 23 24 24 24 25 30 37 44 50
58 68 64 61 53 38 20 9 7 6 5 7 15 17 17 17 19 21 18 23 27 28 24 22 21 22 18 16 9 7 8 7 7 10 14 17 19 21 24 28 30 28 29 32
45 50 74 71 68 58 45 29 13 9 8 6 5 5 8 12 14 15 15 14 14 15 16 16 13 11 11 10 9 9 9 10 12 15 17 16 12 13 16 18 27 42 48 39
54 53 54 68 72 70 58 54 30 18 6 5 6 7 7 6 6 7 10 13 14 15 15 14 14 13 12 12 13 14 11 10 13 15 12 9 7 8 8 9 13 22 48 54
58 56 54 54 66 75 68 58 57 39 14 8 7 6 8 11 12 12 11 9 8 9 9 10 10 10 10 11 10 11 11 12 13 10 7 7 12 13 7 7 11 14 19 40
55 60 58 63 58 58 63 61 56 52 46 26 11 8 7 8 7 6 6 6 6 5 6 8 8 11 13 13 11 11 11 12 11 8 9 9 12 16 7 8 15 12 12 22
44 42 43 47 56 58 55 52 55 54 52 48 44 16 10 9 9 9 7 7 6 5 5 5 5 6 8 8 8 8 8 9 9 10 16 11 16 24 14 24 26 17 16 18
43 41 39 37 40 42 44 45 48 49 52 53 63 54 27 18 12 10 10 9 8 7 7 8 7 8 6 7 8 10 10 11 13 16 18 23 25 30 20 18 28 32 25 28
46 41 38 37 37 35 36 32 32 40 52 55 69 65 67 60 31 16 13 12 11 10 10 10 9 8 9 9 10 10 11 11 13 15 21 26 22 20 31 29 29 39 43 51
46 50 43 38 38 32 22 24 30 50 62 64 75 68 67 76 72 47 27 16 14 14 14 14 15 13 10 10 11 12 14 16 20 20 19 29 32 37 38 42 47 50 53 60
67 74 70 51 37 26 26 27 38 55 72 79 76 80 72 82 76 70 62 44 31 18 16 17 19 19 17 16 18 18 16 16 20 27 28 27 37 45 48 52 53 57 58 60
84 91 86 54 38 33 32 39 72 92 96 97 96 89 86 83 83 75 70 73 60 52 34 29 27 24 25 25 25 26 30 34 36 40 40 45 51 60 64 64 61 59 60 61
38 74 51 39 52 54 63 98 100 100 100 98 100 99 93 85 76 66 68 64 84 83 73 64 60 53 45 38 37 38 41 42 48 64 67 65 62 70 73 66 58 56 56 56
74 28 51 58 45 63 84 100 100 100 100 99 100 96 100 94 86 70 62 90 100 97 79 72 71 60 52 49 56 60 64 68 73 74 71 73 74 80 73 62 57 50 51 52

GFSNW_500_rhum_102.txt.gz
RH
10 14 20 27 32 31 27 14 15 23 30 28 15 18 33 38 39 38 35 35 36 35 43 56 64 66 68 76 76 75 69 63 64 61 49 34 34 32 39 50 60 66 72 77
9 9 13 16 25 31 38 30 25 33 40 24 24 26 28 30 35 38 44 48 55 59 72 79 82 77 76 70 65 56 46 36 25 19 16 14 12 13 15 17 22 20 25 40
6 7 8 11 15 20 27 32 31 31 30 31 37 43 48 49 56 56 62 58 59 62 69 71 66 66 62 52 36 26 21 16 14 12 10 9 8 7 8 8 10 12 15 15
10 6 6 7 9 15 16 22 22 24 24 25 30 35 35 47 49 49 51 46 48 47 50 49 40 37 34 27 19 14 13 10 9 9 9 8 7 6 6 6 6 6 8 8
13 13 9 7 7 7 12 14 15 16 14 17 18 22 23 28 31 29 30 30 29 30 29 28 23 18 16 14 13 11 10 10 10 9 5 4 4 4 5 5 5 5 5 7
16 14 14 12 10 9 8 7 7 9 11 12 12 12 13 14 14 15 16 15 14 14 14 13 12 12 12 13 13 12 11 7 5 5 5 5 6 6 6 7 7 9 11 12
16 18 16 15 14 13 12 12 11 8 7 6 6 7 8 9 9 10 11 11 10 9 9 8 8 7 6 6 5 5 6 7 8 8 10 10 10 11 12 12 12 12 12 12
11 16 18 19 18 17 15 15 15 15 14 13 10 8 7 7 7 7 7 7 7 7 7 7 7 7 8 8 9 10 10 11 12 13 13 13 13 13 12 13 13 14 13 13
6 9 14 17 20 21 20 20 19 18 16 17 17 18 18 17 17 16 16 15 15 16 16 16 17 17 18 18 18 18 18 18 18 18 17 17 18 17 16 16 19 18 18 15
31 8 7 12 15 19 22 22 22 22 21 21 22 23 23 23 22 22 23 22 22 22 23 22 22 21 21 22 21 21 21 20 19 19 19 19 20 19 18 19 19 18 18 18
58 42 16 6 9 13 15 21 23 23 24 22 20 23 24 24 24 25 26 27 27 28 29 30 31 31 32 33 33 34 33 34 35 36 35 35 39 39 40 41 42 42 44 45
59 57 55 36 10 6 9 15 17 22 22 23 26 23 22 24 25 25 25 26 27 29 30 32 33 33 36 35 34 34 31 32 32 32 26 18 17 18 19 22 24 27 25 29
72 68 62 58 54 30 9 6 9 13 16 18 17 20 25 26 29 31 30 32 33 34 34 33 33 30 27 26 28 23 19 15 11 8 8 9 14 17 19 22 23 25 26 28
68 71 71 64 61 56 53 35 12 7 7 10 13 14 15 18 19 18 23 26 25 24 28 28 26 24 20 20 14 9 8 7 8 11 12 15 18 15 12 10 13 13 14 24
56 54 59 66 68 66 64 62 58 43 15 9 8 7 8 9 9 12 14 15 16 16 15 16 18 19 16 14 13 10 11 11 13 14 13 13 14 9 8 10 11 8 10 12
49 56 52 52 57 60 66 68 72 67 57 38 20 12 11 8 7 6 6 6 6 7 9 13 15 15 14 14 13 14 13 13 12 11 10 13 10 8 9 14 15 8 9 13
51 42 44 51 50 53 49 49 58 62 64 59 50 48 21 11 12 13 12 11 10 8 8 8 8 8 9 10 11 10 10 10 10 10 12 13 8 9 12 14 16 8 17 17
61 62 55 46 49 50 47 49 47 43 46 52 59 58 54 48 23 9 8 8 7 7 6 7 8 8 7 8 10 7 6 7 7 8 11 9 11 14 14 16 21 16 22 22
56 50 50 56 54 52 47 41 41 40 42 43 47 51 51 56 53 42 16 9 8 9 8 8 7 7 7 6 4 4 4 5 7 8 8 9 12 16 19 22 27 28 18 23
46 50 51 46 50 50 46 39 35 30 31 32 37 39 40 48 54 57 49 29 17 12 11 10 10 9 9 8 7 6 6 6 7 9 10 14 16 18 17 23 26 21 26 30
41 44 43 42 43 40 39 37 30 24 22 24 35 37 33 35 40 42 45 49 40 22 23 17 12 12 12 12 12 10 8 9 10 11 12 13 16 17 18 23 28 34 40 45
43 40 44 39 36 36 36 28 26 27 31 34 49 44 40 36 36 37 36 41 42 44 41 38 25 17 15 16 16 17 16 12 12 13 14 16 18 22 28 30 31 40 54 61
60 60 48 38 41 36 27 24 24 29 30 32 44 56 56 49 44 40 35 32 32 36 41 54 70 55 36 24 19 20 22 22 21 22 23 25 30 33 42 48 47 47 59 70
52 59 60 58 44 33 32 27 27 28 31 36 43 51 69 77 69 51 48 39 32 32 33 66 80 76 73 70 56 49 41 35 31 32 32 34 37 40 48 58 65 64 70 95
12 17 17 34 35 36 33 31 32 44 37 47 57 62 68 83 87 85 60 54 42 41 51 66 77 84 82 84 84 77 77 73 67 62 58 60 61 61 59 63 75 82 90 97
3 3 4 10 16 22 30 40 50 71 78 94 93 92 89 100 97 84 87 67 60 74 90 88 87 87 77 71 78 86 91 87 82 82 79 75 73 71 68 73 81 90 94 98
5 3 2 2 2 3 5 17 68 91 87 100 100 100 100 100 91 75 78 84 100 93 89 100 97 91 80 70 65 70 87 87 88 100 93 79 85 84 80 87 92 95 90 90

GFSNW_500_rhum_105.txt.gz
RH
8 9 17 19 18 20 25 26 23 29 36 40 28 27 27 27 27 28 26 26 32 38 40 39 41 44 57 68 75 79 78 75 70 52 36 26 21 20 23 26 29 35 40 39
7 9 9 13 18 23 27 28 28 35 44 32 30 32 34 35 38 42 46 48 55 67 74 71 77 74 71 71 58 49 45 26 16 12 10 9 8 7 7 12 14 15 16 15
9 7 8 9 13 16 18 24 29 36 40 33 37 35 41 43 48 56 66 73 76 75 74 72 68 66 57 36 24 16 12 10 9 9 9 8 7 6 5 6 6 6 7 8
13 11 8 8 7 11 11 17 16 20 23 26 31 32 31 35 38 41 44 47 50 43 42 44 34 28 22 18 14 11 10 9 10 9 6 5 5 5 5 5 6 6 5 5
15 14 12 10 9 8 7 8 10 10 12 14 15 19 19 18 18 20 21 23 24 21 17 14 12 12 11 11 11 12 11 9 6 5 5 5 6 6 6 6 6 7 9 11
17 17 15 14 12 11 11 9 8 7 6 8 10 11 11 12 12 14 14 13 13 14 15 16 15 15 14 13 8 7 6 6 7 8 9 9 9 11 11 10 11 12 12 13
12 17 18 18 16 14 14 13 13 12 12 10 8 7 6 6 6 6 6 6 6 6 6 5 6 6 6 7 8 8 9 10 10 10 11 11 11 11 11 11 12 13 13 14
7 10 17 20 20 19 19 18 16 16 16 17 18 17 16 15 15 14 13 13 13 12 13 14 15 15 14 14 14 14 15 15 15 15 16 16 16 17 17 17 17 19 19 19
28 9 7 14 19 21 21 22 21 20 19 21 22 22 22 21 20 20 19 19 19 18 18 18 17 17 17 18 18 19 19 18 19 18 22 21 22 23 24 26 27 32 33 34
59 40 13 6 8 17 21 22 22 22 21 21 22 23 23 23 25 25 25 25 26 26 27 28 28 28 29 32 32 34 32 34 32 33 29 28 27 30 24 27 26 26 23 25
64 60 57 27 10 6 9 18 20 21 22 22 21 21 21 23 24 24 25 26 25 25 26 26 28 31 32 32 32 31 31 29 30 26 13 12 9 11 15 16 16 18 18 19
65 62 64 66 54 26 11 7 8 14 19 19 21 24 23 22 25 26 27 25 29 28 28 28 27 26 29 28 25 25 19 17 12 10 8 10 12 14 18 17 16 14 15 16
57 63 64 67 68 66 60 41 20 9 7 10 15 17 18 21 23 20 21 19 22 25 25 25 27 24 21 20 18 18 13 12 10 9 9 12 12 10 13 12 10 12 12 10
49 48 56 63 63 63 68 66 63 62 46 23 10 7 8 10 14 17 17 16 16 14 15 16 17 17 16 16 16 16 14 13 13 13 14 13 13 10 10 10 8 13 14 10
52 52 49 49 53 52 57 62 67 70 69 72 69 37 20 15 10 8 8 7 7 6 6 7 8 9 11 11 12 14 15 14 13 13 13 12 10 9 10 10 8 12 15 16
55 57 53 51 52 48 43 44 50 55 59 67 69 66 65 62 56 25 10 10 9 9 9 9 9 9 7 6 6 8 11 10 8 9 9 8 8 10 11 8 11 14 14 19
52 52 54 57 51 52 52 45 46 43 42 47 52 50 54 57 58 60 57 53 35 15 8 8 8 8 7 7 8 7 5 5 6 7 8 10 10 12 10 10 12 15 21 25
60 55 52 52 62 60 55 47 44 45 44 44 42 45 43 42 44 45 46 48 49 41 35 21 14 10 9 9 8 7 8 8 6 6 7 8 11 11 10 14 17 20 22 24
51 56 55 50 52 54 56 48 38 38 37 36 46 46 41 39 40 39 39 39 39 40 43 42 35 37 18 13 12 10 10 10 8 6 6 7 9 11 14 17 17 20 22 25
42 39 39 47 49 44 40 38 34 27 27 23 44 49 43 41 37 34 35 33 32 31 34 38 38 49 45 32 23 16 13 13 14 14 10 10 11 12 13 16 18 21 25 29
45 46 41 39 36 34 38 40 36 28 25 26 34 40 40 39 39 37 34 31 30 27 26 30 31 53 54 49 46 40 28 17 16 16 18 16 14 14 16 21 25 29 34 45
46 41 40 40 38 29 29 26 32 33 32 32 32 31 31 32 33 35 34 34 29 24 24 24 25 52 44 54 58 54 55 50 33 23 22 23 23 24 25 28 33 39 48 60
40 40 35 32 35 30 23 22 26 31 32 30 33 36 34 31 33 32 33 34 31 29 26 21 31 39 56 72 73 75 71 73 65 54 48 41 39 38 38 40 44 50 57 64
51 54 46 35 24 22 27 32 38 40 46 47 42 40 38 39 38 39 34 42 47 32 23 44 42 42 52 71 81 88 86 81 80 79 77 74 71 68 68 64 66 70 71 83
18 20 19 11 17 24 29 37 42 46 52 56 55 58 53 58 74 73 56 60 48 48 88 91 86 81 71 87 95 88 97 98 91 88 89 97 96 88 74 72 71 77 92 98
8 8 8 9 16 17 21 17 13 18 24 34 33 40 59 77 85 72 63 72 83 100 100 99 91 93 90 100 100 100 93 93 98 92 97 96 97 94 80 69 77 88 97 98
6 4 5 6 8 10 8 5 4 4 4 6 19 32 81 88 81 65 78 86 100 98 95 99 100 100 100 100 100 97 92 92 95 98 97 98 99 97 92 83 83 87 97 98

GFSNW_500_rhum_108.txt.gz
RH
8 11 13 17 18 18 29 27 27 29 34 35 22 21 22 21 28 32 26 23 23 21 21 20 21 28 34 32 35 45 48 55 60 53 43 24 22 20 21 24 23 21 18 15
9 7 12 12 13 16 18 23 27 35 44 42 44 49 50 46 46 49 52 46 46 44 46 51 58 63 65 64 64 62 48 23 14 10 10 9 8 8 6 8 13 11 10 9
13 10 8 10 10 9 9 14 16 25 38 40 45 50 56 61 66 65 66 60 57 58 58 56 46 36 26 18 13 11 10 9 9 9 8 7 6 5 5 5 5 5 5 5
16 14 13 10 7 7 7 8 9 10 12 16 18 23 27 33 39 39 33 32 36 32 26 19 14 13 12 11 11 11 10 9 6 5 5 5 5 5 5 5 5 5 7 10
15 17 15 14 13 10 9 8 6 7 7 8 10 10 11 13 13 14 15 16 17 16 13 13 13 13 13 13 9 8 6 6 6 7 8 8 9 10 9 9 10 10 11 11
9 14 18 17 15 14 14 12 12 12 12 10 8 7 6 6 7 7 7 8 9 7 7 6 6 6 6 7 7 8 10 11 12 11 11 11 10 9 10 11 12 12 13 14
8 8 12 18 19 18 16 16 16 15 16 16 17 17 17 16 15 14 13 13 12 13 14 13 14 14 15 15 15 14 14 13 14 14 12 13 12 13 14 16 17 16 17 19
54 8 8 10 16 21 20 20 19 19 19 19 19 19 19 19 19 20 20 19 18 18 17 17 17 17 17 16 16 16 16 16 16 17 19 20 21 24 27 29 28 29 33 34
64 59 15 7 10 12 18 22 22 20 20 21 23 23 23 23 24 24 25 25 26 27 26 25 23 25 25 28 29 30 29 29 28 28 27 23 16 12 12 15 27 27 18 18
58 63 64 37 9 8 12 14 19 23 23 21 22 23 23 23 23 23 23 24 24 26 28 28 30 30 29 31 30 30 29 29 24 19 11 13 12 9 10 13 15 18 18 18
45 56 61 61 57 37 11 7 9 11 18 23 24 25 25 25 23 21 20 21 22 22 24 24 25 26 29 26 28 21 22 20 20 18 12 8 9 12 12 11 12 14 12 14
43 49 58 59 59 59 61 55 25 9 7 8 13 20 24 25 22 27 28 25 27 27 22 23 21 21 21 24 23 21 17 17 16 14 12 10 10 12 13 11 9 11 8 12
47 45 48 57 62 62 65 64 63 65 45 21 12 8 8 12 16 17 19 20 19 18 16 14 14 13 12 14 14 14 15 15 14 13 14 14 13 14 12 9 9 9 10 9
56 51 50 48 48 55 56 62 67 65 65 69 65 54 42 21 12 8 7 10 14 12 9 8 10 8 7 8 7 7 8 9 10 9 11 10 10 9 9 8 8 9 10 9
55 56 60 59 53 50 52 56 53 55 60 64 66 67 70 68 63 54 48 43 22 18 14 10 9 8 8 8 7 8 10 10 6 5 5 5 6 7 8 8 8 8 9 10
64 57 56 59 62 57 56 52 53 48 47 46 51 58 64 59 60 58 55 53 49 44 41 40 31 22 12 9 10 9 7 7 7 7 7 7 6 6 7 9 8 9 9 12
64 65 62 57 55 55 56 53 51 51 51 48 46 46 56 53 53 49 48 48 46 44 44 42 43 44 33 29 33 18 13 11 10 9 9 8 6 5 5 6 8 9 9 14
72 69 76 69 64 62 58 51 47 44 45 47 47 48 47 48 46 42 41 39 37 36 36 39 42 46 45 47 37 36 37 26 17 12 11 12 12 10 6 6 8 10 13 18
53 63 72 68 60 63 61 61 56 49 46 39 37 52 48 44 42 40 40 37 34 31 32 32 30 37 40 37 40 41 42 44 38 26 17 16 14 15 13 11 10 13 14 16
92 88 71 62 59 57 51 45 42 40 41 43 44 45 44 45 43 39 37 32 32 28 26 27 26 29 40 32 32 36 41 44 54 53 32 24 20 18 18 17 15 14 15 18
60 53 54 50 45 52 61 57 52 44 40 39 40 37 32 32 32 37 36 33 30 23 19 20 16 24 33 36 38 34 33 33 34 52 66 52 38 27 23 22 21 20 22 25
60 55 46 42 36 34 32 31 31 37 41 42 44 41 41 39 34 30 30 33 31 29 26 23 20 31 26 29 30 34 35 36 38 52 67 79 55 33 24 27 31 32 33 35
52 46 44 27 14 14 13 13 16 21 26 31 35 36 36 35 36 34 37 34 32 30 28 28 34 30 33 34 33 33 42 63 74 72 81 86 65 48 57 60 49 60 68 65
34 36 39 36 32 27 19 9 9 14 22 26 26 26 27 34 37 44 46 44 39 34 37 46 54 54 50 47 55 64 78 87 94 99 98 87 82 94 95 91 90 96 98 98
12 15 18 24 18 13 12 9 10 14 15 15 17 18 21 30 40 54 52 69 70 66 94 96 76 66 65 77 100 100 100 100 99 98 96 95 99 100 98 99 99 99 100 100
5 7 12 10 5 4 4 6 7 7 8 9 10 11 13 16 18 18 21 26 32 44 61 65 65 70 73 95 100 100 100 100 100 97 95 99 99 97 96 96 99 100 100 94
4 3 3 3 2 3 4 4 4 6 6 6 7 7 6 8 8 9 12 13 16 32 37 62 97 83 86 84 100 100 100 99 89 91 91 91 94 99 98 97 96 99 100 98

GFSNW_500_rhum_111.txt.gz
RH
11 7 7 11 12 14 25 32 36 43 50 53 42 44 42 37 38 30 23 23 22 21 22 21 21 20 20 19 23 28 38 46 46 42 37 28 24 23 27 33 34 33 18 12
14 12 9 6 8 10 11 14 20 36 48 50 48 50 56 57 56 50 40 38 41 46 53 52 54 50 46 47 45 40 27 13 10 9 9 8 8 7 6 8 12 11 7 6
14 15 13 11 8 7 7 9 10 12 17 31 37 38 42 46 49 50 50 43 40 39 33 27 22 17 13 11 10 10 9 9 8 7 6 5 5 5 4 5 5 5 6 8
13 15 16 14 13 11 8 7 6 7 8 9 12 16 21 23 23 22 20 18 16 13 12 12 12 12 11 10 10 9 6 5 4 5 5 5 5 6 7 8 8 9 10 10
8 12 14 16 15 14 14 12 10 11 9 8 6 7 7 9 10 11 13 14 16 15 14 13 10 7 6 5 5 7 8 9 10 10 10 10 9 9 10 11 11 12 13 14
46 9 11 13 16 17 17 16 16 15 17 16 16 16 15 14 13 12 10 10 10 9 8 8 10 12 13 13 14 14 14 14 13 12 12 12 12 12 13 14 17 18 17 20
66 54 10 9 10 14 18 19 19 18 18 19 19 19 18 18 18 19 18 19 19 19 18 17 17 17 17 16 16 16 16 16 16 16 16 16 19 21 22 24 22 25 27 28
56 65 60 15 7 8 11 16 20 20 22 22 23 24 24 24 23 21 22 21 21 21 21 21 21 21 22 21 21 21 21 23 22 24 25 21 14 10 10 11 12 15 15 13
46 53 65 64 39 7 6 8 11 17 19 20 23 24 24 24 25 25 25 25 25 25 25 25 27 31 31 31 31 32 30 30 27 23 16 11 10 10 11 11 12 12 12 11
45 48 51 64 65 56 22 6 6 7 9 14 19 21 23 24 24 26 25 24 23 23 25 24 26 28 29 31 32 29 27 25 22 20 16 14 11 9 10 11 12 12 11 11
50 45 46 51 69 67 61 56 33 14 6 6 6 9 15 18 24 24 25 25 25 27 26 26 26 27 27 26 28 24 22 20 17 17 16 15 13 12 12 13 14 13 11 10
53 53 45 45 51 66 71 66 66 64 55 36 16 8 6 6 7 9 14 17 19 19 22 23 22 23 22 20 18 17 16 16 15 15 14 14 13 13 12 10 10 10 9 8
51 53 59 47 46 53 58 69 70 72 68 66 67 64 56 39 28 11 7 7 6 7 7 9 8 7 7 9 10 9 8 9 8 8 11 8 7 7 8 8 8 9 9 9
64 57 54 62 51 48 50 50 60 70 74 72 70 71 73 75 71 60 53 40 34 27 22 16 17 14 10 8 8 9 11 7 5 5 6 6 6 6 7 7 6 7 8 10
70 73 60 58 55 49 51 50 49 51 58 67 70 67 65 66 71 70 64 62 60 55 56 55 51 54 45 36 24 21 12 8 8 8 9 9 8 8 8 7 6 6 6 7
75 85 68 64 57 55 50 54 53 50 52 50 58 60 60 57 57 61 60 57 54 51 46 44 46 48 44 41 52 58 45 43 34 26 18 14 11 10 10 11 9 7 6 7
74 74 85 84 69 65 58 55 53 54 54 53 53 53 54 57 61 61 54 52 52 48 46 42 40 40 38 36 38 36 34 34 37 41 40 33 23 16 15 14 14 13 11 8
64 66 70 80 84 78 70 68 70 63 57 55 57 58 59 56 49 48 50 49 46 42 40 38 38 37 35 34 34 32 31 29 29 29 30 31 39 43 37 28 19 16 15 13
66 72 68 62 61 78 87 81 77 78 74 65 59 55 51 54 61 56 58 58 52 49 46 42 38 38 38 34 32 32 30 28 27 30 29 29 30 31 42 47 35 20 18 16
98 98 94 93 85 70 80 84 81 76 68 61 58 59 58 54 51 46 42 38 38 38 35 31 28 31 32 35 34 32 31 29 27 26 26 29 30 30 30 47 58 49 28 17
92 92 90 78 66 63 61 52 48 50 49 44 38 33 35 37 34 35 42 45 41 35 34 33 30 32 32 29 28 25 27 30 29 31 31 30 30 32 34 53 63 63 44 25
96 84 70 69 68 58 53 46 44 43 40 36 28 18 16 16 15 16 19 21 22 22 23 23 23 25 24 27 26 23 24 29 34 38 42 43 46 53 62 79 83 79 57 28
90 76 54 54 53 50 42 37 41 39 38 36 34 32 30 25 20 15 12 10 10 11 12 14 19 23 24 23 25 30 36 44 57 62 62 66 73 82 88 85 75 58 46 39
84 78 68 55 45 39 42 46 45 35 28 26 25 25 24 20 17 14 13 12 11 9 9 18 24 25 30 26 39 70 91 92 92 88 90 87 93 100 100 100 100 92 75 96
81 66 58 47 43 42 37 33 28 24 21 20 19 17 15 13 11 9 9 8 8 8 10 15 16 28 28 42 61 82 69 49 51 85 100 100 99 95 95 90 97 100 100 100
73 63 57 53 39 25 16 14 12 10 8 7 6 6 6 6 6 5 5 5 5 6 7 8 8 10 11 13 15 16 23 35 79 100 100 100 98 88 86 97 100 100 100 100
46 42 40 34 20 10 8 7 6 6 6 5 5 4 4 4 4 4 3 3 4 4 4 5 5 6 7 9 8 9 12 31 100 100 98 100 100 100 98 96 100 96 94 100

GFSNW_500_rhum_114.txt.gz
RH
14 13 8 7 10 13 23 30 29 37 43 51 34 28 26 24 24 25 25 25 24 24 23 22 22 19 17 14 15 17 20 20 22 24 31 36 35 32 32 34 37 30 29 14
16 15 14 12 7 8 11 12 20 26 35 40 39 41 45 51 54 56 54 49 49 49 43 34 32 30 33 38 38 36 28 20 16 11 9 8 7 8 9 10 10 9 6 4
11 15 16 14 14 10 7 7 8 11 16 20 25 27 29 30 27 30 34 30 32 33 25 23 19 15 11 10 9 9 8 7 7 6 5 5 4 4 4 4 4 4 5 6
10 11 16 16 16 15 14 12 10 8 7 8 9 11 14 16 16 15 14 13 12 12 12 11 11 11 10 10 8 6 5 4 4 4 4 4 5 6 6 8 8 9 11 12
59 10 8 17 17 17 17 16 16 16 16 13 12 11 8 7 7 6 7 10 12 12 10 9 8 6 5 6 7 7 8 9 9 10 9 9 9 10 11 12 16 18 19 20
63 59 12 6 15 16 17 18 18 18 19 18 19 19 19 18 17 17 16 14 12 10 10 12 12 12 13 14 14 14 15 15 14 14 14 15 16 19 20 21 20 21 22 20
51 61 60 23 6 11 16 16 17 18 20 22 23 23 24 23 22 21 22 21 20 19 18 18 18 19 19 19 20 20 18 18 18 19 18 18 15 11 10 11 11 13 14 13
54 51 57 62 41 7 6 10 14 15 17 17 20 23 24 25 26 26 27 27 27 26 25 25 25 26 28 30 31 30 28 28 28 25 19 14 12 10 11 11 12 12 12 10
52 54 49 55 63 53 17 5 6 8 11 14 15 16 17 20 22 24 26 25 27 28 28 29 31 32 32 32 30 31 31 29 27 23 21 17 14 12 9 9 9 11 12 10
34 54 53 48 53 63 59 42 12 6 6 6 8 10 12 13 14 14 15 18 21 22 25 28 29 29 29 31 30 29 26 24 21 20 19 17 16 15 14 11 10 11 12 12
36 46 54 54 48 48 60 64 66 54 31 13 6 6 7 7 8 9 12 11 13 14 15 17 20 22 24 22 22 22 19 18 18 17 16 15 14 14 13 12 11 11 10 11
53 36 33 45 60 52 45 54 66 70 72 66 55 31 12 8 7 7 7 8 8 8 8 9 9 12 11 10 8 10 10 10 9 10 10 9 6 7 7 7 8 8 8 9
52 50 30 45 50 65 62 46 48 59 64 70 75 72 69 68 59 39 41 25 18 12 13 13 14 10 8 10 9 9 11 7 5 5 9 8 8 8 8 8 7 6 7 7
54 52 50 42 49 58 55 68 58 47 51 59 66 70 72 74 74 73 72 70 69 63 57 56 53 47 38 44 46 50 16 10 15 27 25 15 13 12 10 10 10 9 10 10
58 55 61 58 54 52 67 58 62 67 51 53 56 60 61 63 65 65 66 67 65 62 61 54 52 50 44 41 43 53 48 42 39 40 37 35 42 39 37 31 20 17 14 13
59 61 60 63 59 67 77 68 59 52 50 50 53 58 57 59 60 61 61 61 62 59 57 56 53 52 48 42 39 48 40 36 35 32 31 30 29 29 28 33 34 34 37 34
67 60 62 61 70 76 82 83 84 74 59 53 54 57 60 62 61 61 59 56 54 54 54 54 52 49 45 42 42 38 37 35 34 29 25 27 26 26 26 26 26 28 29 33
82 78 65 71 80 76 80 89 95 88 93 93 82 93 92 88 77 71 69 71 69 59 54 51 50 52 52 50 46 38 34 32 30 29 28 24 27 31 30 28 27 29 30 29
79 91 87 83 78 69 67 75 83 90 94 93 94 95 96 97 94 90 84 74 68 65 67 64 54 45 44 44 44 42 40 36 33 34 31 31 29 28 26 28 29 30 30 29
88 90 91 80 76 71 74 81 80 76 76 75 86 86 82 77 70 70 69 68 59 57 52 43 38 38 41 43 39 31 28 26 24 23 26 28 27 27 29 33 34 36 36 37
98 96 94 84 85 96 96 89 89 80 77 74 76 67 58 53 47 44 40 35 29 26 24 22 20 17 15 14 14 14 13 13 12 12 14 18 23 28 31 38 45 50 56 70
96 95 99 100 100 100 98 80 80 79 75 70 63 54 46 41 37 35 32 29 26 25 25 25 24 21 19 16 13 12 11 10 10 11 15 20 29 45 63 70 67 65 68 78
97 95 96 93 96 92 90 87 96 86 68 59 54 49 44 38 34 32 30 28 27 24 22 21 20 18 16 13 12 11 9 9 11 18 42 65 91 100 96 77 65 74 74 76
94 96 91 98 87 75 87 92 96 89 83 74 64 54 48 42 37 35 32 29 25 22 20 17 17 13 12 12 10 9 7 6 9 34 66 74 83 95 76 45 75 92 98 100
96 91 88 82 81 86 94 92 93 96 96 85 69 60 51 42 36 32 30 28 25 20 14 9 9 10 9 8 8 7 5 5 6 8 17 38 36 28 23 64 94 100 100 100
93 81 73 78 87 95 95 93 89 81 75 64 56 48 42 39 36 33 27 22 17 11 9 7 6 5 5 5 4 3 3 3 3 4 6 7 12 21 23 86 100 100 100 95
76 75 83 88 85 88 87 80 66 52 50 39 31 29 22 24 25 23 15 9 8 6 6 5 5 4 4 4 3 3 3 4 4 4 4 4 6 9 15 32 81 90 47 70

GFSNW_500_rhum_117.txt.gz
RH
17 15 14 13 8 8 16 26 33 38 44 58 49 50 44 36 28 25 26 35 49 58 64 61 59 57 50 35 25 23 19 14 10 11 11 12 14 13 12 16 19 22 23 25
14 17 16 15 15 13 8 10 14 22 26 27 26 36 47 56 59 60 53 39 29 25 22 19 19 20 20 22 24 22 18 20 20 24 24 25 22 19 22 21 17 10 6 5
22 13 17 16 16 16 16 13 9 9 12 15 15 16 15 16 19 25 32 39 43 46 45 40 36 35 31 28 24 21 19 15 11 9 7 6 5 5 4 4 4 4 6 8
68 25 11 17 17 18 16 17 17 17 14 9 7 9 12 14 13 13 13 12 12 12 12 11 10 10 10 10 9 8 6 5 5 4 4 4 4 5 7 9 11 12 12 13
56 69 31 10 16 17 19 18 19 18 20 20 19 17 14 9 7 6 7 9 11 11 11 10 8 7 6 5 5 5 5 5 5 5 6 9 10 11 12 16 19 22 24 23
52 54 67 36 10 13 17 19 19 19 20 20 21 23 22 21 20 18 16 14 13 12 10 9 8 9 10 11 12 11 11 11 12 13 13 15 18 22 22 21 17 16 13 13
24 53 53 65 50 11 9 15 18 18 18 19 18 20 22 23 25 26 26 24 22 20 20 20 20 20 20 19 19 20 19 19 19 20 19 19 16 13 11 11 10 11 12 10
26 28 56 52 60 65 28 8 10 16 18 18 19 17 17 18 20 21 23 25 27 27 26 28 28 30 30 31 30 27 26 26 26 23 21 18 15 13 11 11 10 10 11 11
25 30 41 57 52 52 66 59 18 8 11 15 16 18 18 16 16 17 18 19 19 21 22 23 25 26 27 28 27 29 29 29 27 24 23 21 18 16 15 13 14 11 10 10
34 31 33 50 56 56 50 59 62 45 20 8 9 11 14 18 16 15 16 16 17 17 18 19 19 19 20 22 20 19 17 18 20 19 18 18 17 16 15 14 12 13 13 13
48 41 38 37 47 55 58 55 50 61 60 58 53 33 13 8 11 13 12 14 13 16 17 15 14 17 19 19 18 16 13 12 12 13 12 12 11 10 9 8 7 7 8 8
54 50 42 43 43 32 60 63 61 52 51 61 62 65 69 65 38 22 19 13 10 8 8 9 9 9 8 8 10 9 11 10 7 6 8 8 9 12 10 9 10 10 9 9
63 50 45 45 48 47 38 64 78 68 65 53 50 56 58 64 68 69 71 62 72 60 44 37 30 31 30 41 45 60 41 17 14 18 31 41 47 44 40 40 36 34 31 25
63 57 46 48 54 47 45 40 50 58 71 76 65 53 53 55 60 64 70 69 62 66 68 66 66 65 58 55 52 53 54 49 45 43 40 36 36 33 29 28 26 24 22 25
60 56 50 56 54 56 54 55 56 64 74 65 77 87 59 57 58 60 58 58 55 55 58 60 59 58 53 47 45 50 50 50 43 39 39 36 34 30 28 27 26 24 24 24
62 58 54 56 59 55 58 57 54 55 80 80 64 67 91 90 75 62 62 61 60 59 58 59 58 58 57 55 49 50 44 42 42 42 41 36 32 32 28 28 28 27 27 26
69 69 66 63 57 62 59 56 62 62 66 80 92 85 80 85 74 66 65 65 64 62 58 58 60 58 54 51 53 50 52 54 56 54 51 44 40 37 35 29 25 26 28 29
69 70 74 76 71 69 61 65 58 65 76 85 90 95 90 89 85 79 73 68 67 66 64 70 77 77 76 77 74 69 64 56 48 47 56 53 42 31 26 22 20 20 20 22
73 69 66 74 79 74 71 73 77 71 72 79 93 99 95 84 84 88 84 82 88 83 84 82 77 62 58 60 48 44 40 31 26 20 18 17 16 14 14 13 13 11 11 12
85 76 72 69 77 76 74 80 87 84 79 73 82 94 95 90 88 86 85 77 69 59 61 61 56 42 36 30 27 26 25 24 22 22 21 19 17 15 13 11 10 10 11 16
88 84 81 76 80 81 81 83 90 89 85 80 85 97 97 98 98 88 81 79 68 52 48 40 31 29 27 26 25 23 20 18 16 16 15 14 13 12 12 11 11 12 16 31
90 88 85 89 90 89 90 81 89 98 94 88 96 97 95 95 96 86 71 61 54 48 41 38 36 34 32 29 25 23 21 19 17 15 14 14 14 13 11 8 9 12 27 78
98 100 100 100 100 94 80 87 97 100 95 95 93 97 95 88 84 82 77 68 59 56 55 51 45 37 32 30 28 24 21 19 16 14 13 12 11 9 7 6 6 7 32 93
97 95 91 100 96 92 100 100 100 100 97 95 93 88 84 82 83 84 77 73 66 64 62 48 42 38 34 30 26 22 18 16 14 11 10 8 7 6 3 3 3 2 4 12
99 97 90 85 97 100 100 100 100 98 100 100 99 96 90 90 88 84 81 76 67 61 50 43 40 35 30 27 24 20 16 13 10 8 6 5 4 3 3 2 3 3 3 4
96 86 85 91 95 99 100 100 100 98 96 95 92 84 78 78 74 69 70 63 60 47 33 37 36 26 22 19 14 11 9 7 6 6 4 4 3 3 3 3 3 3 4 4
85 80 90 96 98 100 100 100 100 99 98 98 93 86 88 79 69 62 65 64 44 30 25 20 22 20 12 9 7 6 5 4 4 3 3 3 4 4 4 3 4 4 4 4